<?xml version="1.0" encoding="UTF-8" standalone="no" ?>
<gpx xmlns="http://www.topografix.com/GPX/1/1" xmlns:xsi="http://www.w3.org/2001/XMLSchema-instance" xsi:schemaLocation="http://www.topografix.com/GPX/1/1 http://www.topografix.com/GPX/1/1/gpx.xsd" version="1.1" creator="VisuGPX - https://www.visugpx.com">
  <metadata>
    <name>St Jean de la Blaquiére/Enduro</name>
    <desc><![CDATA[Une jolie sortie typée enduro sans grosses difficultés. On démarre de St Jean direction le chemin de Rouvayret pour la première cote. Après 4 épingles on arrive au départ de la descente (qui coupe le chemin de la montée). attention à la vitesse car il y a de belles compressions. On repart pour la 2ème cote qui nous emmène sur un beau single avec devers et marches à sauter, miam! Ensuite on entame la longue ascension pour aboutir aux frigoules. Donc c'est partit pour les toboggans, là il y à de la pente et surtout à la fin. c'est très ludique :-) .puis on enchaine sur la 2éme descente (celle avec les marches), c'est encore mieux cette fois ci ! on attaque maintenant l'avant dernière montée pour arriver dans une vigne. (Bien respecter le site c'est privé). De la une encore jolie trace descendante avec devers, sauts et pente. Enfin dernière cote pour finir sur une encore belle descente en sous bois. Retour sur St jean par piste et route. Que du bon ici.]]></desc>
  </metadata>
  <trk>
    <name><![CDATA[St Jean de la Blaquiére/Enduro_1]]></name>
    <trkseg>
      <trkpt lat="43.71425" lon="3.42231">
        <ele>214.1</ele>
        <time>2016-12-31T12:02:47Z</time>
      </trkpt>
      <trkpt lat="43.71426" lon="3.42236">
        <ele>223.5</ele>
        <time>2016-12-31T12:09:21Z</time>
      </trkpt>
      <trkpt lat="43.71432" lon="3.42242">
        <ele>223.6</ele>
        <time>2016-12-31T12:09:24Z</time>
      </trkpt>
      <trkpt lat="43.71439" lon="3.42239">
        <ele>223.5</ele>
        <time>2016-12-31T12:09:28Z</time>
      </trkpt>
      <trkpt lat="43.71446" lon="3.42235">
        <ele>223.3</ele>
        <time>2016-12-31T12:09:33Z</time>
      </trkpt>
      <trkpt lat="43.71452" lon="3.42241">
        <ele>223.3</ele>
        <time>2016-12-31T12:09:38Z</time>
      </trkpt>
      <trkpt lat="43.71457" lon="3.42251">
        <ele>223.3</ele>
        <time>2016-12-31T12:09:43Z</time>
      </trkpt>
      <trkpt lat="43.71464" lon="3.42258">
        <ele>222.9</ele>
        <time>2016-12-31T12:09:48Z</time>
      </trkpt>
      <trkpt lat="43.71466" lon="3.42269">
        <ele>222.7</ele>
        <time>2016-12-31T12:09:51Z</time>
      </trkpt>
      <trkpt lat="43.71467" lon="3.42278">
        <ele>222.6</ele>
        <time>2016-12-31T12:09:53Z</time>
      </trkpt>
      <trkpt lat="43.71469" lon="3.42289">
        <ele>222.5</ele>
        <time>2016-12-31T12:09:55Z</time>
      </trkpt>
      <trkpt lat="43.71472" lon="3.42302">
        <ele>222.3</ele>
        <time>2016-12-31T12:09:58Z</time>
      </trkpt>
      <trkpt lat="43.71473" lon="3.42317">
        <ele>221.5</ele>
        <time>2016-12-31T12:10:01Z</time>
      </trkpt>
      <trkpt lat="43.71474" lon="3.42329">
        <ele>220.4</ele>
        <time>2016-12-31T12:10:03Z</time>
      </trkpt>
      <trkpt lat="43.71474" lon="3.42343">
        <ele>219.2</ele>
        <time>2016-12-31T12:10:05Z</time>
      </trkpt>
      <trkpt lat="43.71473" lon="3.42358">
        <ele>218.8</ele>
        <time>2016-12-31T12:10:07Z</time>
      </trkpt>
      <trkpt lat="43.71472" lon="3.42375">
        <ele>218</ele>
        <time>2016-12-31T12:10:09Z</time>
      </trkpt>
      <trkpt lat="43.71473" lon="3.42392">
        <ele>217.8</ele>
        <time>2016-12-31T12:10:11Z</time>
      </trkpt>
      <trkpt lat="43.71473" lon="3.42403">
        <ele>217</ele>
        <time>2016-12-31T12:10:12Z</time>
      </trkpt>
      <trkpt lat="43.71474" lon="3.42424">
        <ele>215.8</ele>
        <time>2016-12-31T12:10:14Z</time>
      </trkpt>
      <trkpt lat="43.71474" lon="3.42437">
        <ele>214.8</ele>
        <time>2016-12-31T12:10:15Z</time>
      </trkpt>
      <trkpt lat="43.71474" lon="3.42449">
        <ele>214.1</ele>
        <time>2016-12-31T12:10:16Z</time>
      </trkpt>
      <trkpt lat="43.71474" lon="3.42461">
        <ele>213.5</ele>
        <time>2016-12-31T12:10:17Z</time>
      </trkpt>
      <trkpt lat="43.71474" lon="3.42473">
        <ele>212.7</ele>
        <time>2016-12-31T12:10:18Z</time>
      </trkpt>
      <trkpt lat="43.71474" lon="3.42485">
        <ele>212</ele>
        <time>2016-12-31T12:10:19Z</time>
      </trkpt>
      <trkpt lat="43.71474" lon="3.42497">
        <ele>211.5</ele>
        <time>2016-12-31T12:10:20Z</time>
      </trkpt>
      <trkpt lat="43.71475" lon="3.42508">
        <ele>210.9</ele>
        <time>2016-12-31T12:10:21Z</time>
      </trkpt>
      <trkpt lat="43.71475" lon="3.42528">
        <ele>210.2</ele>
        <time>2016-12-31T12:10:23Z</time>
      </trkpt>
      <trkpt lat="43.71475" lon="3.42547">
        <ele>209.6</ele>
        <time>2016-12-31T12:10:25Z</time>
      </trkpt>
      <trkpt lat="43.71474" lon="3.42563">
        <ele>209.5</ele>
        <time>2016-12-31T12:10:27Z</time>
      </trkpt>
      <trkpt lat="43.71473" lon="3.42576">
        <ele>209.8</ele>
        <time>2016-12-31T12:10:29Z</time>
      </trkpt>
      <trkpt lat="43.71471" lon="3.42588">
        <ele>210</ele>
        <time>2016-12-31T12:10:31Z</time>
      </trkpt>
      <trkpt lat="43.71465" lon="3.42598">
        <ele>209.7</ele>
        <time>2016-12-31T12:10:33Z</time>
      </trkpt>
      <trkpt lat="43.71455" lon="3.42602">
        <ele>210.5</ele>
        <time>2016-12-31T12:10:35Z</time>
      </trkpt>
      <trkpt lat="43.71446" lon="3.42607">
        <ele>211.2</ele>
        <time>2016-12-31T12:10:37Z</time>
      </trkpt>
      <trkpt lat="43.71439" lon="3.42614">
        <ele>210.9</ele>
        <time>2016-12-31T12:10:39Z</time>
      </trkpt>
      <trkpt lat="43.71432" lon="3.42624">
        <ele>210.8</ele>
        <time>2016-12-31T12:10:42Z</time>
      </trkpt>
      <trkpt lat="43.71425" lon="3.42635">
        <ele>210.8</ele>
        <time>2016-12-31T12:10:45Z</time>
      </trkpt>
      <trkpt lat="43.7142" lon="3.42646">
        <ele>210.7</ele>
        <time>2016-12-31T12:10:48Z</time>
      </trkpt>
      <trkpt lat="43.71415" lon="3.42657">
        <ele>210.8</ele>
        <time>2016-12-31T12:10:51Z</time>
      </trkpt>
      <trkpt lat="43.71412" lon="3.42666">
        <ele>210.8</ele>
        <time>2016-12-31T12:10:53Z</time>
      </trkpt>
      <trkpt lat="43.7141" lon="3.42677">
        <ele>210.7</ele>
        <time>2016-12-31T12:10:55Z</time>
      </trkpt>
      <trkpt lat="43.71407" lon="3.42688">
        <ele>210.6</ele>
        <time>2016-12-31T12:10:57Z</time>
      </trkpt>
      <trkpt lat="43.71405" lon="3.42701">
        <ele>211</ele>
        <time>2016-12-31T12:10:59Z</time>
      </trkpt>
      <trkpt lat="43.71403" lon="3.42713">
        <ele>211.3</ele>
        <time>2016-12-31T12:11:01Z</time>
      </trkpt>
      <trkpt lat="43.71401" lon="3.42724">
        <ele>211.5</ele>
        <time>2016-12-31T12:11:03Z</time>
      </trkpt>
      <trkpt lat="43.71399" lon="3.42736">
        <ele>211.5</ele>
        <time>2016-12-31T12:11:05Z</time>
      </trkpt>
      <trkpt lat="43.71397" lon="3.42746">
        <ele>211.6</ele>
        <time>2016-12-31T12:11:07Z</time>
      </trkpt>
      <trkpt lat="43.71395" lon="3.42757">
        <ele>211.5</ele>
        <time>2016-12-31T12:11:09Z</time>
      </trkpt>
      <trkpt lat="43.71393" lon="3.42767">
        <ele>211.5</ele>
        <time>2016-12-31T12:11:11Z</time>
      </trkpt>
      <trkpt lat="43.7139" lon="3.4278">
        <ele>211.6</ele>
        <time>2016-12-31T12:11:14Z</time>
      </trkpt>
      <trkpt lat="43.71388" lon="3.42793">
        <ele>211.5</ele>
        <time>2016-12-31T12:11:17Z</time>
      </trkpt>
      <trkpt lat="43.71385" lon="3.42805">
        <ele>211.5</ele>
        <time>2016-12-31T12:11:20Z</time>
      </trkpt>
      <trkpt lat="43.71383" lon="3.42816">
        <ele>211.5</ele>
        <time>2016-12-31T12:11:23Z</time>
      </trkpt>
      <trkpt lat="43.7138" lon="3.42826">
        <ele>211.6</ele>
        <time>2016-12-31T12:11:26Z</time>
      </trkpt>
      <trkpt lat="43.71378" lon="3.42836">
        <ele>211.8</ele>
        <time>2016-12-31T12:11:29Z</time>
      </trkpt>
      <trkpt lat="43.71377" lon="3.42847">
        <ele>212</ele>
        <time>2016-12-31T12:11:32Z</time>
      </trkpt>
      <trkpt lat="43.71378" lon="3.42858">
        <ele>212.2</ele>
        <time>2016-12-31T12:11:35Z</time>
      </trkpt>
      <trkpt lat="43.7138" lon="3.42869">
        <ele>212.4</ele>
        <time>2016-12-31T12:11:38Z</time>
      </trkpt>
      <trkpt lat="43.71382" lon="3.42878">
        <ele>212.7</ele>
        <time>2016-12-31T12:11:41Z</time>
      </trkpt>
      <trkpt lat="43.71385" lon="3.42888">
        <ele>212.9</ele>
        <time>2016-12-31T12:11:44Z</time>
      </trkpt>
      <trkpt lat="43.71389" lon="3.42897">
        <ele>213.1</ele>
        <time>2016-12-31T12:11:47Z</time>
      </trkpt>
      <trkpt lat="43.71393" lon="3.42907">
        <ele>213.4</ele>
        <time>2016-12-31T12:11:50Z</time>
      </trkpt>
      <trkpt lat="43.71397" lon="3.42916">
        <ele>213.6</ele>
        <time>2016-12-31T12:11:53Z</time>
      </trkpt>
      <trkpt lat="43.71403" lon="3.42927">
        <ele>214</ele>
        <time>2016-12-31T12:11:57Z</time>
      </trkpt>
      <trkpt lat="43.71407" lon="3.42939">
        <ele>214.4</ele>
        <time>2016-12-31T12:12:01Z</time>
      </trkpt>
      <trkpt lat="43.7141" lon="3.42948">
        <ele>214.7</ele>
        <time>2016-12-31T12:12:04Z</time>
      </trkpt>
      <trkpt lat="43.71414" lon="3.42957">
        <ele>215</ele>
        <time>2016-12-31T12:12:07Z</time>
      </trkpt>
      <trkpt lat="43.71416" lon="3.42968">
        <ele>215.3</ele>
        <time>2016-12-31T12:12:10Z</time>
      </trkpt>
      <trkpt lat="43.71418" lon="3.42978">
        <ele>215.5</ele>
        <time>2016-12-31T12:12:13Z</time>
      </trkpt>
      <trkpt lat="43.7142" lon="3.4299">
        <ele>215.8</ele>
        <time>2016-12-31T12:12:16Z</time>
      </trkpt>
      <trkpt lat="43.71422" lon="3.43001">
        <ele>216.1</ele>
        <time>2016-12-31T12:12:19Z</time>
      </trkpt>
      <trkpt lat="43.71423" lon="3.43012">
        <ele>216.4</ele>
        <time>2016-12-31T12:12:22Z</time>
      </trkpt>
      <trkpt lat="43.71424" lon="3.43023">
        <ele>216.6</ele>
        <time>2016-12-31T12:12:25Z</time>
      </trkpt>
      <trkpt lat="43.71425" lon="3.43034">
        <ele>216.8</ele>
        <time>2016-12-31T12:12:28Z</time>
      </trkpt>
      <trkpt lat="43.71424" lon="3.43046">
        <ele>217.1</ele>
        <time>2016-12-31T12:12:31Z</time>
      </trkpt>
      <trkpt lat="43.71423" lon="3.43057">
        <ele>217.4</ele>
        <time>2016-12-31T12:12:34Z</time>
      </trkpt>
      <trkpt lat="43.71421" lon="3.43067">
        <ele>217.7</ele>
        <time>2016-12-31T12:12:37Z</time>
      </trkpt>
      <trkpt lat="43.71418" lon="3.4308">
        <ele>218.3</ele>
        <time>2016-12-31T12:12:41Z</time>
      </trkpt>
      <trkpt lat="43.71416" lon="3.4309">
        <ele>218.7</ele>
        <time>2016-12-31T12:12:44Z</time>
      </trkpt>
      <trkpt lat="43.71414" lon="3.43101">
        <ele>219</ele>
        <time>2016-12-31T12:12:47Z</time>
      </trkpt>
      <trkpt lat="43.71412" lon="3.43112">
        <ele>219.4</ele>
        <time>2016-12-31T12:12:50Z</time>
      </trkpt>
      <trkpt lat="43.7141" lon="3.43123">
        <ele>219.8</ele>
        <time>2016-12-31T12:12:53Z</time>
      </trkpt>
      <trkpt lat="43.71408" lon="3.43134">
        <ele>220.1</ele>
        <time>2016-12-31T12:12:56Z</time>
      </trkpt>
      <trkpt lat="43.71405" lon="3.43145">
        <ele>220.5</ele>
        <time>2016-12-31T12:12:59Z</time>
      </trkpt>
      <trkpt lat="43.71402" lon="3.43156">
        <ele>220.8</ele>
        <time>2016-12-31T12:13:02Z</time>
      </trkpt>
      <trkpt lat="43.714" lon="3.43166">
        <ele>221.2</ele>
        <time>2016-12-31T12:13:05Z</time>
      </trkpt>
      <trkpt lat="43.71398" lon="3.43178">
        <ele>221.6</ele>
        <time>2016-12-31T12:13:08Z</time>
      </trkpt>
      <trkpt lat="43.71396" lon="3.43188">
        <ele>221.9</ele>
        <time>2016-12-31T12:13:11Z</time>
      </trkpt>
      <trkpt lat="43.71394" lon="3.43199">
        <ele>222.4</ele>
        <time>2016-12-31T12:13:14Z</time>
      </trkpt>
      <trkpt lat="43.71394" lon="3.43211">
        <ele>222.7</ele>
        <time>2016-12-31T12:13:17Z</time>
      </trkpt>
      <trkpt lat="43.71394" lon="3.43223">
        <ele>223.1</ele>
        <time>2016-12-31T12:13:20Z</time>
      </trkpt>
      <trkpt lat="43.71394" lon="3.43237">
        <ele>223.4</ele>
        <time>2016-12-31T12:13:23Z</time>
      </trkpt>
      <trkpt lat="43.71394" lon="3.43248">
        <ele>223.7</ele>
        <time>2016-12-31T12:13:26Z</time>
      </trkpt>
      <trkpt lat="43.71394" lon="3.4326">
        <ele>224.1</ele>
        <time>2016-12-31T12:13:29Z</time>
      </trkpt>
      <trkpt lat="43.71394" lon="3.43272">
        <ele>224.5</ele>
        <time>2016-12-31T12:13:32Z</time>
      </trkpt>
      <trkpt lat="43.71392" lon="3.43286">
        <ele>224.9</ele>
        <time>2016-12-31T12:13:35Z</time>
      </trkpt>
      <trkpt lat="43.71391" lon="3.43296">
        <ele>225.3</ele>
        <time>2016-12-31T12:13:38Z</time>
      </trkpt>
      <trkpt lat="43.71387" lon="3.43308">
        <ele>225.6</ele>
        <time>2016-12-31T12:13:41Z</time>
      </trkpt>
      <trkpt lat="43.71383" lon="3.43319">
        <ele>226</ele>
        <time>2016-12-31T12:13:44Z</time>
      </trkpt>
      <trkpt lat="43.71379" lon="3.4333">
        <ele>226.4</ele>
        <time>2016-12-31T12:13:47Z</time>
      </trkpt>
      <trkpt lat="43.71375" lon="3.4334">
        <ele>226.9</ele>
        <time>2016-12-31T12:13:50Z</time>
      </trkpt>
      <trkpt lat="43.7137" lon="3.43349">
        <ele>227.2</ele>
        <time>2016-12-31T12:13:53Z</time>
      </trkpt>
      <trkpt lat="43.71366" lon="3.43359">
        <ele>227.7</ele>
        <time>2016-12-31T12:13:56Z</time>
      </trkpt>
      <trkpt lat="43.71362" lon="3.43369">
        <ele>228.1</ele>
        <time>2016-12-31T12:13:59Z</time>
      </trkpt>
      <trkpt lat="43.71359" lon="3.43379">
        <ele>228.5</ele>
        <time>2016-12-31T12:14:02Z</time>
      </trkpt>
      <trkpt lat="43.71355" lon="3.43389">
        <ele>229</ele>
        <time>2016-12-31T12:14:05Z</time>
      </trkpt>
      <trkpt lat="43.71351" lon="3.43399">
        <ele>229.4</ele>
        <time>2016-12-31T12:14:08Z</time>
      </trkpt>
      <trkpt lat="43.71347" lon="3.43409">
        <ele>229.8</ele>
        <time>2016-12-31T12:14:11Z</time>
      </trkpt>
      <trkpt lat="43.71344" lon="3.43419">
        <ele>230.3</ele>
        <time>2016-12-31T12:14:14Z</time>
      </trkpt>
      <trkpt lat="43.7134" lon="3.43429">
        <ele>230.7</ele>
        <time>2016-12-31T12:14:17Z</time>
      </trkpt>
      <trkpt lat="43.71336" lon="3.43439">
        <ele>231.1</ele>
        <time>2016-12-31T12:14:20Z</time>
      </trkpt>
      <trkpt lat="43.71333" lon="3.43449">
        <ele>231.6</ele>
        <time>2016-12-31T12:14:23Z</time>
      </trkpt>
      <trkpt lat="43.7133" lon="3.43458">
        <ele>232.1</ele>
        <time>2016-12-31T12:14:26Z</time>
      </trkpt>
      <trkpt lat="43.71325" lon="3.43469">
        <ele>232.6</ele>
        <time>2016-12-31T12:14:30Z</time>
      </trkpt>
      <trkpt lat="43.7132" lon="3.43478">
        <ele>233</ele>
        <time>2016-12-31T12:14:33Z</time>
      </trkpt>
      <trkpt lat="43.71317" lon="3.43487">
        <ele>233.4</ele>
        <time>2016-12-31T12:14:36Z</time>
      </trkpt>
      <trkpt lat="43.71314" lon="3.43496">
        <ele>233.8</ele>
        <time>2016-12-31T12:14:39Z</time>
      </trkpt>
      <trkpt lat="43.71311" lon="3.43507">
        <ele>234.5</ele>
        <time>2016-12-31T12:14:43Z</time>
      </trkpt>
      <trkpt lat="43.71312" lon="3.43517">
        <ele>235</ele>
        <time>2016-12-31T12:14:46Z</time>
      </trkpt>
      <trkpt lat="43.71314" lon="3.43528">
        <ele>235.5</ele>
        <time>2016-12-31T12:14:49Z</time>
      </trkpt>
      <trkpt lat="43.71316" lon="3.43539">
        <ele>235.9</ele>
        <time>2016-12-31T12:14:52Z</time>
      </trkpt>
      <trkpt lat="43.71317" lon="3.43551">
        <ele>236.3</ele>
        <time>2016-12-31T12:14:55Z</time>
      </trkpt>
      <trkpt lat="43.71318" lon="3.43563">
        <ele>236.7</ele>
        <time>2016-12-31T12:14:58Z</time>
      </trkpt>
      <trkpt lat="43.71319" lon="3.43574">
        <ele>237.1</ele>
        <time>2016-12-31T12:15:01Z</time>
      </trkpt>
      <trkpt lat="43.7132" lon="3.43586">
        <ele>237.4</ele>
        <time>2016-12-31T12:15:04Z</time>
      </trkpt>
      <trkpt lat="43.71322" lon="3.436">
        <ele>238.6</ele>
        <time>2016-12-31T12:15:07Z</time>
      </trkpt>
      <trkpt lat="43.71324" lon="3.43612">
        <ele>239.7</ele>
        <time>2016-12-31T12:15:09Z</time>
      </trkpt>
      <trkpt lat="43.71326" lon="3.43624">
        <ele>240.5</ele>
        <time>2016-12-31T12:15:11Z</time>
      </trkpt>
      <trkpt lat="43.7133" lon="3.43633">
        <ele>241.2</ele>
        <time>2016-12-31T12:15:13Z</time>
      </trkpt>
      <trkpt lat="43.71332" lon="3.43647">
        <ele>241.3</ele>
        <time>2016-12-31T12:15:16Z</time>
      </trkpt>
      <trkpt lat="43.71335" lon="3.43659">
        <ele>241.4</ele>
        <time>2016-12-31T12:15:19Z</time>
      </trkpt>
      <trkpt lat="43.71336" lon="3.43669">
        <ele>241.5</ele>
        <time>2016-12-31T12:15:22Z</time>
      </trkpt>
      <trkpt lat="43.71336" lon="3.4368">
        <ele>241.9</ele>
        <time>2016-12-31T12:15:26Z</time>
      </trkpt>
      <trkpt lat="43.71338" lon="3.4369">
        <ele>242.4</ele>
        <time>2016-12-31T12:15:30Z</time>
      </trkpt>
      <trkpt lat="43.71343" lon="3.43697">
        <ele>242.7</ele>
        <time>2016-12-31T12:15:34Z</time>
      </trkpt>
      <trkpt lat="43.7135" lon="3.43704">
        <ele>243.1</ele>
        <time>2016-12-31T12:15:38Z</time>
      </trkpt>
      <trkpt lat="43.71356" lon="3.43713">
        <ele>243.6</ele>
        <time>2016-12-31T12:15:42Z</time>
      </trkpt>
      <trkpt lat="43.71363" lon="3.43721">
        <ele>244</ele>
        <time>2016-12-31T12:15:46Z</time>
      </trkpt>
      <trkpt lat="43.71369" lon="3.43728">
        <ele>244.3</ele>
        <time>2016-12-31T12:15:49Z</time>
      </trkpt>
      <trkpt lat="43.71376" lon="3.43733">
        <ele>245</ele>
        <time>2016-12-31T12:15:53Z</time>
      </trkpt>
      <trkpt lat="43.71382" lon="3.43737">
        <ele>245.7</ele>
        <time>2016-12-31T12:15:57Z</time>
      </trkpt>
      <trkpt lat="43.71389" lon="3.43743">
        <ele>246.3</ele>
        <time>2016-12-31T12:16:01Z</time>
      </trkpt>
      <trkpt lat="43.71396" lon="3.43748">
        <ele>246.8</ele>
        <time>2016-12-31T12:16:05Z</time>
      </trkpt>
      <trkpt lat="43.71403" lon="3.43754">
        <ele>247.4</ele>
        <time>2016-12-31T12:16:09Z</time>
      </trkpt>
      <trkpt lat="43.71412" lon="3.43759">
        <ele>248.1</ele>
        <time>2016-12-31T12:16:13Z</time>
      </trkpt>
      <trkpt lat="43.71419" lon="3.43764">
        <ele>248.8</ele>
        <time>2016-12-31T12:16:17Z</time>
      </trkpt>
      <trkpt lat="43.71426" lon="3.4377">
        <ele>249.3</ele>
        <time>2016-12-31T12:16:21Z</time>
      </trkpt>
      <trkpt lat="43.71432" lon="3.43776">
        <ele>249.8</ele>
        <time>2016-12-31T12:16:25Z</time>
      </trkpt>
      <trkpt lat="43.71439" lon="3.43782">
        <ele>250.2</ele>
        <time>2016-12-31T12:16:28Z</time>
      </trkpt>
      <trkpt lat="43.71447" lon="3.43789">
        <ele>250.7</ele>
        <time>2016-12-31T12:16:32Z</time>
      </trkpt>
      <trkpt lat="43.71455" lon="3.43795">
        <ele>251.1</ele>
        <time>2016-12-31T12:16:36Z</time>
      </trkpt>
      <trkpt lat="43.71461" lon="3.43798">
        <ele>251.6</ele>
        <time>2016-12-31T12:16:40Z</time>
      </trkpt>
      <trkpt lat="43.71469" lon="3.43802">
        <ele>252.1</ele>
        <time>2016-12-31T12:16:44Z</time>
      </trkpt>
      <trkpt lat="43.71477" lon="3.43806">
        <ele>252.6</ele>
        <time>2016-12-31T12:16:48Z</time>
      </trkpt>
      <trkpt lat="43.71486" lon="3.43811">
        <ele>253.3</ele>
        <time>2016-12-31T12:16:52Z</time>
      </trkpt>
      <trkpt lat="43.71493" lon="3.43814">
        <ele>253.9</ele>
        <time>2016-12-31T12:16:56Z</time>
      </trkpt>
      <trkpt lat="43.715" lon="3.43818">
        <ele>254.5</ele>
        <time>2016-12-31T12:17:00Z</time>
      </trkpt>
      <trkpt lat="43.71508" lon="3.43822">
        <ele>255.1</ele>
        <time>2016-12-31T12:17:04Z</time>
      </trkpt>
      <trkpt lat="43.71516" lon="3.43825">
        <ele>255.8</ele>
        <time>2016-12-31T12:17:08Z</time>
      </trkpt>
      <trkpt lat="43.71523" lon="3.4383">
        <ele>256.4</ele>
        <time>2016-12-31T12:17:12Z</time>
      </trkpt>
      <trkpt lat="43.7153" lon="3.43839">
        <ele>257</ele>
        <time>2016-12-31T12:17:16Z</time>
      </trkpt>
      <trkpt lat="43.71536" lon="3.43848">
        <ele>257.6</ele>
        <time>2016-12-31T12:17:20Z</time>
      </trkpt>
      <trkpt lat="43.71543" lon="3.43856">
        <ele>258.3</ele>
        <time>2016-12-31T12:17:24Z</time>
      </trkpt>
      <trkpt lat="43.71548" lon="3.43863">
        <ele>258.9</ele>
        <time>2016-12-31T12:17:28Z</time>
      </trkpt>
      <trkpt lat="43.71553" lon="3.43872">
        <ele>259.6</ele>
        <time>2016-12-31T12:17:32Z</time>
      </trkpt>
      <trkpt lat="43.7156" lon="3.4388">
        <ele>260.2</ele>
        <time>2016-12-31T12:17:36Z</time>
      </trkpt>
      <trkpt lat="43.71566" lon="3.43887">
        <ele>260.9</ele>
        <time>2016-12-31T12:17:40Z</time>
      </trkpt>
      <trkpt lat="43.71573" lon="3.43893">
        <ele>261.5</ele>
        <time>2016-12-31T12:17:44Z</time>
      </trkpt>
      <trkpt lat="43.71581" lon="3.43898">
        <ele>262.3</ele>
        <time>2016-12-31T12:17:49Z</time>
      </trkpt>
      <trkpt lat="43.71588" lon="3.43904">
        <ele>263</ele>
        <time>2016-12-31T12:17:53Z</time>
      </trkpt>
      <trkpt lat="43.71595" lon="3.43909">
        <ele>263.6</ele>
        <time>2016-12-31T12:17:57Z</time>
      </trkpt>
      <trkpt lat="43.71604" lon="3.4391">
        <ele>264.6</ele>
        <time>2016-12-31T12:18:02Z</time>
      </trkpt>
      <trkpt lat="43.71612" lon="3.43913">
        <ele>265.4</ele>
        <time>2016-12-31T12:18:06Z</time>
      </trkpt>
      <trkpt lat="43.71619" lon="3.43918">
        <ele>266.1</ele>
        <time>2016-12-31T12:18:10Z</time>
      </trkpt>
      <trkpt lat="43.71626" lon="3.43924">
        <ele>266.9</ele>
        <time>2016-12-31T12:18:14Z</time>
      </trkpt>
      <trkpt lat="43.71633" lon="3.43928">
        <ele>267.7</ele>
        <time>2016-12-31T12:18:18Z</time>
      </trkpt>
      <trkpt lat="43.71639" lon="3.43933">
        <ele>268.4</ele>
        <time>2016-12-31T12:18:22Z</time>
      </trkpt>
      <trkpt lat="43.71646" lon="3.43938">
        <ele>269.2</ele>
        <time>2016-12-31T12:18:26Z</time>
      </trkpt>
      <trkpt lat="43.71653" lon="3.43944">
        <ele>270.2</ele>
        <time>2016-12-31T12:18:30Z</time>
      </trkpt>
      <trkpt lat="43.71661" lon="3.43952">
        <ele>271.2</ele>
        <time>2016-12-31T12:18:35Z</time>
      </trkpt>
      <trkpt lat="43.71667" lon="3.43959">
        <ele>272</ele>
        <time>2016-12-31T12:18:40Z</time>
      </trkpt>
      <trkpt lat="43.71674" lon="3.43965">
        <ele>272.6</ele>
        <time>2016-12-31T12:18:44Z</time>
      </trkpt>
      <trkpt lat="43.71681" lon="3.43973">
        <ele>273.2</ele>
        <time>2016-12-31T12:18:48Z</time>
      </trkpt>
      <trkpt lat="43.71687" lon="3.43979">
        <ele>273.8</ele>
        <time>2016-12-31T12:18:52Z</time>
      </trkpt>
      <trkpt lat="43.71695" lon="3.43985">
        <ele>274.4</ele>
        <time>2016-12-31T12:18:56Z</time>
      </trkpt>
      <trkpt lat="43.71702" lon="3.4399">
        <ele>274.9</ele>
        <time>2016-12-31T12:19:00Z</time>
      </trkpt>
      <trkpt lat="43.71709" lon="3.43995">
        <ele>275.5</ele>
        <time>2016-12-31T12:19:04Z</time>
      </trkpt>
      <trkpt lat="43.71716" lon="3.44001">
        <ele>276.2</ele>
        <time>2016-12-31T12:19:08Z</time>
      </trkpt>
      <trkpt lat="43.71723" lon="3.44007">
        <ele>277</ele>
        <time>2016-12-31T12:19:13Z</time>
      </trkpt>
      <trkpt lat="43.71729" lon="3.44016">
        <ele>277.6</ele>
        <time>2016-12-31T12:19:17Z</time>
      </trkpt>
      <trkpt lat="43.71736" lon="3.44025">
        <ele>278.5</ele>
        <time>2016-12-31T12:19:22Z</time>
      </trkpt>
      <trkpt lat="43.71741" lon="3.44033">
        <ele>279.3</ele>
        <time>2016-12-31T12:19:26Z</time>
      </trkpt>
      <trkpt lat="43.71747" lon="3.44039">
        <ele>280</ele>
        <time>2016-12-31T12:19:30Z</time>
      </trkpt>
      <trkpt lat="43.71754" lon="3.44046">
        <ele>280.6</ele>
        <time>2016-12-31T12:19:34Z</time>
      </trkpt>
      <trkpt lat="43.7176" lon="3.44052">
        <ele>281.2</ele>
        <time>2016-12-31T12:19:38Z</time>
      </trkpt>
      <trkpt lat="43.71768" lon="3.44056">
        <ele>281.9</ele>
        <time>2016-12-31T12:19:42Z</time>
      </trkpt>
      <trkpt lat="43.71776" lon="3.44058">
        <ele>282.6</ele>
        <time>2016-12-31T12:19:46Z</time>
      </trkpt>
      <trkpt lat="43.71784" lon="3.44059">
        <ele>283.5</ele>
        <time>2016-12-31T12:19:50Z</time>
      </trkpt>
      <trkpt lat="43.71791" lon="3.44063">
        <ele>284.2</ele>
        <time>2016-12-31T12:19:55Z</time>
      </trkpt>
      <trkpt lat="43.71788" lon="3.44074">
        <ele>285</ele>
        <time>2016-12-31T12:20:00Z</time>
      </trkpt>
      <trkpt lat="43.71781" lon="3.44079">
        <ele>285.8</ele>
        <time>2016-12-31T12:20:04Z</time>
      </trkpt>
      <trkpt lat="43.71773" lon="3.4408">
        <ele>286.7</ele>
        <time>2016-12-31T12:20:08Z</time>
      </trkpt>
      <trkpt lat="43.71764" lon="3.4408">
        <ele>287.8</ele>
        <time>2016-12-31T12:20:13Z</time>
      </trkpt>
      <trkpt lat="43.71757" lon="3.44081">
        <ele>288.7</ele>
        <time>2016-12-31T12:20:17Z</time>
      </trkpt>
      <trkpt lat="43.71749" lon="3.44087">
        <ele>289.5</ele>
        <time>2016-12-31T12:20:22Z</time>
      </trkpt>
      <trkpt lat="43.71741" lon="3.44092">
        <ele>290.3</ele>
        <time>2016-12-31T12:20:26Z</time>
      </trkpt>
      <trkpt lat="43.71733" lon="3.44096">
        <ele>290.9</ele>
        <time>2016-12-31T12:20:30Z</time>
      </trkpt>
      <trkpt lat="43.71725" lon="3.44101">
        <ele>291.6</ele>
        <time>2016-12-31T12:20:34Z</time>
      </trkpt>
      <trkpt lat="43.71716" lon="3.44104">
        <ele>292.4</ele>
        <time>2016-12-31T12:20:38Z</time>
      </trkpt>
      <trkpt lat="43.71707" lon="3.44106">
        <ele>293</ele>
        <time>2016-12-31T12:20:42Z</time>
      </trkpt>
      <trkpt lat="43.71698" lon="3.4411">
        <ele>293.8</ele>
        <time>2016-12-31T12:20:46Z</time>
      </trkpt>
      <trkpt lat="43.7169" lon="3.44115">
        <ele>294.5</ele>
        <time>2016-12-31T12:20:50Z</time>
      </trkpt>
      <trkpt lat="43.71681" lon="3.44121">
        <ele>295.1</ele>
        <time>2016-12-31T12:20:54Z</time>
      </trkpt>
      <trkpt lat="43.71674" lon="3.44126">
        <ele>295.8</ele>
        <time>2016-12-31T12:20:58Z</time>
      </trkpt>
      <trkpt lat="43.71667" lon="3.4413">
        <ele>296.3</ele>
        <time>2016-12-31T12:21:01Z</time>
      </trkpt>
      <trkpt lat="43.71659" lon="3.44133">
        <ele>297</ele>
        <time>2016-12-31T12:21:05Z</time>
      </trkpt>
      <trkpt lat="43.71652" lon="3.44136">
        <ele>297.6</ele>
        <time>2016-12-31T12:21:09Z</time>
      </trkpt>
      <trkpt lat="43.71648" lon="3.44144">
        <ele>298.2</ele>
        <time>2016-12-31T12:21:13Z</time>
      </trkpt>
      <trkpt lat="43.71654" lon="3.4415">
        <ele>298.6</ele>
        <time>2016-12-31T12:21:16Z</time>
      </trkpt>
      <trkpt lat="43.71663" lon="3.44149">
        <ele>299.3</ele>
        <time>2016-12-31T12:21:20Z</time>
      </trkpt>
      <trkpt lat="43.71671" lon="3.44149">
        <ele>299.9</ele>
        <time>2016-12-31T12:21:24Z</time>
      </trkpt>
      <trkpt lat="43.71679" lon="3.44149">
        <ele>300.4</ele>
        <time>2016-12-31T12:21:28Z</time>
      </trkpt>
      <trkpt lat="43.71688" lon="3.44148">
        <ele>301.2</ele>
        <time>2016-12-31T12:21:33Z</time>
      </trkpt>
      <trkpt lat="43.71696" lon="3.44146">
        <ele>301.8</ele>
        <time>2016-12-31T12:21:37Z</time>
      </trkpt>
      <trkpt lat="43.71705" lon="3.44146">
        <ele>302.4</ele>
        <time>2016-12-31T12:21:41Z</time>
      </trkpt>
      <trkpt lat="43.71714" lon="3.44146">
        <ele>303</ele>
        <time>2016-12-31T12:21:45Z</time>
      </trkpt>
      <trkpt lat="43.71723" lon="3.44146">
        <ele>303.5</ele>
        <time>2016-12-31T12:21:48Z</time>
      </trkpt>
      <trkpt lat="43.71731" lon="3.44147">
        <ele>304.3</ele>
        <time>2016-12-31T12:21:53Z</time>
      </trkpt>
      <trkpt lat="43.71739" lon="3.44147">
        <ele>305</ele>
        <time>2016-12-31T12:21:57Z</time>
      </trkpt>
      <trkpt lat="43.71748" lon="3.44148">
        <ele>305.6</ele>
        <time>2016-12-31T12:22:01Z</time>
      </trkpt>
      <trkpt lat="43.71756" lon="3.44149">
        <ele>306.3</ele>
        <time>2016-12-31T12:22:05Z</time>
      </trkpt>
      <trkpt lat="43.71764" lon="3.44152">
        <ele>306.9</ele>
        <time>2016-12-31T12:22:09Z</time>
      </trkpt>
      <trkpt lat="43.71773" lon="3.44156">
        <ele>307.4</ele>
        <time>2016-12-31T12:22:13Z</time>
      </trkpt>
      <trkpt lat="43.7178" lon="3.44161">
        <ele>307.7</ele>
        <time>2016-12-31T12:22:16Z</time>
      </trkpt>
      <trkpt lat="43.71786" lon="3.44168">
        <ele>308.2</ele>
        <time>2016-12-31T12:22:20Z</time>
      </trkpt>
      <trkpt lat="43.71792" lon="3.44179">
        <ele>308.7</ele>
        <time>2016-12-31T12:22:24Z</time>
      </trkpt>
      <trkpt lat="43.71795" lon="3.44189">
        <ele>309.1</ele>
        <time>2016-12-31T12:22:27Z</time>
      </trkpt>
      <trkpt lat="43.71798" lon="3.44199">
        <ele>309.8</ele>
        <time>2016-12-31T12:22:31Z</time>
      </trkpt>
      <trkpt lat="43.71802" lon="3.4421">
        <ele>310.4</ele>
        <time>2016-12-31T12:22:35Z</time>
      </trkpt>
      <trkpt lat="43.71811" lon="3.44212">
        <ele>311.4</ele>
        <time>2016-12-31T12:22:40Z</time>
      </trkpt>
      <trkpt lat="43.71817" lon="3.44206">
        <ele>312.2</ele>
        <time>2016-12-31T12:22:44Z</time>
      </trkpt>
      <trkpt lat="43.71822" lon="3.44196">
        <ele>313</ele>
        <time>2016-12-31T12:22:47Z</time>
      </trkpt>
      <trkpt lat="43.71826" lon="3.44186">
        <ele>313.6</ele>
        <time>2016-12-31T12:22:51Z</time>
      </trkpt>
      <trkpt lat="43.71832" lon="3.44176">
        <ele>314.3</ele>
        <time>2016-12-31T12:22:55Z</time>
      </trkpt>
      <trkpt lat="43.71837" lon="3.44169">
        <ele>315</ele>
        <time>2016-12-31T12:22:59Z</time>
      </trkpt>
      <trkpt lat="43.71845" lon="3.44163">
        <ele>315.6</ele>
        <time>2016-12-31T12:23:03Z</time>
      </trkpt>
      <trkpt lat="43.71852" lon="3.44159">
        <ele>316.3</ele>
        <time>2016-12-31T12:23:07Z</time>
      </trkpt>
      <trkpt lat="43.7186" lon="3.44155">
        <ele>317</ele>
        <time>2016-12-31T12:23:11Z</time>
      </trkpt>
      <trkpt lat="43.71868" lon="3.44154">
        <ele>317.6</ele>
        <time>2016-12-31T12:23:15Z</time>
      </trkpt>
      <trkpt lat="43.71876" lon="3.44152">
        <ele>318</ele>
        <time>2016-12-31T12:23:18Z</time>
      </trkpt>
      <trkpt lat="43.71883" lon="3.44149">
        <ele>318.5</ele>
        <time>2016-12-31T12:23:22Z</time>
      </trkpt>
      <trkpt lat="43.71892" lon="3.44146">
        <ele>319</ele>
        <time>2016-12-31T12:23:26Z</time>
      </trkpt>
      <trkpt lat="43.719" lon="3.44144">
        <ele>319.8</ele>
        <time>2016-12-31T12:23:30Z</time>
      </trkpt>
      <trkpt lat="43.71908" lon="3.44147">
        <ele>320.6</ele>
        <time>2016-12-31T12:23:35Z</time>
      </trkpt>
      <trkpt lat="43.71904" lon="3.44155">
        <ele>321.4</ele>
        <time>2016-12-31T12:23:40Z</time>
      </trkpt>
      <trkpt lat="43.71897" lon="3.44158">
        <ele>322</ele>
        <time>2016-12-31T12:23:44Z</time>
      </trkpt>
      <trkpt lat="43.7189" lon="3.44161">
        <ele>322.8</ele>
        <time>2016-12-31T12:23:48Z</time>
      </trkpt>
      <trkpt lat="43.71883" lon="3.44167">
        <ele>323.4</ele>
        <time>2016-12-31T12:23:52Z</time>
      </trkpt>
      <trkpt lat="43.71876" lon="3.44173">
        <ele>324</ele>
        <time>2016-12-31T12:23:56Z</time>
      </trkpt>
      <trkpt lat="43.7187" lon="3.44179">
        <ele>324.7</ele>
        <time>2016-12-31T12:24:00Z</time>
      </trkpt>
      <trkpt lat="43.71863" lon="3.44186">
        <ele>325.3</ele>
        <time>2016-12-31T12:24:04Z</time>
      </trkpt>
      <trkpt lat="43.71857" lon="3.44193">
        <ele>326.1</ele>
        <time>2016-12-31T12:24:08Z</time>
      </trkpt>
      <trkpt lat="43.71851" lon="3.44203">
        <ele>327</ele>
        <time>2016-12-31T12:24:12Z</time>
      </trkpt>
      <trkpt lat="43.71846" lon="3.44214">
        <ele>327.9</ele>
        <time>2016-12-31T12:24:16Z</time>
      </trkpt>
      <trkpt lat="43.71842" lon="3.44225">
        <ele>328.8</ele>
        <time>2016-12-31T12:24:20Z</time>
      </trkpt>
      <trkpt lat="43.71837" lon="3.44236">
        <ele>329.6</ele>
        <time>2016-12-31T12:24:24Z</time>
      </trkpt>
      <trkpt lat="43.71833" lon="3.44244">
        <ele>330.2</ele>
        <time>2016-12-31T12:24:27Z</time>
      </trkpt>
      <trkpt lat="43.71828" lon="3.44252">
        <ele>330.8</ele>
        <time>2016-12-31T12:24:31Z</time>
      </trkpt>
      <trkpt lat="43.71822" lon="3.44261">
        <ele>331.3</ele>
        <time>2016-12-31T12:24:35Z</time>
      </trkpt>
      <trkpt lat="43.71816" lon="3.44268">
        <ele>332</ele>
        <time>2016-12-31T12:24:39Z</time>
      </trkpt>
      <trkpt lat="43.71809" lon="3.4427">
        <ele>332.5</ele>
        <time>2016-12-31T12:24:43Z</time>
      </trkpt>
      <trkpt lat="43.71801" lon="3.44271">
        <ele>332.9</ele>
        <time>2016-12-31T12:24:47Z</time>
      </trkpt>
      <trkpt lat="43.71792" lon="3.44271">
        <ele>333.5</ele>
        <time>2016-12-31T12:24:51Z</time>
      </trkpt>
      <trkpt lat="43.71783" lon="3.44271">
        <ele>333.9</ele>
        <time>2016-12-31T12:24:55Z</time>
      </trkpt>
      <trkpt lat="43.71775" lon="3.4427">
        <ele>334.2</ele>
        <time>2016-12-31T12:24:59Z</time>
      </trkpt>
      <trkpt lat="43.71766" lon="3.44269">
        <ele>334.6</ele>
        <time>2016-12-31T12:25:03Z</time>
      </trkpt>
      <trkpt lat="43.71757" lon="3.44271">
        <ele>334.9</ele>
        <time>2016-12-31T12:25:07Z</time>
      </trkpt>
      <trkpt lat="43.7175" lon="3.44276">
        <ele>335.2</ele>
        <time>2016-12-31T12:25:10Z</time>
      </trkpt>
      <trkpt lat="43.71743" lon="3.44286">
        <ele>335.6</ele>
        <time>2016-12-31T12:25:14Z</time>
      </trkpt>
      <trkpt lat="43.7174" lon="3.44294">
        <ele>335.9</ele>
        <time>2016-12-31T12:25:17Z</time>
      </trkpt>
      <trkpt lat="43.71735" lon="3.44305">
        <ele>336.5</ele>
        <time>2016-12-31T12:25:21Z</time>
      </trkpt>
      <trkpt lat="43.71731" lon="3.44314">
        <ele>337</ele>
        <time>2016-12-31T12:25:25Z</time>
      </trkpt>
      <trkpt lat="43.71726" lon="3.44325">
        <ele>337.4</ele>
        <time>2016-12-31T12:25:29Z</time>
      </trkpt>
      <trkpt lat="43.71721" lon="3.44333">
        <ele>337.9</ele>
        <time>2016-12-31T12:25:33Z</time>
      </trkpt>
      <trkpt lat="43.71716" lon="3.44343">
        <ele>338.5</ele>
        <time>2016-12-31T12:25:37Z</time>
      </trkpt>
      <trkpt lat="43.71712" lon="3.44354">
        <ele>339.1</ele>
        <time>2016-12-31T12:25:41Z</time>
      </trkpt>
      <trkpt lat="43.7171" lon="3.44366">
        <ele>339.8</ele>
        <time>2016-12-31T12:25:45Z</time>
      </trkpt>
      <trkpt lat="43.71707" lon="3.44376">
        <ele>340.6</ele>
        <time>2016-12-31T12:25:49Z</time>
      </trkpt>
      <trkpt lat="43.71703" lon="3.44386">
        <ele>341.4</ele>
        <time>2016-12-31T12:25:53Z</time>
      </trkpt>
      <trkpt lat="43.71698" lon="3.44395">
        <ele>342.1</ele>
        <time>2016-12-31T12:25:58Z</time>
      </trkpt>
      <trkpt lat="43.71693" lon="3.44404">
        <ele>342.7</ele>
        <time>2016-12-31T12:26:02Z</time>
      </trkpt>
      <trkpt lat="43.71687" lon="3.44413">
        <ele>343.3</ele>
        <time>2016-12-31T12:26:06Z</time>
      </trkpt>
      <trkpt lat="43.71689" lon="3.44424">
        <ele>343.9</ele>
        <time>2016-12-31T12:26:10Z</time>
      </trkpt>
      <trkpt lat="43.71697" lon="3.44424">
        <ele>344.3</ele>
        <time>2016-12-31T12:26:14Z</time>
      </trkpt>
      <trkpt lat="43.71704" lon="3.4442">
        <ele>344.6</ele>
        <time>2016-12-31T12:26:17Z</time>
      </trkpt>
      <trkpt lat="43.71711" lon="3.44413">
        <ele>345.1</ele>
        <time>2016-12-31T12:26:21Z</time>
      </trkpt>
      <trkpt lat="43.71718" lon="3.44406">
        <ele>345.9</ele>
        <time>2016-12-31T12:26:26Z</time>
      </trkpt>
      <trkpt lat="43.71725" lon="3.444">
        <ele>346.5</ele>
        <time>2016-12-31T12:26:30Z</time>
      </trkpt>
      <trkpt lat="43.71733" lon="3.44393">
        <ele>347.1</ele>
        <time>2016-12-31T12:26:34Z</time>
      </trkpt>
      <trkpt lat="43.7174" lon="3.44386">
        <ele>347.6</ele>
        <time>2016-12-31T12:26:38Z</time>
      </trkpt>
      <trkpt lat="43.71749" lon="3.44383">
        <ele>348</ele>
        <time>2016-12-31T12:26:42Z</time>
      </trkpt>
      <trkpt lat="43.71757" lon="3.44381">
        <ele>348.4</ele>
        <time>2016-12-31T12:26:45Z</time>
      </trkpt>
      <trkpt lat="43.71764" lon="3.44378">
        <ele>348.8</ele>
        <time>2016-12-31T12:26:49Z</time>
      </trkpt>
      <trkpt lat="43.71771" lon="3.44373">
        <ele>349.5</ele>
        <time>2016-12-31T12:26:56Z</time>
      </trkpt>
      <trkpt lat="43.71771" lon="3.44373">
        <ele>350.2</ele>
        <time>2016-12-31T12:27:03Z</time>
      </trkpt>
      <trkpt lat="43.71773" lon="3.44375">
        <ele>351.4</ele>
        <time>2016-12-31T12:27:02Z</time>
      </trkpt>
      <trkpt lat="43.71773" lon="3.44354">
        <ele>354.5</ele>
        <time>2016-12-31T12:30:08Z</time>
      </trkpt>
      <trkpt lat="43.71773" lon="3.44343">
        <ele>354.1</ele>
        <time>2016-12-31T12:30:10Z</time>
      </trkpt>
      <trkpt lat="43.71768" lon="3.44329">
        <ele>352.7</ele>
        <time>2016-12-31T12:30:12Z</time>
      </trkpt>
      <trkpt lat="43.71766" lon="3.44318">
        <ele>352.4</ele>
        <time>2016-12-31T12:30:14Z</time>
      </trkpt>
      <trkpt lat="43.71763" lon="3.44303">
        <ele>352</ele>
        <time>2016-12-31T12:30:17Z</time>
      </trkpt>
      <trkpt lat="43.7176" lon="3.4429">
        <ele>351</ele>
        <time>2016-12-31T12:30:19Z</time>
      </trkpt>
      <trkpt lat="43.71757" lon="3.44279">
        <ele>350.8</ele>
        <time>2016-12-31T12:30:22Z</time>
      </trkpt>
      <trkpt lat="43.71754" lon="3.44269">
        <ele>350.4</ele>
        <time>2016-12-31T12:30:25Z</time>
      </trkpt>
      <trkpt lat="43.71753" lon="3.44256">
        <ele>348.1</ele>
        <time>2016-12-31T12:30:28Z</time>
      </trkpt>
      <trkpt lat="43.7175" lon="3.44244">
        <ele>345.3</ele>
        <time>2016-12-31T12:30:30Z</time>
      </trkpt>
      <trkpt lat="43.71745" lon="3.44232">
        <ele>343</ele>
        <time>2016-12-31T12:30:32Z</time>
      </trkpt>
      <trkpt lat="43.71736" lon="3.44226">
        <ele>342.6</ele>
        <time>2016-12-31T12:30:35Z</time>
      </trkpt>
      <trkpt lat="43.71733" lon="3.44215">
        <ele>342</ele>
        <time>2016-12-31T12:30:39Z</time>
      </trkpt>
      <trkpt lat="43.71731" lon="3.44204">
        <ele>340.5</ele>
        <time>2016-12-31T12:30:41Z</time>
      </trkpt>
      <trkpt lat="43.71729" lon="3.44189">
        <ele>339.9</ele>
        <time>2016-12-31T12:30:44Z</time>
      </trkpt>
      <trkpt lat="43.71726" lon="3.44177">
        <ele>336.9</ele>
        <time>2016-12-31T12:30:47Z</time>
      </trkpt>
      <trkpt lat="43.71723" lon="3.44165">
        <ele>336.2</ele>
        <time>2016-12-31T12:30:50Z</time>
      </trkpt>
      <trkpt lat="43.71722" lon="3.44152">
        <ele>332.3</ele>
        <time>2016-12-31T12:30:54Z</time>
      </trkpt>
      <trkpt lat="43.71722" lon="3.44139">
        <ele>331.3</ele>
        <time>2016-12-31T12:30:58Z</time>
      </trkpt>
      <trkpt lat="43.71721" lon="3.44126">
        <ele>327.2</ele>
        <time>2016-12-31T12:31:00Z</time>
      </trkpt>
      <trkpt lat="43.7172" lon="3.44112">
        <ele>324.5</ele>
        <time>2016-12-31T12:31:03Z</time>
      </trkpt>
      <trkpt lat="43.7172" lon="3.44101">
        <ele>318.4</ele>
        <time>2016-12-31T12:31:06Z</time>
      </trkpt>
      <trkpt lat="43.71722" lon="3.44088">
        <ele>317.4</ele>
        <time>2016-12-31T12:31:09Z</time>
      </trkpt>
      <trkpt lat="43.71721" lon="3.44088">
        <ele>314.8</ele>
        <time>2016-12-31T12:31:16Z</time>
      </trkpt>
      <trkpt lat="43.71719" lon="3.44088">
        <ele>311.3</ele>
        <time>2016-12-31T12:31:37Z</time>
      </trkpt>
      <trkpt lat="43.71726" lon="3.44084">
        <ele>309.8</ele>
        <time>2016-12-31T12:31:42Z</time>
      </trkpt>
      <trkpt lat="43.71733" lon="3.44074">
        <ele>309</ele>
        <time>2016-12-31T12:31:45Z</time>
      </trkpt>
      <trkpt lat="43.71738" lon="3.44066">
        <ele>308.5</ele>
        <time>2016-12-31T12:31:47Z</time>
      </trkpt>
      <trkpt lat="43.71742" lon="3.44054">
        <ele>307.7</ele>
        <time>2016-12-31T12:31:50Z</time>
      </trkpt>
      <trkpt lat="43.71742" lon="3.44042">
        <ele>307.4</ele>
        <time>2016-12-31T12:31:52Z</time>
      </trkpt>
      <trkpt lat="43.7174" lon="3.44031">
        <ele>306.7</ele>
        <time>2016-12-31T12:31:55Z</time>
      </trkpt>
      <trkpt lat="43.71747" lon="3.44032">
        <ele>304.6</ele>
        <time>2016-12-31T12:32:02Z</time>
      </trkpt>
      <trkpt lat="43.71753" lon="3.44034">
        <ele>297.4</ele>
        <time>2016-12-31T12:32:43Z</time>
      </trkpt>
      <trkpt lat="43.71764" lon="3.44032">
        <ele>296.8</ele>
        <time>2016-12-31T12:32:47Z</time>
      </trkpt>
      <trkpt lat="43.71773" lon="3.4403">
        <ele>296.2</ele>
        <time>2016-12-31T12:32:50Z</time>
      </trkpt>
      <trkpt lat="43.71778" lon="3.44019">
        <ele>295.6</ele>
        <time>2016-12-31T12:32:55Z</time>
      </trkpt>
      <trkpt lat="43.71774" lon="3.44009">
        <ele>295.5</ele>
        <time>2016-12-31T12:33:00Z</time>
      </trkpt>
      <trkpt lat="43.71772" lon="3.43997">
        <ele>295.1</ele>
        <time>2016-12-31T12:33:06Z</time>
      </trkpt>
      <trkpt lat="43.71771" lon="3.43985">
        <ele>295</ele>
        <time>2016-12-31T12:33:10Z</time>
      </trkpt>
      <trkpt lat="43.71774" lon="3.43973">
        <ele>295</ele>
        <time>2016-12-31T12:33:13Z</time>
      </trkpt>
      <trkpt lat="43.71778" lon="3.43964">
        <ele>294.8</ele>
        <time>2016-12-31T12:33:16Z</time>
      </trkpt>
      <trkpt lat="43.71786" lon="3.4396">
        <ele>294.3</ele>
        <time>2016-12-31T12:33:20Z</time>
      </trkpt>
      <trkpt lat="43.71792" lon="3.43958">
        <ele>293.6</ele>
        <time>2016-12-31T12:33:27Z</time>
      </trkpt>
      <trkpt lat="43.71786" lon="3.43947">
        <ele>292</ele>
        <time>2016-12-31T12:33:32Z</time>
      </trkpt>
      <trkpt lat="43.71779" lon="3.43939">
        <ele>291.8</ele>
        <time>2016-12-31T12:33:34Z</time>
      </trkpt>
      <trkpt lat="43.71771" lon="3.43935">
        <ele>291.6</ele>
        <time>2016-12-31T12:33:37Z</time>
      </trkpt>
      <trkpt lat="43.71764" lon="3.43931">
        <ele>290.7</ele>
        <time>2016-12-31T12:33:43Z</time>
      </trkpt>
      <trkpt lat="43.71758" lon="3.4392">
        <ele>290.2</ele>
        <time>2016-12-31T12:33:46Z</time>
      </trkpt>
      <trkpt lat="43.71754" lon="3.43909">
        <ele>289.8</ele>
        <time>2016-12-31T12:33:49Z</time>
      </trkpt>
      <trkpt lat="43.7175" lon="3.43898">
        <ele>289.5</ele>
        <time>2016-12-31T12:33:53Z</time>
      </trkpt>
      <trkpt lat="43.7175" lon="3.43887">
        <ele>289.4</ele>
        <time>2016-12-31T12:33:56Z</time>
      </trkpt>
      <trkpt lat="43.71748" lon="3.43873">
        <ele>289.4</ele>
        <time>2016-12-31T12:33:59Z</time>
      </trkpt>
      <trkpt lat="43.7175" lon="3.43861">
        <ele>288.8</ele>
        <time>2016-12-31T12:34:01Z</time>
      </trkpt>
      <trkpt lat="43.71752" lon="3.43848">
        <ele>288.2</ele>
        <time>2016-12-31T12:34:03Z</time>
      </trkpt>
      <trkpt lat="43.71756" lon="3.43834">
        <ele>286.4</ele>
        <time>2016-12-31T12:34:05Z</time>
      </trkpt>
      <trkpt lat="43.71756" lon="3.43818">
        <ele>284</ele>
        <time>2016-12-31T12:34:07Z</time>
      </trkpt>
      <trkpt lat="43.71754" lon="3.43804">
        <ele>283</ele>
        <time>2016-12-31T12:34:09Z</time>
      </trkpt>
      <trkpt lat="43.71759" lon="3.43794">
        <ele>281.9</ele>
        <time>2016-12-31T12:34:12Z</time>
      </trkpt>
      <trkpt lat="43.7176" lon="3.43779">
        <ele>280.3</ele>
        <time>2016-12-31T12:34:14Z</time>
      </trkpt>
      <trkpt lat="43.7176" lon="3.4376">
        <ele>278.9</ele>
        <time>2016-12-31T12:34:16Z</time>
      </trkpt>
      <trkpt lat="43.71759" lon="3.43745">
        <ele>278.4</ele>
        <time>2016-12-31T12:34:18Z</time>
      </trkpt>
      <trkpt lat="43.71764" lon="3.43738">
        <ele>277.9</ele>
        <time>2016-12-31T12:34:22Z</time>
      </trkpt>
      <trkpt lat="43.71771" lon="3.43745">
        <ele>277.4</ele>
        <time>2016-12-31T12:34:26Z</time>
      </trkpt>
      <trkpt lat="43.71779" lon="3.43749">
        <ele>276.7</ele>
        <time>2016-12-31T12:34:31Z</time>
      </trkpt>
      <trkpt lat="43.71786" lon="3.43749">
        <ele>276</ele>
        <time>2016-12-31T12:34:36Z</time>
      </trkpt>
      <trkpt lat="43.71793" lon="3.43752">
        <ele>275.5</ele>
        <time>2016-12-31T12:34:41Z</time>
      </trkpt>
      <trkpt lat="43.71801" lon="3.43755">
        <ele>275.2</ele>
        <time>2016-12-31T12:34:47Z</time>
      </trkpt>
      <trkpt lat="43.71809" lon="3.43757">
        <ele>275</ele>
        <time>2016-12-31T12:34:52Z</time>
      </trkpt>
      <trkpt lat="43.71816" lon="3.43758">
        <ele>274.8</ele>
        <time>2016-12-31T12:34:56Z</time>
      </trkpt>
      <trkpt lat="43.71824" lon="3.4376">
        <ele>274.8</ele>
        <time>2016-12-31T12:35:01Z</time>
      </trkpt>
      <trkpt lat="43.71832" lon="3.43762">
        <ele>274.9</ele>
        <time>2016-12-31T12:35:06Z</time>
      </trkpt>
      <trkpt lat="43.71849" lon="3.43764">
        <ele>276.4</ele>
        <time>2016-12-31T12:35:37Z</time>
      </trkpt>
      <trkpt lat="43.71857" lon="3.43768">
        <ele>276.5</ele>
        <time>2016-12-31T12:35:40Z</time>
      </trkpt>
      <trkpt lat="43.71864" lon="3.43776">
        <ele>276.8</ele>
        <time>2016-12-31T12:35:45Z</time>
      </trkpt>
      <trkpt lat="43.71869" lon="3.43783">
        <ele>277.1</ele>
        <time>2016-12-31T12:35:49Z</time>
      </trkpt>
      <trkpt lat="43.71877" lon="3.43785">
        <ele>277.1</ele>
        <time>2016-12-31T12:35:54Z</time>
      </trkpt>
      <trkpt lat="43.71885" lon="3.43782">
        <ele>277.3</ele>
        <time>2016-12-31T12:35:59Z</time>
      </trkpt>
      <trkpt lat="43.71892" lon="3.43776">
        <ele>277.5</ele>
        <time>2016-12-31T12:36:03Z</time>
      </trkpt>
      <trkpt lat="43.71898" lon="3.43771">
        <ele>277.7</ele>
        <time>2016-12-31T12:36:07Z</time>
      </trkpt>
      <trkpt lat="43.71906" lon="3.43766">
        <ele>278</ele>
        <time>2016-12-31T12:36:11Z</time>
      </trkpt>
      <trkpt lat="43.71913" lon="3.43761">
        <ele>278.3</ele>
        <time>2016-12-31T12:36:15Z</time>
      </trkpt>
      <trkpt lat="43.71921" lon="3.4376">
        <ele>278.6</ele>
        <time>2016-12-31T12:36:19Z</time>
      </trkpt>
      <trkpt lat="43.71929" lon="3.43761">
        <ele>278.9</ele>
        <time>2016-12-31T12:36:23Z</time>
      </trkpt>
      <trkpt lat="43.71937" lon="3.43767">
        <ele>279.3</ele>
        <time>2016-12-31T12:36:28Z</time>
      </trkpt>
      <trkpt lat="43.71945" lon="3.43774">
        <ele>280.1</ele>
        <time>2016-12-31T12:36:31Z</time>
      </trkpt>
      <trkpt lat="43.71952" lon="3.43783">
        <ele>281.4</ele>
        <time>2016-12-31T12:36:33Z</time>
      </trkpt>
      <trkpt lat="43.71958" lon="3.43791">
        <ele>281.7</ele>
        <time>2016-12-31T12:36:35Z</time>
      </trkpt>
      <trkpt lat="43.71965" lon="3.43802">
        <ele>282</ele>
        <time>2016-12-31T12:36:38Z</time>
      </trkpt>
      <trkpt lat="43.71973" lon="3.4381">
        <ele>282.9</ele>
        <time>2016-12-31T12:36:40Z</time>
      </trkpt>
      <trkpt lat="43.71981" lon="3.43818">
        <ele>283.2</ele>
        <time>2016-12-31T12:36:42Z</time>
      </trkpt>
      <trkpt lat="43.7199" lon="3.43815">
        <ele>282.8</ele>
        <time>2016-12-31T12:36:44Z</time>
      </trkpt>
      <trkpt lat="43.71992" lon="3.43802">
        <ele>282.1</ele>
        <time>2016-12-31T12:36:46Z</time>
      </trkpt>
      <trkpt lat="43.71991" lon="3.43788">
        <ele>282.3</ele>
        <time>2016-12-31T12:36:48Z</time>
      </trkpt>
      <trkpt lat="43.71988" lon="3.43773">
        <ele>282.4</ele>
        <time>2016-12-31T12:36:51Z</time>
      </trkpt>
      <trkpt lat="43.71985" lon="3.4376">
        <ele>282.3</ele>
        <time>2016-12-31T12:36:54Z</time>
      </trkpt>
      <trkpt lat="43.71981" lon="3.43749">
        <ele>282.3</ele>
        <time>2016-12-31T12:36:57Z</time>
      </trkpt>
      <trkpt lat="43.71977" lon="3.43739">
        <ele>282.3</ele>
        <time>2016-12-31T12:37:00Z</time>
      </trkpt>
      <trkpt lat="43.71976" lon="3.43728">
        <ele>282.5</ele>
        <time>2016-12-31T12:37:04Z</time>
      </trkpt>
      <trkpt lat="43.71981" lon="3.43719">
        <ele>282.5</ele>
        <time>2016-12-31T12:37:09Z</time>
      </trkpt>
      <trkpt lat="43.71987" lon="3.43713">
        <ele>282.6</ele>
        <time>2016-12-31T12:37:12Z</time>
      </trkpt>
      <trkpt lat="43.71992" lon="3.43705">
        <ele>282.7</ele>
        <time>2016-12-31T12:37:15Z</time>
      </trkpt>
      <trkpt lat="43.71994" lon="3.43694">
        <ele>282.7</ele>
        <time>2016-12-31T12:37:19Z</time>
      </trkpt>
      <trkpt lat="43.71995" lon="3.43683">
        <ele>282.7</ele>
        <time>2016-12-31T12:37:22Z</time>
      </trkpt>
      <trkpt lat="43.71995" lon="3.43672">
        <ele>282.9</ele>
        <time>2016-12-31T12:37:25Z</time>
      </trkpt>
      <trkpt lat="43.71996" lon="3.4366">
        <ele>283.2</ele>
        <time>2016-12-31T12:37:28Z</time>
      </trkpt>
      <trkpt lat="43.71999" lon="3.4365">
        <ele>283.7</ele>
        <time>2016-12-31T12:37:32Z</time>
      </trkpt>
      <trkpt lat="43.72009" lon="3.43651">
        <ele>283.9</ele>
        <time>2016-12-31T12:37:36Z</time>
      </trkpt>
      <trkpt lat="43.72016" lon="3.4366">
        <ele>284.1</ele>
        <time>2016-12-31T12:37:40Z</time>
      </trkpt>
      <trkpt lat="43.72021" lon="3.43669">
        <ele>284.6</ele>
        <time>2016-12-31T12:37:44Z</time>
      </trkpt>
      <trkpt lat="43.72027" lon="3.43677">
        <ele>285</ele>
        <time>2016-12-31T12:37:48Z</time>
      </trkpt>
      <trkpt lat="43.72033" lon="3.43683">
        <ele>285.3</ele>
        <time>2016-12-31T12:37:52Z</time>
      </trkpt>
      <trkpt lat="43.7204" lon="3.43691">
        <ele>285.5</ele>
        <time>2016-12-31T12:37:56Z</time>
      </trkpt>
      <trkpt lat="43.72047" lon="3.43698">
        <ele>286.1</ele>
        <time>2016-12-31T12:38:01Z</time>
      </trkpt>
      <trkpt lat="43.72053" lon="3.43706">
        <ele>286.6</ele>
        <time>2016-12-31T12:38:05Z</time>
      </trkpt>
      <trkpt lat="43.72058" lon="3.43715">
        <ele>287.2</ele>
        <time>2016-12-31T12:38:10Z</time>
      </trkpt>
      <trkpt lat="43.72064" lon="3.43726">
        <ele>287.7</ele>
        <time>2016-12-31T12:38:15Z</time>
      </trkpt>
      <trkpt lat="43.72068" lon="3.43733">
        <ele>288.2</ele>
        <time>2016-12-31T12:38:19Z</time>
      </trkpt>
      <trkpt lat="43.72075" lon="3.4374">
        <ele>288.8</ele>
        <time>2016-12-31T12:38:24Z</time>
      </trkpt>
      <trkpt lat="43.72081" lon="3.43748">
        <ele>289.3</ele>
        <time>2016-12-31T12:38:29Z</time>
      </trkpt>
      <trkpt lat="43.72086" lon="3.43757">
        <ele>289.9</ele>
        <time>2016-12-31T12:38:33Z</time>
      </trkpt>
      <trkpt lat="43.72089" lon="3.43768">
        <ele>290.3</ele>
        <time>2016-12-31T12:38:37Z</time>
      </trkpt>
      <trkpt lat="43.72092" lon="3.43778">
        <ele>290.7</ele>
        <time>2016-12-31T12:38:41Z</time>
      </trkpt>
      <trkpt lat="43.72096" lon="3.43788">
        <ele>291.2</ele>
        <time>2016-12-31T12:38:45Z</time>
      </trkpt>
      <trkpt lat="43.72101" lon="3.43795">
        <ele>291.7</ele>
        <time>2016-12-31T12:38:49Z</time>
      </trkpt>
      <trkpt lat="43.72108" lon="3.43802">
        <ele>292.4</ele>
        <time>2016-12-31T12:38:54Z</time>
      </trkpt>
      <trkpt lat="43.72116" lon="3.438">
        <ele>293.4</ele>
        <time>2016-12-31T12:38:59Z</time>
      </trkpt>
      <trkpt lat="43.72125" lon="3.43796">
        <ele>294.6</ele>
        <time>2016-12-31T12:39:04Z</time>
      </trkpt>
      <trkpt lat="43.72133" lon="3.43795">
        <ele>295.5</ele>
        <time>2016-12-31T12:39:09Z</time>
      </trkpt>
      <trkpt lat="43.72142" lon="3.43792">
        <ele>296</ele>
        <time>2016-12-31T12:39:12Z</time>
      </trkpt>
      <trkpt lat="43.72147" lon="3.43784">
        <ele>296.3</ele>
        <time>2016-12-31T12:39:14Z</time>
      </trkpt>
      <trkpt lat="43.72149" lon="3.43773">
        <ele>296.7</ele>
        <time>2016-12-31T12:39:17Z</time>
      </trkpt>
      <trkpt lat="43.72149" lon="3.43761">
        <ele>297.1</ele>
        <time>2016-12-31T12:39:21Z</time>
      </trkpt>
      <trkpt lat="43.72154" lon="3.4375">
        <ele>297.4</ele>
        <time>2016-12-31T12:39:26Z</time>
      </trkpt>
      <trkpt lat="43.72161" lon="3.43752">
        <ele>297.8</ele>
        <time>2016-12-31T12:39:30Z</time>
      </trkpt>
      <trkpt lat="43.72169" lon="3.43754">
        <ele>298.8</ele>
        <time>2016-12-31T12:39:36Z</time>
      </trkpt>
      <trkpt lat="43.72175" lon="3.43758">
        <ele>300.1</ele>
        <time>2016-12-31T12:39:43Z</time>
      </trkpt>
      <trkpt lat="43.72182" lon="3.43765">
        <ele>301.3</ele>
        <time>2016-12-31T12:39:49Z</time>
      </trkpt>
      <trkpt lat="43.72188" lon="3.43772">
        <ele>302.6</ele>
        <time>2016-12-31T12:39:55Z</time>
      </trkpt>
      <trkpt lat="43.72195" lon="3.43777">
        <ele>304.3</ele>
        <time>2016-12-31T12:40:01Z</time>
      </trkpt>
      <trkpt lat="43.72202" lon="3.43781">
        <ele>305.6</ele>
        <time>2016-12-31T12:40:07Z</time>
      </trkpt>
      <trkpt lat="43.7221" lon="3.43782">
        <ele>307.4</ele>
        <time>2016-12-31T12:40:14Z</time>
      </trkpt>
      <trkpt lat="43.72218" lon="3.43785">
        <ele>308.9</ele>
        <time>2016-12-31T12:40:20Z</time>
      </trkpt>
      <trkpt lat="43.72225" lon="3.4379">
        <ele>310.2</ele>
        <time>2016-12-31T12:40:25Z</time>
      </trkpt>
      <trkpt lat="43.72231" lon="3.43794">
        <ele>312.1</ele>
        <time>2016-12-31T12:40:32Z</time>
      </trkpt>
      <trkpt lat="43.72239" lon="3.43796">
        <ele>314</ele>
        <time>2016-12-31T12:40:38Z</time>
      </trkpt>
      <trkpt lat="43.72246" lon="3.43799">
        <ele>316</ele>
        <time>2016-12-31T12:40:44Z</time>
      </trkpt>
      <trkpt lat="43.72254" lon="3.43803">
        <ele>317.8</ele>
        <time>2016-12-31T12:40:49Z</time>
      </trkpt>
      <trkpt lat="43.72261" lon="3.43806">
        <ele>319.4</ele>
        <time>2016-12-31T12:40:55Z</time>
      </trkpt>
      <trkpt lat="43.72268" lon="3.4381">
        <ele>320.8</ele>
        <time>2016-12-31T12:41:01Z</time>
      </trkpt>
      <trkpt lat="43.72275" lon="3.43812">
        <ele>321.8</ele>
        <time>2016-12-31T12:41:06Z</time>
      </trkpt>
      <trkpt lat="43.72282" lon="3.43815">
        <ele>322.9</ele>
        <time>2016-12-31T12:41:12Z</time>
      </trkpt>
      <trkpt lat="43.7229" lon="3.43821">
        <ele>324.3</ele>
        <time>2016-12-31T12:41:18Z</time>
      </trkpt>
      <trkpt lat="43.72296" lon="3.43825">
        <ele>325</ele>
        <time>2016-12-31T12:41:23Z</time>
      </trkpt>
      <trkpt lat="43.72303" lon="3.43829">
        <ele>325.9</ele>
        <time>2016-12-31T12:41:28Z</time>
      </trkpt>
      <trkpt lat="43.72311" lon="3.43833">
        <ele>326.8</ele>
        <time>2016-12-31T12:41:33Z</time>
      </trkpt>
      <trkpt lat="43.72318" lon="3.43836">
        <ele>327.9</ele>
        <time>2016-12-31T12:41:38Z</time>
      </trkpt>
      <trkpt lat="43.72325" lon="3.43834">
        <ele>328.7</ele>
        <time>2016-12-31T12:41:44Z</time>
      </trkpt>
      <trkpt lat="43.72331" lon="3.43829">
        <ele>329.3</ele>
        <time>2016-12-31T12:41:48Z</time>
      </trkpt>
      <trkpt lat="43.7234" lon="3.43824">
        <ele>329.7</ele>
        <time>2016-12-31T12:41:51Z</time>
      </trkpt>
      <trkpt lat="43.72347" lon="3.43826">
        <ele>330.4</ele>
        <time>2016-12-31T12:41:56Z</time>
      </trkpt>
      <trkpt lat="43.72355" lon="3.43828">
        <ele>331.2</ele>
        <time>2016-12-31T12:42:02Z</time>
      </trkpt>
      <trkpt lat="43.72364" lon="3.43829">
        <ele>332</ele>
        <time>2016-12-31T12:42:07Z</time>
      </trkpt>
      <trkpt lat="43.72372" lon="3.43828">
        <ele>332.5</ele>
        <time>2016-12-31T12:42:12Z</time>
      </trkpt>
      <trkpt lat="43.72381" lon="3.43827">
        <ele>333.1</ele>
        <time>2016-12-31T12:42:17Z</time>
      </trkpt>
      <trkpt lat="43.72388" lon="3.4383">
        <ele>333.6</ele>
        <time>2016-12-31T12:42:21Z</time>
      </trkpt>
      <trkpt lat="43.72397" lon="3.43834">
        <ele>334.2</ele>
        <time>2016-12-31T12:42:26Z</time>
      </trkpt>
      <trkpt lat="43.72404" lon="3.43838">
        <ele>334.9</ele>
        <time>2016-12-31T12:42:32Z</time>
      </trkpt>
      <trkpt lat="43.72411" lon="3.43843">
        <ele>335.4</ele>
        <time>2016-12-31T12:42:36Z</time>
      </trkpt>
      <trkpt lat="43.72417" lon="3.43848">
        <ele>336.2</ele>
        <time>2016-12-31T12:42:40Z</time>
      </trkpt>
      <trkpt lat="43.72424" lon="3.43854">
        <ele>337.4</ele>
        <time>2016-12-31T12:42:45Z</time>
      </trkpt>
      <trkpt lat="43.72431" lon="3.43858">
        <ele>338.2</ele>
        <time>2016-12-31T12:42:50Z</time>
      </trkpt>
      <trkpt lat="43.72438" lon="3.43865">
        <ele>339.4</ele>
        <time>2016-12-31T12:42:56Z</time>
      </trkpt>
      <trkpt lat="43.72445" lon="3.43872">
        <ele>340.3</ele>
        <time>2016-12-31T12:43:00Z</time>
      </trkpt>
      <trkpt lat="43.72451" lon="3.43878">
        <ele>341.1</ele>
        <time>2016-12-31T12:43:04Z</time>
      </trkpt>
      <trkpt lat="43.72457" lon="3.43886">
        <ele>342</ele>
        <time>2016-12-31T12:43:09Z</time>
      </trkpt>
      <trkpt lat="43.72462" lon="3.43893">
        <ele>342.7</ele>
        <time>2016-12-31T12:43:13Z</time>
      </trkpt>
      <trkpt lat="43.72467" lon="3.439">
        <ele>343.2</ele>
        <time>2016-12-31T12:43:18Z</time>
      </trkpt>
      <trkpt lat="43.72474" lon="3.43906">
        <ele>343.7</ele>
        <time>2016-12-31T12:43:22Z</time>
      </trkpt>
      <trkpt lat="43.7248" lon="3.43913">
        <ele>344.1</ele>
        <time>2016-12-31T12:43:25Z</time>
      </trkpt>
      <trkpt lat="43.72485" lon="3.4392">
        <ele>344.5</ele>
        <time>2016-12-31T12:43:29Z</time>
      </trkpt>
      <trkpt lat="43.72491" lon="3.43929">
        <ele>344.8</ele>
        <time>2016-12-31T12:43:33Z</time>
      </trkpt>
      <trkpt lat="43.72495" lon="3.43937">
        <ele>345.3</ele>
        <time>2016-12-31T12:43:37Z</time>
      </trkpt>
      <trkpt lat="43.725" lon="3.43946">
        <ele>346.1</ele>
        <time>2016-12-31T12:43:42Z</time>
      </trkpt>
      <trkpt lat="43.72507" lon="3.43957">
        <ele>346.4</ele>
        <time>2016-12-31T12:43:47Z</time>
      </trkpt>
      <trkpt lat="43.72509" lon="3.43965">
        <ele>346.7</ele>
        <time>2016-12-31T12:43:54Z</time>
      </trkpt>
      <trkpt lat="43.72512" lon="3.43969">
        <ele>345.6</ele>
        <time>2016-12-31T12:45:01Z</time>
      </trkpt>
      <trkpt lat="43.72516" lon="3.43945">
        <ele>345</ele>
        <time>2016-12-31T12:45:17Z</time>
      </trkpt>
      <trkpt lat="43.72516" lon="3.43931">
        <ele>343.3</ele>
        <time>2016-12-31T12:45:19Z</time>
      </trkpt>
      <trkpt lat="43.72516" lon="3.4392">
        <ele>342.7</ele>
        <time>2016-12-31T12:45:25Z</time>
      </trkpt>
      <trkpt lat="43.72521" lon="3.43911">
        <ele>342.2</ele>
        <time>2016-12-31T12:45:29Z</time>
      </trkpt>
      <trkpt lat="43.72519" lon="3.439">
        <ele>341.6</ele>
        <time>2016-12-31T12:45:32Z</time>
      </trkpt>
      <trkpt lat="43.72522" lon="3.4389">
        <ele>341.2</ele>
        <time>2016-12-31T12:45:35Z</time>
      </trkpt>
      <trkpt lat="43.72523" lon="3.43876">
        <ele>340.5</ele>
        <time>2016-12-31T12:45:38Z</time>
      </trkpt>
      <trkpt lat="43.7252" lon="3.43866">
        <ele>340.1</ele>
        <time>2016-12-31T12:45:40Z</time>
      </trkpt>
      <trkpt lat="43.72518" lon="3.43855">
        <ele>339.2</ele>
        <time>2016-12-31T12:45:43Z</time>
      </trkpt>
      <trkpt lat="43.72518" lon="3.43843">
        <ele>338.6</ele>
        <time>2016-12-31T12:45:45Z</time>
      </trkpt>
      <trkpt lat="43.72518" lon="3.43832">
        <ele>338.1</ele>
        <time>2016-12-31T12:45:47Z</time>
      </trkpt>
      <trkpt lat="43.72516" lon="3.4382">
        <ele>336.8</ele>
        <time>2016-12-31T12:45:51Z</time>
      </trkpt>
      <trkpt lat="43.72522" lon="3.43808">
        <ele>335.4</ele>
        <time>2016-12-31T12:45:55Z</time>
      </trkpt>
      <trkpt lat="43.72528" lon="3.43802">
        <ele>333.9</ele>
        <time>2016-12-31T12:45:59Z</time>
      </trkpt>
      <trkpt lat="43.72535" lon="3.43794">
        <ele>332.3</ele>
        <time>2016-12-31T12:46:03Z</time>
      </trkpt>
      <trkpt lat="43.72542" lon="3.43789">
        <ele>330.6</ele>
        <time>2016-12-31T12:46:07Z</time>
      </trkpt>
      <trkpt lat="43.72542" lon="3.43779">
        <ele>328</ele>
        <time>2016-12-31T12:46:12Z</time>
      </trkpt>
      <trkpt lat="43.7254" lon="3.4378">
        <ele>325.9</ele>
        <time>2016-12-31T12:46:19Z</time>
      </trkpt>
      <trkpt lat="43.72543" lon="3.43777">
        <ele>318.9</ele>
        <time>2016-12-31T12:46:58Z</time>
      </trkpt>
      <trkpt lat="43.72539" lon="3.43779">
        <ele>313.1</ele>
        <time>2016-12-31T12:47:19Z</time>
      </trkpt>
      <trkpt lat="43.72534" lon="3.43779">
        <ele>311.4</ele>
        <time>2016-12-31T12:47:26Z</time>
      </trkpt>
      <trkpt lat="43.72528" lon="3.43776">
        <ele>310.1</ele>
        <time>2016-12-31T12:47:33Z</time>
      </trkpt>
      <trkpt lat="43.72522" lon="3.43773">
        <ele>309.3</ele>
        <time>2016-12-31T12:47:40Z</time>
      </trkpt>
      <trkpt lat="43.72516" lon="3.43771">
        <ele>308.6</ele>
        <time>2016-12-31T12:47:47Z</time>
      </trkpt>
      <trkpt lat="43.7251" lon="3.43767">
        <ele>308.3</ele>
        <time>2016-12-31T12:47:54Z</time>
      </trkpt>
      <trkpt lat="43.72504" lon="3.43761">
        <ele>308.6</ele>
        <time>2016-12-31T12:48:01Z</time>
      </trkpt>
      <trkpt lat="43.72502" lon="3.4376">
        <ele>309.3</ele>
        <time>2016-12-31T12:48:08Z</time>
      </trkpt>
      <trkpt lat="43.72495" lon="3.4376">
        <ele>309.7</ele>
        <time>2016-12-31T12:48:15Z</time>
      </trkpt>
      <trkpt lat="43.7249" lon="3.43758">
        <ele>310.3</ele>
        <time>2016-12-31T12:48:22Z</time>
      </trkpt>
      <trkpt lat="43.72483" lon="3.43755">
        <ele>311.1</ele>
        <time>2016-12-31T12:48:29Z</time>
      </trkpt>
      <trkpt lat="43.72478" lon="3.43752">
        <ele>312.2</ele>
        <time>2016-12-31T12:48:36Z</time>
      </trkpt>
      <trkpt lat="43.72471" lon="3.43749">
        <ele>313.7</ele>
        <time>2016-12-31T12:48:43Z</time>
      </trkpt>
      <trkpt lat="43.72466" lon="3.43744">
        <ele>316.6</ele>
        <time>2016-12-31T12:49:22Z</time>
      </trkpt>
      <trkpt lat="43.72473" lon="3.43738">
        <ele>316.4</ele>
        <time>2016-12-31T12:49:28Z</time>
      </trkpt>
      <trkpt lat="43.72479" lon="3.43731">
        <ele>316.1</ele>
        <time>2016-12-31T12:49:31Z</time>
      </trkpt>
      <trkpt lat="43.72482" lon="3.43721">
        <ele>315.9</ele>
        <time>2016-12-31T12:49:37Z</time>
      </trkpt>
      <trkpt lat="43.72488" lon="3.43711">
        <ele>315.6</ele>
        <time>2016-12-31T12:49:40Z</time>
      </trkpt>
      <trkpt lat="43.7249" lon="3.43702">
        <ele>315.2</ele>
        <time>2016-12-31T12:49:43Z</time>
      </trkpt>
      <trkpt lat="43.72488" lon="3.43706">
        <ele>313.6</ele>
        <time>2016-12-31T12:49:50Z</time>
      </trkpt>
      <trkpt lat="43.72484" lon="3.43715">
        <ele>313.1</ele>
        <time>2016-12-31T12:49:57Z</time>
      </trkpt>
      <trkpt lat="43.72494" lon="3.43694">
        <ele>310.2</ele>
        <time>2016-12-31T12:50:15Z</time>
      </trkpt>
      <trkpt lat="43.72499" lon="3.43683">
        <ele>309.6</ele>
        <time>2016-12-31T12:50:19Z</time>
      </trkpt>
      <trkpt lat="43.72506" lon="3.43679">
        <ele>309</ele>
        <time>2016-12-31T12:50:22Z</time>
      </trkpt>
      <trkpt lat="43.72502" lon="3.43679">
        <ele>307.8</ele>
        <time>2016-12-31T12:50:29Z</time>
      </trkpt>
      <trkpt lat="43.72498" lon="3.4368">
        <ele>306.6</ele>
        <time>2016-12-31T12:50:36Z</time>
      </trkpt>
      <trkpt lat="43.72517" lon="3.43673">
        <ele>303.4</ele>
        <time>2016-12-31T12:50:48Z</time>
      </trkpt>
      <trkpt lat="43.72524" lon="3.43671">
        <ele>302.8</ele>
        <time>2016-12-31T12:50:51Z</time>
      </trkpt>
      <trkpt lat="43.72533" lon="3.43663">
        <ele>301.6</ele>
        <time>2016-12-31T12:50:55Z</time>
      </trkpt>
      <trkpt lat="43.72536" lon="3.43653">
        <ele>301</ele>
        <time>2016-12-31T12:50:57Z</time>
      </trkpt>
      <trkpt lat="43.72541" lon="3.43644">
        <ele>299.5</ele>
        <time>2016-12-31T12:51:02Z</time>
      </trkpt>
      <trkpt lat="43.72546" lon="3.43632">
        <ele>298.9</ele>
        <time>2016-12-31T12:51:04Z</time>
      </trkpt>
      <trkpt lat="43.72549" lon="3.43619">
        <ele>298.2</ele>
        <time>2016-12-31T12:51:07Z</time>
      </trkpt>
      <trkpt lat="43.72551" lon="3.43604">
        <ele>297.4</ele>
        <time>2016-12-31T12:51:10Z</time>
      </trkpt>
      <trkpt lat="43.72551" lon="3.43591">
        <ele>296.4</ele>
        <time>2016-12-31T12:51:13Z</time>
      </trkpt>
      <trkpt lat="43.72556" lon="3.43582">
        <ele>295.4</ele>
        <time>2016-12-31T12:51:16Z</time>
      </trkpt>
      <trkpt lat="43.72562" lon="3.43572">
        <ele>294.1</ele>
        <time>2016-12-31T12:51:19Z</time>
      </trkpt>
      <trkpt lat="43.72567" lon="3.43565">
        <ele>292.7</ele>
        <time>2016-12-31T12:51:22Z</time>
      </trkpt>
      <trkpt lat="43.72574" lon="3.43559">
        <ele>291.1</ele>
        <time>2016-12-31T12:51:25Z</time>
      </trkpt>
      <trkpt lat="43.72574" lon="3.43547">
        <ele>289</ele>
        <time>2016-12-31T12:51:29Z</time>
      </trkpt>
      <trkpt lat="43.72569" lon="3.43538">
        <ele>286.7</ele>
        <time>2016-12-31T12:51:33Z</time>
      </trkpt>
      <trkpt lat="43.72569" lon="3.43527">
        <ele>284</ele>
        <time>2016-12-31T12:51:38Z</time>
      </trkpt>
      <trkpt lat="43.72567" lon="3.43522">
        <ele>281</ele>
        <time>2016-12-31T12:51:45Z</time>
      </trkpt>
      <trkpt lat="43.72559" lon="3.43509">
        <ele>270.8</ele>
        <time>2016-12-31T12:52:25Z</time>
      </trkpt>
      <trkpt lat="43.72559" lon="3.43483">
        <ele>264.3</ele>
        <time>2016-12-31T12:53:12Z</time>
      </trkpt>
      <trkpt lat="43.72559" lon="3.43486">
        <ele>264.8</ele>
        <time>2016-12-31T12:53:19Z</time>
      </trkpt>
      <trkpt lat="43.72564" lon="3.4349">
        <ele>265.3</ele>
        <time>2016-12-31T12:53:26Z</time>
      </trkpt>
      <trkpt lat="43.72569" lon="3.43495">
        <ele>265.8</ele>
        <time>2016-12-31T12:53:33Z</time>
      </trkpt>
      <trkpt lat="43.72572" lon="3.43496">
        <ele>265.9</ele>
        <time>2016-12-31T12:53:40Z</time>
      </trkpt>
      <trkpt lat="43.72579" lon="3.43492">
        <ele>265.5</ele>
        <time>2016-12-31T12:53:56Z</time>
      </trkpt>
      <trkpt lat="43.72584" lon="3.43493">
        <ele>265.8</ele>
        <time>2016-12-31T12:54:03Z</time>
      </trkpt>
      <trkpt lat="43.72589" lon="3.43495">
        <ele>266.7</ele>
        <time>2016-12-31T12:54:10Z</time>
      </trkpt>
      <trkpt lat="43.72589" lon="3.43503">
        <ele>268.3</ele>
        <time>2016-12-31T12:54:17Z</time>
      </trkpt>
      <trkpt lat="43.7259" lon="3.4351">
        <ele>269.7</ele>
        <time>2016-12-31T12:54:24Z</time>
      </trkpt>
      <trkpt lat="43.72591" lon="3.43518">
        <ele>270.6</ele>
        <time>2016-12-31T12:54:31Z</time>
      </trkpt>
      <trkpt lat="43.72593" lon="3.43528">
        <ele>271.5</ele>
        <time>2016-12-31T12:54:38Z</time>
      </trkpt>
      <trkpt lat="43.72597" lon="3.43532">
        <ele>272.7</ele>
        <time>2016-12-31T12:54:45Z</time>
      </trkpt>
      <trkpt lat="43.726" lon="3.43536">
        <ele>273.7</ele>
        <time>2016-12-31T12:54:52Z</time>
      </trkpt>
      <trkpt lat="43.72602" lon="3.43539">
        <ele>274.5</ele>
        <time>2016-12-31T12:54:59Z</time>
      </trkpt>
      <trkpt lat="43.72606" lon="3.43543">
        <ele>275.6</ele>
        <time>2016-12-31T12:55:06Z</time>
      </trkpt>
      <trkpt lat="43.7261" lon="3.43545">
        <ele>277</ele>
        <time>2016-12-31T12:55:13Z</time>
      </trkpt>
      <trkpt lat="43.72623" lon="3.43554">
        <ele>278.9</ele>
        <time>2016-12-31T12:55:41Z</time>
      </trkpt>
      <trkpt lat="43.72626" lon="3.43561">
        <ele>280.2</ele>
        <time>2016-12-31T12:55:48Z</time>
      </trkpt>
      <trkpt lat="43.72628" lon="3.43564">
        <ele>280.6</ele>
        <time>2016-12-31T12:55:55Z</time>
      </trkpt>
      <trkpt lat="43.72629" lon="3.43566">
        <ele>280.7</ele>
        <time>2016-12-31T12:56:02Z</time>
      </trkpt>
      <trkpt lat="43.72642" lon="3.43548">
        <ele>282.4</ele>
        <time>2016-12-31T12:56:20Z</time>
      </trkpt>
      <trkpt lat="43.7265" lon="3.43541">
        <ele>282.4</ele>
        <time>2016-12-31T12:56:23Z</time>
      </trkpt>
      <trkpt lat="43.72658" lon="3.43537">
        <ele>282.4</ele>
        <time>2016-12-31T12:56:25Z</time>
      </trkpt>
      <trkpt lat="43.72666" lon="3.43533">
        <ele>282.1</ele>
        <time>2016-12-31T12:56:27Z</time>
      </trkpt>
      <trkpt lat="43.72675" lon="3.43529">
        <ele>282.2</ele>
        <time>2016-12-31T12:56:29Z</time>
      </trkpt>
      <trkpt lat="43.72684" lon="3.43524">
        <ele>282.7</ele>
        <time>2016-12-31T12:56:31Z</time>
      </trkpt>
      <trkpt lat="43.72693" lon="3.43518">
        <ele>282.7</ele>
        <time>2016-12-31T12:56:33Z</time>
      </trkpt>
      <trkpt lat="43.72704" lon="3.43513">
        <ele>282.6</ele>
        <time>2016-12-31T12:56:35Z</time>
      </trkpt>
      <trkpt lat="43.72714" lon="3.43506">
        <ele>282.6</ele>
        <time>2016-12-31T12:56:37Z</time>
      </trkpt>
      <trkpt lat="43.72726" lon="3.435">
        <ele>281.5</ele>
        <time>2016-12-31T12:56:39Z</time>
      </trkpt>
      <trkpt lat="43.72738" lon="3.43496">
        <ele>280.3</ele>
        <time>2016-12-31T12:56:41Z</time>
      </trkpt>
      <trkpt lat="43.72749" lon="3.43493">
        <ele>279.1</ele>
        <time>2016-12-31T12:56:43Z</time>
      </trkpt>
      <trkpt lat="43.72762" lon="3.43491">
        <ele>279.4</ele>
        <time>2016-12-31T12:56:45Z</time>
      </trkpt>
      <trkpt lat="43.72776" lon="3.4349">
        <ele>279.1</ele>
        <time>2016-12-31T12:56:47Z</time>
      </trkpt>
      <trkpt lat="43.72788" lon="3.43485">
        <ele>278.1</ele>
        <time>2016-12-31T12:56:49Z</time>
      </trkpt>
      <trkpt lat="43.72799" lon="3.43479">
        <ele>276.6</ele>
        <time>2016-12-31T12:56:51Z</time>
      </trkpt>
      <trkpt lat="43.72808" lon="3.43475">
        <ele>274.5</ele>
        <time>2016-12-31T12:56:53Z</time>
      </trkpt>
      <trkpt lat="43.72818" lon="3.43472">
        <ele>273.7</ele>
        <time>2016-12-31T12:56:55Z</time>
      </trkpt>
      <trkpt lat="43.72826" lon="3.43471">
        <ele>273.6</ele>
        <time>2016-12-31T12:56:57Z</time>
      </trkpt>
      <trkpt lat="43.72834" lon="3.43471">
        <ele>273.7</ele>
        <time>2016-12-31T12:56:59Z</time>
      </trkpt>
      <trkpt lat="43.72843" lon="3.43471">
        <ele>273.9</ele>
        <time>2016-12-31T12:57:02Z</time>
      </trkpt>
      <trkpt lat="43.72853" lon="3.4347">
        <ele>274.2</ele>
        <time>2016-12-31T12:57:05Z</time>
      </trkpt>
      <trkpt lat="43.7286" lon="3.43467">
        <ele>274.4</ele>
        <time>2016-12-31T12:57:08Z</time>
      </trkpt>
      <trkpt lat="43.72868" lon="3.43467">
        <ele>274.6</ele>
        <time>2016-12-31T12:57:11Z</time>
      </trkpt>
      <trkpt lat="43.72877" lon="3.43471">
        <ele>275.1</ele>
        <time>2016-12-31T12:57:15Z</time>
      </trkpt>
      <trkpt lat="43.72887" lon="3.43471">
        <ele>275.7</ele>
        <time>2016-12-31T12:57:19Z</time>
      </trkpt>
      <trkpt lat="43.72896" lon="3.43471">
        <ele>276.2</ele>
        <time>2016-12-31T12:57:23Z</time>
      </trkpt>
      <trkpt lat="43.72904" lon="3.4347">
        <ele>276.6</ele>
        <time>2016-12-31T12:57:26Z</time>
      </trkpt>
      <trkpt lat="43.72911" lon="3.4347">
        <ele>276.9</ele>
        <time>2016-12-31T12:57:29Z</time>
      </trkpt>
      <trkpt lat="43.7292" lon="3.43472">
        <ele>277.5</ele>
        <time>2016-12-31T12:57:33Z</time>
      </trkpt>
      <trkpt lat="43.72929" lon="3.43476">
        <ele>278.2</ele>
        <time>2016-12-31T12:57:37Z</time>
      </trkpt>
      <trkpt lat="43.72936" lon="3.4348">
        <ele>278.9</ele>
        <time>2016-12-31T12:57:41Z</time>
      </trkpt>
      <trkpt lat="43.72944" lon="3.43483">
        <ele>279.8</ele>
        <time>2016-12-31T12:57:45Z</time>
      </trkpt>
      <trkpt lat="43.72952" lon="3.43486">
        <ele>280.6</ele>
        <time>2016-12-31T12:57:49Z</time>
      </trkpt>
      <trkpt lat="43.7296" lon="3.43488">
        <ele>281.6</ele>
        <time>2016-12-31T12:57:54Z</time>
      </trkpt>
      <trkpt lat="43.72968" lon="3.4349">
        <ele>282.5</ele>
        <time>2016-12-31T12:57:59Z</time>
      </trkpt>
      <trkpt lat="43.72976" lon="3.43492">
        <ele>283.2</ele>
        <time>2016-12-31T12:58:03Z</time>
      </trkpt>
      <trkpt lat="43.72984" lon="3.43493">
        <ele>283.8</ele>
        <time>2016-12-31T12:58:07Z</time>
      </trkpt>
      <trkpt lat="43.72994" lon="3.43493">
        <ele>284.5</ele>
        <time>2016-12-31T12:58:12Z</time>
      </trkpt>
      <trkpt lat="43.73001" lon="3.43495">
        <ele>285.2</ele>
        <time>2016-12-31T12:58:17Z</time>
      </trkpt>
      <trkpt lat="43.72999" lon="3.43505">
        <ele>286</ele>
        <time>2016-12-31T12:58:23Z</time>
      </trkpt>
      <trkpt lat="43.72991" lon="3.43507">
        <ele>286.3</ele>
        <time>2016-12-31T12:58:27Z</time>
      </trkpt>
      <trkpt lat="43.72982" lon="3.43507">
        <ele>286.6</ele>
        <time>2016-12-31T12:58:31Z</time>
      </trkpt>
      <trkpt lat="43.72973" lon="3.43507">
        <ele>286.9</ele>
        <time>2016-12-31T12:58:35Z</time>
      </trkpt>
      <trkpt lat="43.72964" lon="3.43508">
        <ele>287.2</ele>
        <time>2016-12-31T12:58:39Z</time>
      </trkpt>
      <trkpt lat="43.72956" lon="3.4351">
        <ele>287.5</ele>
        <time>2016-12-31T12:58:43Z</time>
      </trkpt>
      <trkpt lat="43.72948" lon="3.43513">
        <ele>287.8</ele>
        <time>2016-12-31T12:58:47Z</time>
      </trkpt>
      <trkpt lat="43.72941" lon="3.43517">
        <ele>288</ele>
        <time>2016-12-31T12:58:51Z</time>
      </trkpt>
      <trkpt lat="43.72933" lon="3.4352">
        <ele>288.3</ele>
        <time>2016-12-31T12:58:55Z</time>
      </trkpt>
      <trkpt lat="43.72926" lon="3.43522">
        <ele>288.5</ele>
        <time>2016-12-31T12:58:59Z</time>
      </trkpt>
      <trkpt lat="43.7292" lon="3.43526">
        <ele>288.8</ele>
        <time>2016-12-31T12:59:03Z</time>
      </trkpt>
      <trkpt lat="43.72912" lon="3.43531">
        <ele>289.2</ele>
        <time>2016-12-31T12:59:07Z</time>
      </trkpt>
      <trkpt lat="43.72905" lon="3.43535">
        <ele>289.6</ele>
        <time>2016-12-31T12:59:11Z</time>
      </trkpt>
      <trkpt lat="43.72898" lon="3.43539">
        <ele>290.1</ele>
        <time>2016-12-31T12:59:15Z</time>
      </trkpt>
      <trkpt lat="43.72889" lon="3.43543">
        <ele>290.6</ele>
        <time>2016-12-31T12:59:20Z</time>
      </trkpt>
      <trkpt lat="43.72881" lon="3.43547">
        <ele>290.8</ele>
        <time>2016-12-31T12:59:24Z</time>
      </trkpt>
      <trkpt lat="43.72874" lon="3.43552">
        <ele>291.2</ele>
        <time>2016-12-31T12:59:28Z</time>
      </trkpt>
      <trkpt lat="43.72866" lon="3.43556">
        <ele>291.5</ele>
        <time>2016-12-31T12:59:32Z</time>
      </trkpt>
      <trkpt lat="43.72858" lon="3.4356">
        <ele>292.1</ele>
        <time>2016-12-31T12:59:37Z</time>
      </trkpt>
      <trkpt lat="43.72851" lon="3.43564">
        <ele>292.6</ele>
        <time>2016-12-31T12:59:41Z</time>
      </trkpt>
      <trkpt lat="43.72844" lon="3.43567">
        <ele>293.2</ele>
        <time>2016-12-31T12:59:45Z</time>
      </trkpt>
      <trkpt lat="43.72835" lon="3.43569">
        <ele>293.7</ele>
        <time>2016-12-31T12:59:49Z</time>
      </trkpt>
      <trkpt lat="43.72827" lon="3.43571">
        <ele>294.1</ele>
        <time>2016-12-31T12:59:53Z</time>
      </trkpt>
      <trkpt lat="43.72819" lon="3.43575">
        <ele>294.6</ele>
        <time>2016-12-31T12:59:57Z</time>
      </trkpt>
      <trkpt lat="43.72811" lon="3.43579">
        <ele>295.2</ele>
        <time>2016-12-31T13:00:02Z</time>
      </trkpt>
      <trkpt lat="43.72804" lon="3.43584">
        <ele>295.8</ele>
        <time>2016-12-31T13:00:06Z</time>
      </trkpt>
      <trkpt lat="43.72798" lon="3.43592">
        <ele>296.5</ele>
        <time>2016-12-31T13:00:11Z</time>
      </trkpt>
      <trkpt lat="43.72793" lon="3.436">
        <ele>297.4</ele>
        <time>2016-12-31T13:00:15Z</time>
      </trkpt>
      <trkpt lat="43.72787" lon="3.4361">
        <ele>298.4</ele>
        <time>2016-12-31T13:00:20Z</time>
      </trkpt>
      <trkpt lat="43.72781" lon="3.43618">
        <ele>299.4</ele>
        <time>2016-12-31T13:00:25Z</time>
      </trkpt>
      <trkpt lat="43.72775" lon="3.43625">
        <ele>300.2</ele>
        <time>2016-12-31T13:00:29Z</time>
      </trkpt>
      <trkpt lat="43.72769" lon="3.43634">
        <ele>301</ele>
        <time>2016-12-31T13:00:33Z</time>
      </trkpt>
      <trkpt lat="43.72763" lon="3.43642">
        <ele>302</ele>
        <time>2016-12-31T13:00:38Z</time>
      </trkpt>
      <trkpt lat="43.72755" lon="3.43649">
        <ele>302.7</ele>
        <time>2016-12-31T13:00:42Z</time>
      </trkpt>
      <trkpt lat="43.72749" lon="3.43654">
        <ele>303.6</ele>
        <time>2016-12-31T13:00:46Z</time>
      </trkpt>
      <trkpt lat="43.72745" lon="3.43665">
        <ele>304.5</ele>
        <time>2016-12-31T13:00:51Z</time>
      </trkpt>
      <trkpt lat="43.7274" lon="3.43675">
        <ele>305.3</ele>
        <time>2016-12-31T13:00:55Z</time>
      </trkpt>
      <trkpt lat="43.72737" lon="3.43686">
        <ele>305.9</ele>
        <time>2016-12-31T13:00:59Z</time>
      </trkpt>
      <trkpt lat="43.72735" lon="3.43697">
        <ele>306.4</ele>
        <time>2016-12-31T13:01:03Z</time>
      </trkpt>
      <trkpt lat="43.72734" lon="3.43709">
        <ele>306.9</ele>
        <time>2016-12-31T13:01:08Z</time>
      </trkpt>
      <trkpt lat="43.72732" lon="3.4372">
        <ele>307.4</ele>
        <time>2016-12-31T13:01:12Z</time>
      </trkpt>
      <trkpt lat="43.72731" lon="3.43731">
        <ele>307.9</ele>
        <time>2016-12-31T13:01:17Z</time>
      </trkpt>
      <trkpt lat="43.72728" lon="3.43742">
        <ele>308.4</ele>
        <time>2016-12-31T13:01:21Z</time>
      </trkpt>
      <trkpt lat="43.72724" lon="3.43752">
        <ele>308.9</ele>
        <time>2016-12-31T13:01:25Z</time>
      </trkpt>
      <trkpt lat="43.7272" lon="3.43761">
        <ele>309.3</ele>
        <time>2016-12-31T13:01:29Z</time>
      </trkpt>
      <trkpt lat="43.72717" lon="3.4377">
        <ele>309.8</ele>
        <time>2016-12-31T13:01:33Z</time>
      </trkpt>
      <trkpt lat="43.72715" lon="3.4378">
        <ele>310.3</ele>
        <time>2016-12-31T13:01:37Z</time>
      </trkpt>
      <trkpt lat="43.72715" lon="3.43792">
        <ele>310.6</ele>
        <time>2016-12-31T13:01:41Z</time>
      </trkpt>
      <trkpt lat="43.72714" lon="3.43804">
        <ele>311.1</ele>
        <time>2016-12-31T13:01:46Z</time>
      </trkpt>
      <trkpt lat="43.72714" lon="3.43814">
        <ele>311.5</ele>
        <time>2016-12-31T13:01:50Z</time>
      </trkpt>
      <trkpt lat="43.72713" lon="3.43825">
        <ele>311.9</ele>
        <time>2016-12-31T13:01:54Z</time>
      </trkpt>
      <trkpt lat="43.72712" lon="3.43835">
        <ele>312.5</ele>
        <time>2016-12-31T13:01:58Z</time>
      </trkpt>
      <trkpt lat="43.72711" lon="3.43847">
        <ele>313.5</ele>
        <time>2016-12-31T13:02:03Z</time>
      </trkpt>
      <trkpt lat="43.72711" lon="3.43857">
        <ele>314.5</ele>
        <time>2016-12-31T13:02:07Z</time>
      </trkpt>
      <trkpt lat="43.72713" lon="3.43866">
        <ele>315.2</ele>
        <time>2016-12-31T13:02:11Z</time>
      </trkpt>
      <trkpt lat="43.72714" lon="3.43877">
        <ele>316.2</ele>
        <time>2016-12-31T13:02:15Z</time>
      </trkpt>
      <trkpt lat="43.72715" lon="3.43887">
        <ele>317.2</ele>
        <time>2016-12-31T13:02:19Z</time>
      </trkpt>
      <trkpt lat="43.72715" lon="3.43898">
        <ele>318.2</ele>
        <time>2016-12-31T13:02:23Z</time>
      </trkpt>
      <trkpt lat="43.72713" lon="3.4391">
        <ele>319</ele>
        <time>2016-12-31T13:02:27Z</time>
      </trkpt>
      <trkpt lat="43.72711" lon="3.43922">
        <ele>319.7</ele>
        <time>2016-12-31T13:02:31Z</time>
      </trkpt>
      <trkpt lat="43.72716" lon="3.43929">
        <ele>320.2</ele>
        <time>2016-12-31T13:02:35Z</time>
      </trkpt>
      <trkpt lat="43.72723" lon="3.43924">
        <ele>320.6</ele>
        <time>2016-12-31T13:02:39Z</time>
      </trkpt>
      <trkpt lat="43.72726" lon="3.43911">
        <ele>321.1</ele>
        <time>2016-12-31T13:02:43Z</time>
      </trkpt>
      <trkpt lat="43.72729" lon="3.43902">
        <ele>321.7</ele>
        <time>2016-12-31T13:02:47Z</time>
      </trkpt>
      <trkpt lat="43.72733" lon="3.43893">
        <ele>322.2</ele>
        <time>2016-12-31T13:02:51Z</time>
      </trkpt>
      <trkpt lat="43.72736" lon="3.43884">
        <ele>323</ele>
        <time>2016-12-31T13:02:56Z</time>
      </trkpt>
      <trkpt lat="43.72742" lon="3.43875">
        <ele>323.6</ele>
        <time>2016-12-31T13:03:01Z</time>
      </trkpt>
      <trkpt lat="43.72749" lon="3.43868">
        <ele>323.9</ele>
        <time>2016-12-31T13:03:05Z</time>
      </trkpt>
      <trkpt lat="43.72756" lon="3.43863">
        <ele>324</ele>
        <time>2016-12-31T13:03:09Z</time>
      </trkpt>
      <trkpt lat="43.72763" lon="3.43857">
        <ele>324</ele>
        <time>2016-12-31T13:03:14Z</time>
      </trkpt>
      <trkpt lat="43.72769" lon="3.43853">
        <ele>324.1</ele>
        <time>2016-12-31T13:03:18Z</time>
      </trkpt>
      <trkpt lat="43.72778" lon="3.43847">
        <ele>324.4</ele>
        <time>2016-12-31T13:03:22Z</time>
      </trkpt>
      <trkpt lat="43.72784" lon="3.43841">
        <ele>324.7</ele>
        <time>2016-12-31T13:03:26Z</time>
      </trkpt>
      <trkpt lat="43.7279" lon="3.43835">
        <ele>325</ele>
        <time>2016-12-31T13:03:30Z</time>
      </trkpt>
      <trkpt lat="43.72796" lon="3.43827">
        <ele>325.6</ele>
        <time>2016-12-31T13:03:34Z</time>
      </trkpt>
      <trkpt lat="43.72802" lon="3.43821">
        <ele>326.1</ele>
        <time>2016-12-31T13:03:38Z</time>
      </trkpt>
      <trkpt lat="43.72809" lon="3.43816">
        <ele>326.4</ele>
        <time>2016-12-31T13:03:42Z</time>
      </trkpt>
      <trkpt lat="43.72815" lon="3.43811">
        <ele>326.8</ele>
        <time>2016-12-31T13:03:46Z</time>
      </trkpt>
      <trkpt lat="43.72822" lon="3.43806">
        <ele>327.6</ele>
        <time>2016-12-31T13:03:50Z</time>
      </trkpt>
      <trkpt lat="43.72829" lon="3.43802">
        <ele>328.3</ele>
        <time>2016-12-31T13:03:54Z</time>
      </trkpt>
      <trkpt lat="43.72835" lon="3.43796">
        <ele>328.8</ele>
        <time>2016-12-31T13:03:57Z</time>
      </trkpt>
      <trkpt lat="43.72842" lon="3.43792">
        <ele>329.7</ele>
        <time>2016-12-31T13:04:02Z</time>
      </trkpt>
      <trkpt lat="43.72849" lon="3.43788">
        <ele>330.3</ele>
        <time>2016-12-31T13:04:06Z</time>
      </trkpt>
      <trkpt lat="43.72856" lon="3.43783">
        <ele>330.9</ele>
        <time>2016-12-31T13:04:10Z</time>
      </trkpt>
      <trkpt lat="43.72865" lon="3.4378">
        <ele>331.6</ele>
        <time>2016-12-31T13:04:15Z</time>
      </trkpt>
      <trkpt lat="43.72873" lon="3.43776">
        <ele>332</ele>
        <time>2016-12-31T13:04:19Z</time>
      </trkpt>
      <trkpt lat="43.72879" lon="3.43772">
        <ele>332.4</ele>
        <time>2016-12-31T13:04:23Z</time>
      </trkpt>
      <trkpt lat="43.72889" lon="3.43769">
        <ele>333</ele>
        <time>2016-12-31T13:04:28Z</time>
      </trkpt>
      <trkpt lat="43.72896" lon="3.43767">
        <ele>333.6</ele>
        <time>2016-12-31T13:04:32Z</time>
      </trkpt>
      <trkpt lat="43.72905" lon="3.43764">
        <ele>334.4</ele>
        <time>2016-12-31T13:04:37Z</time>
      </trkpt>
      <trkpt lat="43.72914" lon="3.43761">
        <ele>334.8</ele>
        <time>2016-12-31T13:04:41Z</time>
      </trkpt>
      <trkpt lat="43.72922" lon="3.43759">
        <ele>335.2</ele>
        <time>2016-12-31T13:04:45Z</time>
      </trkpt>
      <trkpt lat="43.7293" lon="3.43757">
        <ele>335.6</ele>
        <time>2016-12-31T13:04:49Z</time>
      </trkpt>
      <trkpt lat="43.72938" lon="3.43754">
        <ele>335.9</ele>
        <time>2016-12-31T13:04:53Z</time>
      </trkpt>
      <trkpt lat="43.72946" lon="3.43752">
        <ele>336.3</ele>
        <time>2016-12-31T13:04:57Z</time>
      </trkpt>
      <trkpt lat="43.72954" lon="3.43751">
        <ele>336.9</ele>
        <time>2016-12-31T13:05:01Z</time>
      </trkpt>
      <trkpt lat="43.72963" lon="3.43752">
        <ele>337.5</ele>
        <time>2016-12-31T13:05:06Z</time>
      </trkpt>
      <trkpt lat="43.72971" lon="3.43752">
        <ele>338</ele>
        <time>2016-12-31T13:05:10Z</time>
      </trkpt>
      <trkpt lat="43.7298" lon="3.43753">
        <ele>338.5</ele>
        <time>2016-12-31T13:05:15Z</time>
      </trkpt>
      <trkpt lat="43.72988" lon="3.43755">
        <ele>338.9</ele>
        <time>2016-12-31T13:05:19Z</time>
      </trkpt>
      <trkpt lat="43.72997" lon="3.43756">
        <ele>339.2</ele>
        <time>2016-12-31T13:05:24Z</time>
      </trkpt>
      <trkpt lat="43.73004" lon="3.4376">
        <ele>339.8</ele>
        <time>2016-12-31T13:05:28Z</time>
      </trkpt>
      <trkpt lat="43.73011" lon="3.43761">
        <ele>340.4</ele>
        <time>2016-12-31T13:05:32Z</time>
      </trkpt>
      <trkpt lat="43.73018" lon="3.43761">
        <ele>341.1</ele>
        <time>2016-12-31T13:05:36Z</time>
      </trkpt>
      <trkpt lat="43.73026" lon="3.43765">
        <ele>341.9</ele>
        <time>2016-12-31T13:05:41Z</time>
      </trkpt>
      <trkpt lat="43.73036" lon="3.43767">
        <ele>342.5</ele>
        <time>2016-12-31T13:05:46Z</time>
      </trkpt>
      <trkpt lat="43.73044" lon="3.43768">
        <ele>343</ele>
        <time>2016-12-31T13:05:50Z</time>
      </trkpt>
      <trkpt lat="43.73053" lon="3.4377">
        <ele>343.5</ele>
        <time>2016-12-31T13:05:54Z</time>
      </trkpt>
      <trkpt lat="43.7306" lon="3.43771">
        <ele>344.1</ele>
        <time>2016-12-31T13:05:58Z</time>
      </trkpt>
      <trkpt lat="43.73067" lon="3.43773">
        <ele>344.6</ele>
        <time>2016-12-31T13:06:02Z</time>
      </trkpt>
      <trkpt lat="43.73075" lon="3.43775">
        <ele>345.2</ele>
        <time>2016-12-31T13:06:06Z</time>
      </trkpt>
      <trkpt lat="43.73084" lon="3.43777">
        <ele>346.2</ele>
        <time>2016-12-31T13:06:11Z</time>
      </trkpt>
      <trkpt lat="43.73092" lon="3.4378">
        <ele>347</ele>
        <time>2016-12-31T13:06:15Z</time>
      </trkpt>
      <trkpt lat="43.731" lon="3.43782">
        <ele>347.9</ele>
        <time>2016-12-31T13:06:19Z</time>
      </trkpt>
      <trkpt lat="43.73108" lon="3.43783">
        <ele>348.5</ele>
        <time>2016-12-31T13:06:23Z</time>
      </trkpt>
      <trkpt lat="43.73116" lon="3.43785">
        <ele>349.2</ele>
        <time>2016-12-31T13:06:27Z</time>
      </trkpt>
      <trkpt lat="43.73126" lon="3.43788">
        <ele>349.8</ele>
        <time>2016-12-31T13:06:31Z</time>
      </trkpt>
      <trkpt lat="43.73134" lon="3.4379">
        <ele>350.5</ele>
        <time>2016-12-31T13:06:35Z</time>
      </trkpt>
      <trkpt lat="43.73143" lon="3.43794">
        <ele>351.4</ele>
        <time>2016-12-31T13:06:40Z</time>
      </trkpt>
      <trkpt lat="43.7315" lon="3.43798">
        <ele>352.1</ele>
        <time>2016-12-31T13:06:44Z</time>
      </trkpt>
      <trkpt lat="43.73157" lon="3.43802">
        <ele>352.9</ele>
        <time>2016-12-31T13:06:47Z</time>
      </trkpt>
      <trkpt lat="43.73164" lon="3.43807">
        <ele>354.1</ele>
        <time>2016-12-31T13:06:51Z</time>
      </trkpt>
      <trkpt lat="43.7317" lon="3.43812">
        <ele>355.2</ele>
        <time>2016-12-31T13:06:55Z</time>
      </trkpt>
      <trkpt lat="43.73177" lon="3.43818">
        <ele>356.1</ele>
        <time>2016-12-31T13:06:59Z</time>
      </trkpt>
      <trkpt lat="43.73184" lon="3.43824">
        <ele>357</ele>
        <time>2016-12-31T13:07:03Z</time>
      </trkpt>
      <trkpt lat="43.73192" lon="3.43828">
        <ele>357.8</ele>
        <time>2016-12-31T13:07:06Z</time>
      </trkpt>
      <trkpt lat="43.73199" lon="3.43833">
        <ele>359.2</ele>
        <time>2016-12-31T13:07:11Z</time>
      </trkpt>
      <trkpt lat="43.73206" lon="3.4384">
        <ele>360.5</ele>
        <time>2016-12-31T13:07:16Z</time>
      </trkpt>
      <trkpt lat="43.73212" lon="3.43848">
        <ele>361.7</ele>
        <time>2016-12-31T13:07:21Z</time>
      </trkpt>
      <trkpt lat="43.73218" lon="3.43856">
        <ele>362.9</ele>
        <time>2016-12-31T13:07:26Z</time>
      </trkpt>
      <trkpt lat="43.73223" lon="3.43866">
        <ele>363.5</ele>
        <time>2016-12-31T13:07:30Z</time>
      </trkpt>
      <trkpt lat="43.73227" lon="3.43876">
        <ele>363.8</ele>
        <time>2016-12-31T13:07:34Z</time>
      </trkpt>
      <trkpt lat="43.73232" lon="3.43884">
        <ele>364.3</ele>
        <time>2016-12-31T13:07:38Z</time>
      </trkpt>
      <trkpt lat="43.73237" lon="3.43892">
        <ele>365.2</ele>
        <time>2016-12-31T13:07:42Z</time>
      </trkpt>
      <trkpt lat="43.73243" lon="3.439">
        <ele>366.1</ele>
        <time>2016-12-31T13:07:46Z</time>
      </trkpt>
      <trkpt lat="43.73249" lon="3.43908">
        <ele>367</ele>
        <time>2016-12-31T13:07:50Z</time>
      </trkpt>
      <trkpt lat="43.73255" lon="3.43914">
        <ele>367.8</ele>
        <time>2016-12-31T13:07:55Z</time>
      </trkpt>
      <trkpt lat="43.73261" lon="3.43922">
        <ele>368.7</ele>
        <time>2016-12-31T13:08:00Z</time>
      </trkpt>
      <trkpt lat="43.73268" lon="3.43928">
        <ele>369.6</ele>
        <time>2016-12-31T13:08:04Z</time>
      </trkpt>
      <trkpt lat="43.73263" lon="3.43931">
        <ele>371.1</ele>
        <time>2016-12-31T13:08:11Z</time>
      </trkpt>
      <trkpt lat="43.73257" lon="3.43924">
        <ele>372.1</ele>
        <time>2016-12-31T13:08:15Z</time>
      </trkpt>
      <trkpt lat="43.73251" lon="3.43915">
        <ele>373.1</ele>
        <time>2016-12-31T13:08:20Z</time>
      </trkpt>
      <trkpt lat="43.73244" lon="3.43906">
        <ele>373.6</ele>
        <time>2016-12-31T13:08:23Z</time>
      </trkpt>
      <trkpt lat="43.73238" lon="3.439">
        <ele>374</ele>
        <time>2016-12-31T13:08:26Z</time>
      </trkpt>
      <trkpt lat="43.73231" lon="3.43894">
        <ele>374.3</ele>
        <time>2016-12-31T13:08:29Z</time>
      </trkpt>
      <trkpt lat="43.73222" lon="3.43888">
        <ele>374.4</ele>
        <time>2016-12-31T13:08:33Z</time>
      </trkpt>
      <trkpt lat="43.73215" lon="3.43883">
        <ele>374.3</ele>
        <time>2016-12-31T13:08:36Z</time>
      </trkpt>
      <trkpt lat="43.73207" lon="3.43878">
        <ele>374.4</ele>
        <time>2016-12-31T13:08:39Z</time>
      </trkpt>
      <trkpt lat="43.73199" lon="3.43875">
        <ele>374.8</ele>
        <time>2016-12-31T13:08:43Z</time>
      </trkpt>
      <trkpt lat="43.73191" lon="3.43871">
        <ele>375.3</ele>
        <time>2016-12-31T13:08:46Z</time>
      </trkpt>
      <trkpt lat="43.73182" lon="3.43869">
        <ele>375.9</ele>
        <time>2016-12-31T13:08:50Z</time>
      </trkpt>
      <trkpt lat="43.73175" lon="3.43866">
        <ele>376.3</ele>
        <time>2016-12-31T13:08:53Z</time>
      </trkpt>
      <trkpt lat="43.73167" lon="3.43864">
        <ele>376.7</ele>
        <time>2016-12-31T13:08:57Z</time>
      </trkpt>
      <trkpt lat="43.73158" lon="3.4386">
        <ele>377</ele>
        <time>2016-12-31T13:09:01Z</time>
      </trkpt>
      <trkpt lat="43.7315" lon="3.43857">
        <ele>377.3</ele>
        <time>2016-12-31T13:09:05Z</time>
      </trkpt>
      <trkpt lat="43.73143" lon="3.43857">
        <ele>377.7</ele>
        <time>2016-12-31T13:09:08Z</time>
      </trkpt>
      <trkpt lat="43.73134" lon="3.43855">
        <ele>378.3</ele>
        <time>2016-12-31T13:09:12Z</time>
      </trkpt>
      <trkpt lat="43.73125" lon="3.43855">
        <ele>378.7</ele>
        <time>2016-12-31T13:09:15Z</time>
      </trkpt>
      <trkpt lat="43.73117" lon="3.43856">
        <ele>379.4</ele>
        <time>2016-12-31T13:09:19Z</time>
      </trkpt>
      <trkpt lat="43.73109" lon="3.43857">
        <ele>379.8</ele>
        <time>2016-12-31T13:09:22Z</time>
      </trkpt>
      <trkpt lat="43.731" lon="3.43857">
        <ele>380.5</ele>
        <time>2016-12-31T13:09:26Z</time>
      </trkpt>
      <trkpt lat="43.73092" lon="3.43858">
        <ele>380.9</ele>
        <time>2016-12-31T13:09:29Z</time>
      </trkpt>
      <trkpt lat="43.73084" lon="3.43859">
        <ele>381.4</ele>
        <time>2016-12-31T13:09:32Z</time>
      </trkpt>
      <trkpt lat="43.73076" lon="3.4386">
        <ele>381.9</ele>
        <time>2016-12-31T13:09:36Z</time>
      </trkpt>
      <trkpt lat="43.73069" lon="3.43863">
        <ele>382.4</ele>
        <time>2016-12-31T13:09:39Z</time>
      </trkpt>
      <trkpt lat="43.7306" lon="3.43866">
        <ele>383</ele>
        <time>2016-12-31T13:09:43Z</time>
      </trkpt>
      <trkpt lat="43.73051" lon="3.4387">
        <ele>383.5</ele>
        <time>2016-12-31T13:09:47Z</time>
      </trkpt>
      <trkpt lat="43.73043" lon="3.43872">
        <ele>383.8</ele>
        <time>2016-12-31T13:09:50Z</time>
      </trkpt>
      <trkpt lat="43.73035" lon="3.43875">
        <ele>384.3</ele>
        <time>2016-12-31T13:09:54Z</time>
      </trkpt>
      <trkpt lat="43.73026" lon="3.4388">
        <ele>384.8</ele>
        <time>2016-12-31T13:09:58Z</time>
      </trkpt>
      <trkpt lat="43.73018" lon="3.43884">
        <ele>385.4</ele>
        <time>2016-12-31T13:10:02Z</time>
      </trkpt>
      <trkpt lat="43.7301" lon="3.4389">
        <ele>385.9</ele>
        <time>2016-12-31T13:10:06Z</time>
      </trkpt>
      <trkpt lat="43.73003" lon="3.43897">
        <ele>386.3</ele>
        <time>2016-12-31T13:10:10Z</time>
      </trkpt>
      <trkpt lat="43.72996" lon="3.43904">
        <ele>386.6</ele>
        <time>2016-12-31T13:10:14Z</time>
      </trkpt>
      <trkpt lat="43.7299" lon="3.4391">
        <ele>386.9</ele>
        <time>2016-12-31T13:10:18Z</time>
      </trkpt>
      <trkpt lat="43.72983" lon="3.43915">
        <ele>387.1</ele>
        <time>2016-12-31T13:10:21Z</time>
      </trkpt>
      <trkpt lat="43.72976" lon="3.43923">
        <ele>387.1</ele>
        <time>2016-12-31T13:10:25Z</time>
      </trkpt>
      <trkpt lat="43.72969" lon="3.43931">
        <ele>387.2</ele>
        <time>2016-12-31T13:10:29Z</time>
      </trkpt>
      <trkpt lat="43.72962" lon="3.4394">
        <ele>387.6</ele>
        <time>2016-12-31T13:10:33Z</time>
      </trkpt>
      <trkpt lat="43.72958" lon="3.43947">
        <ele>387.9</ele>
        <time>2016-12-31T13:10:36Z</time>
      </trkpt>
      <trkpt lat="43.72953" lon="3.43958">
        <ele>388.1</ele>
        <time>2016-12-31T13:10:40Z</time>
      </trkpt>
      <trkpt lat="43.7295" lon="3.43966">
        <ele>388.2</ele>
        <time>2016-12-31T13:10:43Z</time>
      </trkpt>
      <trkpt lat="43.72946" lon="3.43978">
        <ele>388.5</ele>
        <time>2016-12-31T13:10:47Z</time>
      </trkpt>
      <trkpt lat="43.72944" lon="3.43989">
        <ele>389.1</ele>
        <time>2016-12-31T13:10:51Z</time>
      </trkpt>
      <trkpt lat="43.72942" lon="3.44001">
        <ele>389.7</ele>
        <time>2016-12-31T13:10:55Z</time>
      </trkpt>
      <trkpt lat="43.72941" lon="3.44012">
        <ele>390.5</ele>
        <time>2016-12-31T13:10:59Z</time>
      </trkpt>
      <trkpt lat="43.72943" lon="3.44023">
        <ele>391.1</ele>
        <time>2016-12-31T13:11:02Z</time>
      </trkpt>
      <trkpt lat="43.72945" lon="3.44034">
        <ele>391.8</ele>
        <time>2016-12-31T13:11:05Z</time>
      </trkpt>
      <trkpt lat="43.72948" lon="3.44043">
        <ele>392.7</ele>
        <time>2016-12-31T13:11:09Z</time>
      </trkpt>
      <trkpt lat="43.7295" lon="3.44054">
        <ele>393.7</ele>
        <time>2016-12-31T13:11:13Z</time>
      </trkpt>
      <trkpt lat="43.7295" lon="3.44066">
        <ele>394.5</ele>
        <time>2016-12-31T13:11:17Z</time>
      </trkpt>
      <trkpt lat="43.72951" lon="3.44078">
        <ele>395.5</ele>
        <time>2016-12-31T13:11:22Z</time>
      </trkpt>
      <trkpt lat="43.72951" lon="3.4409">
        <ele>396.5</ele>
        <time>2016-12-31T13:11:27Z</time>
      </trkpt>
      <trkpt lat="43.72952" lon="3.441">
        <ele>397</ele>
        <time>2016-12-31T13:11:31Z</time>
      </trkpt>
      <trkpt lat="43.72951" lon="3.44112">
        <ele>398.3</ele>
        <time>2016-12-31T13:11:36Z</time>
      </trkpt>
      <trkpt lat="43.7295" lon="3.44122">
        <ele>399.5</ele>
        <time>2016-12-31T13:11:41Z</time>
      </trkpt>
      <trkpt lat="43.72949" lon="3.44134">
        <ele>400.8</ele>
        <time>2016-12-31T13:11:45Z</time>
      </trkpt>
      <trkpt lat="43.72949" lon="3.44144">
        <ele>402.2</ele>
        <time>2016-12-31T13:11:50Z</time>
      </trkpt>
      <trkpt lat="43.72948" lon="3.44155">
        <ele>403.3</ele>
        <time>2016-12-31T13:11:55Z</time>
      </trkpt>
      <trkpt lat="43.72945" lon="3.44167">
        <ele>404.3</ele>
        <time>2016-12-31T13:12:00Z</time>
      </trkpt>
      <trkpt lat="43.72942" lon="3.44176">
        <ele>405.4</ele>
        <time>2016-12-31T13:12:04Z</time>
      </trkpt>
      <trkpt lat="43.72938" lon="3.44187">
        <ele>406.5</ele>
        <time>2016-12-31T13:12:08Z</time>
      </trkpt>
      <trkpt lat="43.72933" lon="3.44198">
        <ele>407.7</ele>
        <time>2016-12-31T13:12:13Z</time>
      </trkpt>
      <trkpt lat="43.72928" lon="3.44206">
        <ele>408.7</ele>
        <time>2016-12-31T13:12:17Z</time>
      </trkpt>
      <trkpt lat="43.72922" lon="3.44213">
        <ele>409.2</ele>
        <time>2016-12-31T13:12:20Z</time>
      </trkpt>
      <trkpt lat="43.72915" lon="3.44223">
        <ele>410</ele>
        <time>2016-12-31T13:12:24Z</time>
      </trkpt>
      <trkpt lat="43.72911" lon="3.44232">
        <ele>410.4</ele>
        <time>2016-12-31T13:12:27Z</time>
      </trkpt>
      <trkpt lat="43.72907" lon="3.44242">
        <ele>410.7</ele>
        <time>2016-12-31T13:12:30Z</time>
      </trkpt>
      <trkpt lat="43.72901" lon="3.44252">
        <ele>411</ele>
        <time>2016-12-31T13:12:34Z</time>
      </trkpt>
      <trkpt lat="43.72897" lon="3.44262">
        <ele>411.3</ele>
        <time>2016-12-31T13:12:37Z</time>
      </trkpt>
      <trkpt lat="43.72894" lon="3.44271">
        <ele>411.4</ele>
        <time>2016-12-31T13:12:40Z</time>
      </trkpt>
      <trkpt lat="43.7289" lon="3.4428">
        <ele>411.5</ele>
        <time>2016-12-31T13:12:43Z</time>
      </trkpt>
      <trkpt lat="43.72885" lon="3.44289">
        <ele>411.8</ele>
        <time>2016-12-31T13:12:47Z</time>
      </trkpt>
      <trkpt lat="43.72878" lon="3.44299">
        <ele>412.4</ele>
        <time>2016-12-31T13:12:51Z</time>
      </trkpt>
      <trkpt lat="43.72873" lon="3.44306">
        <ele>412.9</ele>
        <time>2016-12-31T13:12:54Z</time>
      </trkpt>
      <trkpt lat="43.72865" lon="3.44316">
        <ele>413.8</ele>
        <time>2016-12-31T13:12:58Z</time>
      </trkpt>
      <trkpt lat="43.72858" lon="3.44324">
        <ele>414.6</ele>
        <time>2016-12-31T13:13:02Z</time>
      </trkpt>
      <trkpt lat="43.72853" lon="3.44332">
        <ele>415.4</ele>
        <time>2016-12-31T13:13:06Z</time>
      </trkpt>
      <trkpt lat="43.72846" lon="3.44342">
        <ele>416.1</ele>
        <time>2016-12-31T13:13:10Z</time>
      </trkpt>
      <trkpt lat="43.7284" lon="3.44351">
        <ele>416.8</ele>
        <time>2016-12-31T13:13:14Z</time>
      </trkpt>
      <trkpt lat="43.72835" lon="3.44358">
        <ele>417.6</ele>
        <time>2016-12-31T13:13:18Z</time>
      </trkpt>
      <trkpt lat="43.72829" lon="3.44368">
        <ele>418.2</ele>
        <time>2016-12-31T13:13:22Z</time>
      </trkpt>
      <trkpt lat="43.72823" lon="3.44379">
        <ele>418.6</ele>
        <time>2016-12-31T13:13:26Z</time>
      </trkpt>
      <trkpt lat="43.72818" lon="3.4439">
        <ele>418.8</ele>
        <time>2016-12-31T13:13:29Z</time>
      </trkpt>
      <trkpt lat="43.72813" lon="3.44399">
        <ele>419.2</ele>
        <time>2016-12-31T13:13:33Z</time>
      </trkpt>
      <trkpt lat="43.72806" lon="3.44408">
        <ele>419.6</ele>
        <time>2016-12-31T13:13:37Z</time>
      </trkpt>
      <trkpt lat="43.72799" lon="3.44416">
        <ele>420</ele>
        <time>2016-12-31T13:13:41Z</time>
      </trkpt>
      <trkpt lat="43.72792" lon="3.44422">
        <ele>420</ele>
        <time>2016-12-31T13:13:45Z</time>
      </trkpt>
      <trkpt lat="43.72785" lon="3.44427">
        <ele>420.2</ele>
        <time>2016-12-31T13:13:49Z</time>
      </trkpt>
      <trkpt lat="43.72779" lon="3.44435">
        <ele>420.5</ele>
        <time>2016-12-31T13:13:53Z</time>
      </trkpt>
      <trkpt lat="43.72773" lon="3.44443">
        <ele>420.6</ele>
        <time>2016-12-31T13:13:57Z</time>
      </trkpt>
      <trkpt lat="43.72767" lon="3.44451">
        <ele>420.9</ele>
        <time>2016-12-31T13:14:00Z</time>
      </trkpt>
      <trkpt lat="43.7276" lon="3.44458">
        <ele>421.2</ele>
        <time>2016-12-31T13:14:04Z</time>
      </trkpt>
      <trkpt lat="43.72753" lon="3.44464">
        <ele>421.6</ele>
        <time>2016-12-31T13:14:08Z</time>
      </trkpt>
      <trkpt lat="43.72744" lon="3.44468">
        <ele>421.9</ele>
        <time>2016-12-31T13:14:12Z</time>
      </trkpt>
      <trkpt lat="43.72735" lon="3.44469">
        <ele>421.8</ele>
        <time>2016-12-31T13:14:16Z</time>
      </trkpt>
      <trkpt lat="43.72728" lon="3.44468">
        <ele>421.7</ele>
        <time>2016-12-31T13:14:19Z</time>
      </trkpt>
      <trkpt lat="43.7272" lon="3.44466">
        <ele>421.7</ele>
        <time>2016-12-31T13:14:22Z</time>
      </trkpt>
      <trkpt lat="43.72712" lon="3.44463">
        <ele>421.9</ele>
        <time>2016-12-31T13:14:25Z</time>
      </trkpt>
      <trkpt lat="43.72705" lon="3.44458">
        <ele>422.1</ele>
        <time>2016-12-31T13:14:28Z</time>
      </trkpt>
      <trkpt lat="43.72697" lon="3.44449">
        <ele>422.4</ele>
        <time>2016-12-31T13:14:31Z</time>
      </trkpt>
      <trkpt lat="43.72689" lon="3.44441">
        <ele>422.6</ele>
        <time>2016-12-31T13:14:34Z</time>
      </trkpt>
      <trkpt lat="43.72681" lon="3.44435">
        <ele>422.8</ele>
        <time>2016-12-31T13:14:37Z</time>
      </trkpt>
      <trkpt lat="43.72673" lon="3.4443">
        <ele>422.9</ele>
        <time>2016-12-31T13:14:40Z</time>
      </trkpt>
      <trkpt lat="43.72666" lon="3.44425">
        <ele>423.1</ele>
        <time>2016-12-31T13:14:43Z</time>
      </trkpt>
      <trkpt lat="43.72657" lon="3.4442">
        <ele>423.5</ele>
        <time>2016-12-31T13:14:46Z</time>
      </trkpt>
      <trkpt lat="43.72649" lon="3.44418">
        <ele>423.8</ele>
        <time>2016-12-31T13:14:49Z</time>
      </trkpt>
      <trkpt lat="43.72641" lon="3.44418">
        <ele>424</ele>
        <time>2016-12-31T13:14:52Z</time>
      </trkpt>
      <trkpt lat="43.72634" lon="3.44418">
        <ele>424.2</ele>
        <time>2016-12-31T13:14:55Z</time>
      </trkpt>
      <trkpt lat="43.72625" lon="3.44417">
        <ele>424.6</ele>
        <time>2016-12-31T13:14:59Z</time>
      </trkpt>
      <trkpt lat="43.72615" lon="3.44416">
        <ele>425</ele>
        <time>2016-12-31T13:15:03Z</time>
      </trkpt>
      <trkpt lat="43.72607" lon="3.44413">
        <ele>425.3</ele>
        <time>2016-12-31T13:15:07Z</time>
      </trkpt>
      <trkpt lat="43.72599" lon="3.44409">
        <ele>425.9</ele>
        <time>2016-12-31T13:15:11Z</time>
      </trkpt>
      <trkpt lat="43.72591" lon="3.44404">
        <ele>426.5</ele>
        <time>2016-12-31T13:15:15Z</time>
      </trkpt>
      <trkpt lat="43.72583" lon="3.44397">
        <ele>426.8</ele>
        <time>2016-12-31T13:15:18Z</time>
      </trkpt>
      <trkpt lat="43.72576" lon="3.44392">
        <ele>427</ele>
        <time>2016-12-31T13:15:21Z</time>
      </trkpt>
      <trkpt lat="43.72568" lon="3.44386">
        <ele>427.3</ele>
        <time>2016-12-31T13:15:25Z</time>
      </trkpt>
      <trkpt lat="43.7256" lon="3.44383">
        <ele>427.7</ele>
        <time>2016-12-31T13:15:29Z</time>
      </trkpt>
      <trkpt lat="43.72551" lon="3.4438">
        <ele>428.2</ele>
        <time>2016-12-31T13:15:33Z</time>
      </trkpt>
      <trkpt lat="43.72544" lon="3.44381">
        <ele>428.7</ele>
        <time>2016-12-31T13:15:36Z</time>
      </trkpt>
      <trkpt lat="43.72535" lon="3.44383">
        <ele>429</ele>
        <time>2016-12-31T13:15:39Z</time>
      </trkpt>
      <trkpt lat="43.72527" lon="3.44386">
        <ele>429.3</ele>
        <time>2016-12-31T13:15:42Z</time>
      </trkpt>
      <trkpt lat="43.72519" lon="3.44389">
        <ele>429.6</ele>
        <time>2016-12-31T13:15:46Z</time>
      </trkpt>
      <trkpt lat="43.72511" lon="3.44392">
        <ele>429.8</ele>
        <time>2016-12-31T13:15:50Z</time>
      </trkpt>
      <trkpt lat="43.72503" lon="3.44397">
        <ele>430</ele>
        <time>2016-12-31T13:15:54Z</time>
      </trkpt>
      <trkpt lat="43.72503" lon="3.44408">
        <ele>430.2</ele>
        <time>2016-12-31T13:15:58Z</time>
      </trkpt>
      <trkpt lat="43.72512" lon="3.44409">
        <ele>430.7</ele>
        <time>2016-12-31T13:16:02Z</time>
      </trkpt>
      <trkpt lat="43.72522" lon="3.44411">
        <ele>431</ele>
        <time>2016-12-31T13:16:06Z</time>
      </trkpt>
      <trkpt lat="43.72529" lon="3.44414">
        <ele>431.6</ele>
        <time>2016-12-31T13:16:10Z</time>
      </trkpt>
      <trkpt lat="43.72537" lon="3.4442">
        <ele>432.3</ele>
        <time>2016-12-31T13:16:14Z</time>
      </trkpt>
      <trkpt lat="43.72545" lon="3.44425">
        <ele>432.8</ele>
        <time>2016-12-31T13:16:18Z</time>
      </trkpt>
      <trkpt lat="43.72552" lon="3.4443">
        <ele>433</ele>
        <time>2016-12-31T13:16:21Z</time>
      </trkpt>
      <trkpt lat="43.72559" lon="3.44436">
        <ele>433.4</ele>
        <time>2016-12-31T13:16:25Z</time>
      </trkpt>
      <trkpt lat="43.72567" lon="3.44442">
        <ele>434</ele>
        <time>2016-12-31T13:16:30Z</time>
      </trkpt>
      <trkpt lat="43.72573" lon="3.44448">
        <ele>434.6</ele>
        <time>2016-12-31T13:16:34Z</time>
      </trkpt>
      <trkpt lat="43.72579" lon="3.44456">
        <ele>435.3</ele>
        <time>2016-12-31T13:16:38Z</time>
      </trkpt>
      <trkpt lat="43.72586" lon="3.44462">
        <ele>436.2</ele>
        <time>2016-12-31T13:16:42Z</time>
      </trkpt>
      <trkpt lat="43.72593" lon="3.44468">
        <ele>437.3</ele>
        <time>2016-12-31T13:16:46Z</time>
      </trkpt>
      <trkpt lat="43.72599" lon="3.44475">
        <ele>438.3</ele>
        <time>2016-12-31T13:16:50Z</time>
      </trkpt>
      <trkpt lat="43.72605" lon="3.44482">
        <ele>439.3</ele>
        <time>2016-12-31T13:16:54Z</time>
      </trkpt>
      <trkpt lat="43.72609" lon="3.44492">
        <ele>440.2</ele>
        <time>2016-12-31T13:16:58Z</time>
      </trkpt>
      <trkpt lat="43.7261" lon="3.44503">
        <ele>440.7</ele>
        <time>2016-12-31T13:17:02Z</time>
      </trkpt>
      <trkpt lat="43.72609" lon="3.44513">
        <ele>441.3</ele>
        <time>2016-12-31T13:17:07Z</time>
      </trkpt>
      <trkpt lat="43.72605" lon="3.44525">
        <ele>442.6</ele>
        <time>2016-12-31T13:17:12Z</time>
      </trkpt>
      <trkpt lat="43.72602" lon="3.44534">
        <ele>443.6</ele>
        <time>2016-12-31T13:17:16Z</time>
      </trkpt>
      <trkpt lat="43.726" lon="3.44546">
        <ele>444.5</ele>
        <time>2016-12-31T13:17:20Z</time>
      </trkpt>
      <trkpt lat="43.72604" lon="3.44555">
        <ele>445.2</ele>
        <time>2016-12-31T13:17:23Z</time>
      </trkpt>
      <trkpt lat="43.7261" lon="3.44565">
        <ele>446</ele>
        <time>2016-12-31T13:17:28Z</time>
      </trkpt>
      <trkpt lat="43.72616" lon="3.44573">
        <ele>446.8</ele>
        <time>2016-12-31T13:17:32Z</time>
      </trkpt>
      <trkpt lat="43.72623" lon="3.44579">
        <ele>448</ele>
        <time>2016-12-31T13:17:36Z</time>
      </trkpt>
      <trkpt lat="43.7263" lon="3.44586">
        <ele>449.1</ele>
        <time>2016-12-31T13:17:40Z</time>
      </trkpt>
      <trkpt lat="43.72638" lon="3.44592">
        <ele>449.9</ele>
        <time>2016-12-31T13:17:44Z</time>
      </trkpt>
      <trkpt lat="43.72646" lon="3.44597">
        <ele>450.7</ele>
        <time>2016-12-31T13:17:48Z</time>
      </trkpt>
      <trkpt lat="43.72653" lon="3.44602">
        <ele>451.7</ele>
        <time>2016-12-31T13:17:52Z</time>
      </trkpt>
      <trkpt lat="43.7266" lon="3.4461">
        <ele>452.4</ele>
        <time>2016-12-31T13:17:56Z</time>
      </trkpt>
      <trkpt lat="43.72666" lon="3.44618">
        <ele>452.8</ele>
        <time>2016-12-31T13:18:00Z</time>
      </trkpt>
      <trkpt lat="43.72672" lon="3.44628">
        <ele>453.1</ele>
        <time>2016-12-31T13:18:04Z</time>
      </trkpt>
      <trkpt lat="43.72678" lon="3.44636">
        <ele>453.4</ele>
        <time>2016-12-31T13:18:08Z</time>
      </trkpt>
      <trkpt lat="43.72684" lon="3.44643">
        <ele>454.1</ele>
        <time>2016-12-31T13:18:12Z</time>
      </trkpt>
      <trkpt lat="43.72692" lon="3.44649">
        <ele>455</ele>
        <time>2016-12-31T13:18:16Z</time>
      </trkpt>
      <trkpt lat="43.727" lon="3.44654">
        <ele>455.5</ele>
        <time>2016-12-31T13:18:20Z</time>
      </trkpt>
      <trkpt lat="43.72707" lon="3.4466">
        <ele>456</ele>
        <time>2016-12-31T13:18:24Z</time>
      </trkpt>
      <trkpt lat="43.72716" lon="3.44664">
        <ele>456.7</ele>
        <time>2016-12-31T13:18:28Z</time>
      </trkpt>
      <trkpt lat="43.72724" lon="3.4467">
        <ele>457.4</ele>
        <time>2016-12-31T13:18:32Z</time>
      </trkpt>
      <trkpt lat="43.72732" lon="3.44672">
        <ele>458</ele>
        <time>2016-12-31T13:18:35Z</time>
      </trkpt>
      <trkpt lat="43.7274" lon="3.44672">
        <ele>458.4</ele>
        <time>2016-12-31T13:18:38Z</time>
      </trkpt>
      <trkpt lat="43.72748" lon="3.44671">
        <ele>458.7</ele>
        <time>2016-12-31T13:18:42Z</time>
      </trkpt>
      <trkpt lat="43.72756" lon="3.4467">
        <ele>458.9</ele>
        <time>2016-12-31T13:18:46Z</time>
      </trkpt>
      <trkpt lat="43.72764" lon="3.4467">
        <ele>459.2</ele>
        <time>2016-12-31T13:18:50Z</time>
      </trkpt>
      <trkpt lat="43.72771" lon="3.44671">
        <ele>459.3</ele>
        <time>2016-12-31T13:18:53Z</time>
      </trkpt>
      <trkpt lat="43.7278" lon="3.44668">
        <ele>459.5</ele>
        <time>2016-12-31T13:18:58Z</time>
      </trkpt>
      <trkpt lat="43.72787" lon="3.44666">
        <ele>459.6</ele>
        <time>2016-12-31T13:19:01Z</time>
      </trkpt>
      <trkpt lat="43.72796" lon="3.44665">
        <ele>460</ele>
        <time>2016-12-31T13:19:05Z</time>
      </trkpt>
      <trkpt lat="43.72803" lon="3.44665">
        <ele>460.4</ele>
        <time>2016-12-31T13:19:09Z</time>
      </trkpt>
      <trkpt lat="43.7281" lon="3.44662">
        <ele>460.7</ele>
        <time>2016-12-31T13:19:12Z</time>
      </trkpt>
      <trkpt lat="43.72818" lon="3.4466">
        <ele>461.1</ele>
        <time>2016-12-31T13:19:16Z</time>
      </trkpt>
      <trkpt lat="43.72825" lon="3.44656">
        <ele>461.2</ele>
        <time>2016-12-31T13:19:20Z</time>
      </trkpt>
      <trkpt lat="43.72835" lon="3.44652">
        <ele>461.5</ele>
        <time>2016-12-31T13:19:24Z</time>
      </trkpt>
      <trkpt lat="43.72842" lon="3.44646">
        <ele>461.5</ele>
        <time>2016-12-31T13:19:28Z</time>
      </trkpt>
      <trkpt lat="43.72849" lon="3.44639">
        <ele>461.7</ele>
        <time>2016-12-31T13:19:31Z</time>
      </trkpt>
      <trkpt lat="43.72856" lon="3.44635">
        <ele>462.1</ele>
        <time>2016-12-31T13:19:34Z</time>
      </trkpt>
      <trkpt lat="43.72865" lon="3.4463">
        <ele>462.5</ele>
        <time>2016-12-31T13:19:38Z</time>
      </trkpt>
      <trkpt lat="43.72873" lon="3.44628">
        <ele>463</ele>
        <time>2016-12-31T13:19:44Z</time>
      </trkpt>
      <trkpt lat="43.7288" lon="3.44627">
        <ele>463.1</ele>
        <time>2016-12-31T13:19:47Z</time>
      </trkpt>
      <trkpt lat="43.7289" lon="3.44624">
        <ele>463.4</ele>
        <time>2016-12-31T13:19:50Z</time>
      </trkpt>
      <trkpt lat="43.72897" lon="3.44619">
        <ele>463.9</ele>
        <time>2016-12-31T13:19:53Z</time>
      </trkpt>
      <trkpt lat="43.72905" lon="3.44617">
        <ele>464.2</ele>
        <time>2016-12-31T13:19:56Z</time>
      </trkpt>
      <trkpt lat="43.72911" lon="3.44613">
        <ele>464.6</ele>
        <time>2016-12-31T13:20:00Z</time>
      </trkpt>
      <trkpt lat="43.72918" lon="3.4461">
        <ele>464.8</ele>
        <time>2016-12-31T13:20:04Z</time>
      </trkpt>
      <trkpt lat="43.72927" lon="3.44607">
        <ele>465.4</ele>
        <time>2016-12-31T13:20:08Z</time>
      </trkpt>
      <trkpt lat="43.72936" lon="3.44602">
        <ele>466</ele>
        <time>2016-12-31T13:20:13Z</time>
      </trkpt>
      <trkpt lat="43.72943" lon="3.44599">
        <ele>466.4</ele>
        <time>2016-12-31T13:20:16Z</time>
      </trkpt>
      <trkpt lat="43.72951" lon="3.44594">
        <ele>466.8</ele>
        <time>2016-12-31T13:20:20Z</time>
      </trkpt>
      <trkpt lat="43.7296" lon="3.44589">
        <ele>467.4</ele>
        <time>2016-12-31T13:20:23Z</time>
      </trkpt>
      <trkpt lat="43.72967" lon="3.44584">
        <ele>468</ele>
        <time>2016-12-31T13:20:27Z</time>
      </trkpt>
      <trkpt lat="43.72975" lon="3.44581">
        <ele>468.8</ele>
        <time>2016-12-31T13:20:31Z</time>
      </trkpt>
      <trkpt lat="43.72984" lon="3.44579">
        <ele>469.6</ele>
        <time>2016-12-31T13:20:35Z</time>
      </trkpt>
      <trkpt lat="43.72993" lon="3.44575">
        <ele>470.6</ele>
        <time>2016-12-31T13:20:39Z</time>
      </trkpt>
      <trkpt lat="43.73001" lon="3.44573">
        <ele>471.4</ele>
        <time>2016-12-31T13:20:42Z</time>
      </trkpt>
      <trkpt lat="43.73008" lon="3.44571">
        <ele>472.2</ele>
        <time>2016-12-31T13:20:45Z</time>
      </trkpt>
      <trkpt lat="43.73017" lon="3.44572">
        <ele>473.1</ele>
        <time>2016-12-31T13:20:49Z</time>
      </trkpt>
      <trkpt lat="43.73025" lon="3.44576">
        <ele>474.1</ele>
        <time>2016-12-31T13:20:53Z</time>
      </trkpt>
      <trkpt lat="43.73031" lon="3.44584">
        <ele>475.2</ele>
        <time>2016-12-31T13:20:57Z</time>
      </trkpt>
      <trkpt lat="43.73038" lon="3.44595">
        <ele>476</ele>
        <time>2016-12-31T13:21:01Z</time>
      </trkpt>
      <trkpt lat="43.73046" lon="3.44602">
        <ele>476.9</ele>
        <time>2016-12-31T13:21:05Z</time>
      </trkpt>
      <trkpt lat="43.73053" lon="3.4461">
        <ele>478</ele>
        <time>2016-12-31T13:21:09Z</time>
      </trkpt>
      <trkpt lat="43.73057" lon="3.44621">
        <ele>478.9</ele>
        <time>2016-12-31T13:21:13Z</time>
      </trkpt>
      <trkpt lat="43.73062" lon="3.4463">
        <ele>479.6</ele>
        <time>2016-12-31T13:21:17Z</time>
      </trkpt>
      <trkpt lat="43.73067" lon="3.44639">
        <ele>480</ele>
        <time>2016-12-31T13:21:20Z</time>
      </trkpt>
      <trkpt lat="43.73072" lon="3.44649">
        <ele>480.3</ele>
        <time>2016-12-31T13:21:24Z</time>
      </trkpt>
      <trkpt lat="43.73076" lon="3.44657">
        <ele>480.8</ele>
        <time>2016-12-31T13:21:28Z</time>
      </trkpt>
      <trkpt lat="43.73081" lon="3.44669">
        <ele>481.3</ele>
        <time>2016-12-31T13:21:32Z</time>
      </trkpt>
      <trkpt lat="43.73083" lon="3.44681">
        <ele>482</ele>
        <time>2016-12-31T13:21:36Z</time>
      </trkpt>
      <trkpt lat="43.73084" lon="3.44693">
        <ele>482.6</ele>
        <time>2016-12-31T13:21:40Z</time>
      </trkpt>
      <trkpt lat="43.73087" lon="3.44704">
        <ele>483.4</ele>
        <time>2016-12-31T13:21:44Z</time>
      </trkpt>
      <trkpt lat="43.7309" lon="3.44716">
        <ele>484.4</ele>
        <time>2016-12-31T13:21:48Z</time>
      </trkpt>
      <trkpt lat="43.73093" lon="3.44725">
        <ele>485</ele>
        <time>2016-12-31T13:21:51Z</time>
      </trkpt>
      <trkpt lat="43.73095" lon="3.44734">
        <ele>485.4</ele>
        <time>2016-12-31T13:21:54Z</time>
      </trkpt>
      <trkpt lat="43.73097" lon="3.44746">
        <ele>485.9</ele>
        <time>2016-12-31T13:21:58Z</time>
      </trkpt>
      <trkpt lat="43.73096" lon="3.44759">
        <ele>486.4</ele>
        <time>2016-12-31T13:22:02Z</time>
      </trkpt>
      <trkpt lat="43.73096" lon="3.44772">
        <ele>486.8</ele>
        <time>2016-12-31T13:22:06Z</time>
      </trkpt>
      <trkpt lat="43.73097" lon="3.44783">
        <ele>487.2</ele>
        <time>2016-12-31T13:22:09Z</time>
      </trkpt>
      <trkpt lat="43.73098" lon="3.44792">
        <ele>487.5</ele>
        <time>2016-12-31T13:22:12Z</time>
      </trkpt>
      <trkpt lat="43.73102" lon="3.44804">
        <ele>487.6</ele>
        <time>2016-12-31T13:22:15Z</time>
      </trkpt>
      <trkpt lat="43.73105" lon="3.44814">
        <ele>488</ele>
        <time>2016-12-31T13:22:19Z</time>
      </trkpt>
      <trkpt lat="43.7311" lon="3.44822">
        <ele>488.3</ele>
        <time>2016-12-31T13:22:22Z</time>
      </trkpt>
      <trkpt lat="43.73115" lon="3.44829">
        <ele>488.8</ele>
        <time>2016-12-31T13:22:25Z</time>
      </trkpt>
      <trkpt lat="43.73122" lon="3.44837">
        <ele>489.4</ele>
        <time>2016-12-31T13:22:29Z</time>
      </trkpt>
      <trkpt lat="43.73129" lon="3.44843">
        <ele>489.8</ele>
        <time>2016-12-31T13:22:32Z</time>
      </trkpt>
      <trkpt lat="43.73136" lon="3.4485">
        <ele>490</ele>
        <time>2016-12-31T13:22:34Z</time>
      </trkpt>
      <trkpt lat="43.73143" lon="3.4486">
        <ele>490.3</ele>
        <time>2016-12-31T13:22:37Z</time>
      </trkpt>
      <trkpt lat="43.73139" lon="3.44871">
        <ele>490.7</ele>
        <time>2016-12-31T13:22:42Z</time>
      </trkpt>
      <trkpt lat="43.73132" lon="3.44873">
        <ele>490.9</ele>
        <time>2016-12-31T13:22:45Z</time>
      </trkpt>
      <trkpt lat="43.73124" lon="3.44876">
        <ele>491.2</ele>
        <time>2016-12-31T13:22:49Z</time>
      </trkpt>
      <trkpt lat="43.73115" lon="3.44873">
        <ele>491.6</ele>
        <time>2016-12-31T13:22:54Z</time>
      </trkpt>
      <trkpt lat="43.73107" lon="3.4487">
        <ele>492.2</ele>
        <time>2016-12-31T13:23:00Z</time>
      </trkpt>
      <trkpt lat="43.73101" lon="3.44868">
        <ele>492.8</ele>
        <time>2016-12-31T13:23:04Z</time>
      </trkpt>
      <trkpt lat="43.73092" lon="3.44867">
        <ele>493.3</ele>
        <time>2016-12-31T13:23:09Z</time>
      </trkpt>
      <trkpt lat="43.73084" lon="3.44864">
        <ele>494.2</ele>
        <time>2016-12-31T13:23:15Z</time>
      </trkpt>
      <trkpt lat="43.73075" lon="3.44864">
        <ele>495</ele>
        <time>2016-12-31T13:23:20Z</time>
      </trkpt>
      <trkpt lat="43.73069" lon="3.44864">
        <ele>495.9</ele>
        <time>2016-12-31T13:23:25Z</time>
      </trkpt>
      <trkpt lat="43.73061" lon="3.44861">
        <ele>497</ele>
        <time>2016-12-31T13:23:30Z</time>
      </trkpt>
      <trkpt lat="43.73053" lon="3.44861">
        <ele>498.5</ele>
        <time>2016-12-31T13:23:36Z</time>
      </trkpt>
      <trkpt lat="43.73045" lon="3.4486">
        <ele>500.2</ele>
        <time>2016-12-31T13:23:42Z</time>
      </trkpt>
      <trkpt lat="43.73036" lon="3.44858">
        <ele>501.3</ele>
        <time>2016-12-31T13:23:47Z</time>
      </trkpt>
      <trkpt lat="43.73027" lon="3.44857">
        <ele>502.3</ele>
        <time>2016-12-31T13:23:52Z</time>
      </trkpt>
      <trkpt lat="43.7302" lon="3.44855">
        <ele>503</ele>
        <time>2016-12-31T13:23:56Z</time>
      </trkpt>
      <trkpt lat="43.73011" lon="3.44854">
        <ele>503.9</ele>
        <time>2016-12-31T13:24:01Z</time>
      </trkpt>
      <trkpt lat="43.73004" lon="3.44855">
        <ele>504.8</ele>
        <time>2016-12-31T13:24:05Z</time>
      </trkpt>
      <trkpt lat="43.72997" lon="3.44855">
        <ele>505.6</ele>
        <time>2016-12-31T13:24:09Z</time>
      </trkpt>
      <trkpt lat="43.72989" lon="3.44857">
        <ele>506.3</ele>
        <time>2016-12-31T13:24:13Z</time>
      </trkpt>
      <trkpt lat="43.72981" lon="3.44858">
        <ele>507</ele>
        <time>2016-12-31T13:24:17Z</time>
      </trkpt>
      <trkpt lat="43.72971" lon="3.4486">
        <ele>507.7</ele>
        <time>2016-12-31T13:24:21Z</time>
      </trkpt>
      <trkpt lat="43.72963" lon="3.44861">
        <ele>508.3</ele>
        <time>2016-12-31T13:24:25Z</time>
      </trkpt>
      <trkpt lat="43.72955" lon="3.44861">
        <ele>509.1</ele>
        <time>2016-12-31T13:24:29Z</time>
      </trkpt>
      <trkpt lat="43.72946" lon="3.4486">
        <ele>509.8</ele>
        <time>2016-12-31T13:24:33Z</time>
      </trkpt>
      <trkpt lat="43.72939" lon="3.44857">
        <ele>510.3</ele>
        <time>2016-12-31T13:24:37Z</time>
      </trkpt>
      <trkpt lat="43.72931" lon="3.44855">
        <ele>511.1</ele>
        <time>2016-12-31T13:24:41Z</time>
      </trkpt>
      <trkpt lat="43.72923" lon="3.44852">
        <ele>512</ele>
        <time>2016-12-31T13:24:45Z</time>
      </trkpt>
      <trkpt lat="43.72916" lon="3.44849">
        <ele>512.5</ele>
        <time>2016-12-31T13:24:48Z</time>
      </trkpt>
      <trkpt lat="43.72909" lon="3.44844">
        <ele>512.9</ele>
        <time>2016-12-31T13:24:52Z</time>
      </trkpt>
      <trkpt lat="43.72903" lon="3.44839">
        <ele>513.2</ele>
        <time>2016-12-31T13:24:55Z</time>
      </trkpt>
      <trkpt lat="43.72893" lon="3.44835">
        <ele>513.5</ele>
        <time>2016-12-31T13:24:58Z</time>
      </trkpt>
      <trkpt lat="43.72882" lon="3.44835">
        <ele>514.8</ele>
        <time>2016-12-31T13:25:00Z</time>
      </trkpt>
      <trkpt lat="43.72872" lon="3.4484">
        <ele>515.3</ele>
        <time>2016-12-31T13:25:02Z</time>
      </trkpt>
      <trkpt lat="43.72862" lon="3.44843">
        <ele>515.9</ele>
        <time>2016-12-31T13:25:04Z</time>
      </trkpt>
      <trkpt lat="43.7285" lon="3.44845">
        <ele>516.5</ele>
        <time>2016-12-31T13:25:06Z</time>
      </trkpt>
      <trkpt lat="43.72838" lon="3.44846">
        <ele>516</ele>
        <time>2016-12-31T13:25:08Z</time>
      </trkpt>
      <trkpt lat="43.72825" lon="3.44845">
        <ele>515.4</ele>
        <time>2016-12-31T13:25:10Z</time>
      </trkpt>
      <trkpt lat="43.72813" lon="3.44843">
        <ele>515</ele>
        <time>2016-12-31T13:25:12Z</time>
      </trkpt>
      <trkpt lat="43.728" lon="3.44841">
        <ele>513.6</ele>
        <time>2016-12-31T13:25:14Z</time>
      </trkpt>
      <trkpt lat="43.72792" lon="3.4484">
        <ele>512.3</ele>
        <time>2016-12-31T13:25:15Z</time>
      </trkpt>
      <trkpt lat="43.72784" lon="3.44838">
        <ele>510.9</ele>
        <time>2016-12-31T13:25:16Z</time>
      </trkpt>
      <trkpt lat="43.72771" lon="3.44837">
        <ele>508.9</ele>
        <time>2016-12-31T13:25:18Z</time>
      </trkpt>
      <trkpt lat="43.72758" lon="3.44834">
        <ele>508.9</ele>
        <time>2016-12-31T13:25:20Z</time>
      </trkpt>
      <trkpt lat="43.72749" lon="3.44832">
        <ele>509</ele>
        <time>2016-12-31T13:25:22Z</time>
      </trkpt>
      <trkpt lat="43.72739" lon="3.44835">
        <ele>508.5</ele>
        <time>2016-12-31T13:25:24Z</time>
      </trkpt>
      <trkpt lat="43.7273" lon="3.44837">
        <ele>508.4</ele>
        <time>2016-12-31T13:25:26Z</time>
      </trkpt>
      <trkpt lat="43.72719" lon="3.44837">
        <ele>508.5</ele>
        <time>2016-12-31T13:25:29Z</time>
      </trkpt>
      <trkpt lat="43.72711" lon="3.44835">
        <ele>508.5</ele>
        <time>2016-12-31T13:25:31Z</time>
      </trkpt>
      <trkpt lat="43.72703" lon="3.44835">
        <ele>508.6</ele>
        <time>2016-12-31T13:25:33Z</time>
      </trkpt>
      <trkpt lat="43.72694" lon="3.44834">
        <ele>508.8</ele>
        <time>2016-12-31T13:25:36Z</time>
      </trkpt>
      <trkpt lat="43.72686" lon="3.44832">
        <ele>509.2</ele>
        <time>2016-12-31T13:25:39Z</time>
      </trkpt>
      <trkpt lat="43.72677" lon="3.44833">
        <ele>509.6</ele>
        <time>2016-12-31T13:25:42Z</time>
      </trkpt>
      <trkpt lat="43.72668" lon="3.44834">
        <ele>510.8</ele>
        <time>2016-12-31T13:25:44Z</time>
      </trkpt>
      <trkpt lat="43.72658" lon="3.44835">
        <ele>513.1</ele>
        <time>2016-12-31T13:25:47Z</time>
      </trkpt>
      <trkpt lat="43.72649" lon="3.44834">
        <ele>514.9</ele>
        <time>2016-12-31T13:25:49Z</time>
      </trkpt>
      <trkpt lat="43.72639" lon="3.44832">
        <ele>515.7</ele>
        <time>2016-12-31T13:25:51Z</time>
      </trkpt>
      <trkpt lat="43.72631" lon="3.4483">
        <ele>515.8</ele>
        <time>2016-12-31T13:25:53Z</time>
      </trkpt>
      <trkpt lat="43.72624" lon="3.44828">
        <ele>515.7</ele>
        <time>2016-12-31T13:25:55Z</time>
      </trkpt>
      <trkpt lat="43.72614" lon="3.44828">
        <ele>515.1</ele>
        <time>2016-12-31T13:25:57Z</time>
      </trkpt>
      <trkpt lat="43.72605" lon="3.44828">
        <ele>514.6</ele>
        <time>2016-12-31T13:25:59Z</time>
      </trkpt>
      <trkpt lat="43.72597" lon="3.44828">
        <ele>514.6</ele>
        <time>2016-12-31T13:26:01Z</time>
      </trkpt>
      <trkpt lat="43.72586" lon="3.44825">
        <ele>514.4</ele>
        <time>2016-12-31T13:26:04Z</time>
      </trkpt>
      <trkpt lat="43.72579" lon="3.44821">
        <ele>514.2</ele>
        <time>2016-12-31T13:26:06Z</time>
      </trkpt>
      <trkpt lat="43.72567" lon="3.4482">
        <ele>513.8</ele>
        <time>2016-12-31T13:26:09Z</time>
      </trkpt>
      <trkpt lat="43.72559" lon="3.44819">
        <ele>514</ele>
        <time>2016-12-31T13:26:11Z</time>
      </trkpt>
      <trkpt lat="43.72552" lon="3.44817">
        <ele>514</ele>
        <time>2016-12-31T13:26:13Z</time>
      </trkpt>
      <trkpt lat="43.72544" lon="3.44816">
        <ele>514.6</ele>
        <time>2016-12-31T13:26:15Z</time>
      </trkpt>
      <trkpt lat="43.72535" lon="3.44816">
        <ele>515.6</ele>
        <time>2016-12-31T13:26:17Z</time>
      </trkpt>
      <trkpt lat="43.72525" lon="3.44816">
        <ele>516.6</ele>
        <time>2016-12-31T13:26:19Z</time>
      </trkpt>
      <trkpt lat="43.72514" lon="3.44817">
        <ele>516.5</ele>
        <time>2016-12-31T13:26:21Z</time>
      </trkpt>
      <trkpt lat="43.72504" lon="3.44818">
        <ele>515.3</ele>
        <time>2016-12-31T13:26:23Z</time>
      </trkpt>
      <trkpt lat="43.72494" lon="3.44818">
        <ele>513.9</ele>
        <time>2016-12-31T13:26:25Z</time>
      </trkpt>
      <trkpt lat="43.72482" lon="3.44817">
        <ele>513.2</ele>
        <time>2016-12-31T13:26:27Z</time>
      </trkpt>
      <trkpt lat="43.72469" lon="3.44816">
        <ele>512.6</ele>
        <time>2016-12-31T13:26:29Z</time>
      </trkpt>
      <trkpt lat="43.72459" lon="3.44814">
        <ele>511.7</ele>
        <time>2016-12-31T13:26:31Z</time>
      </trkpt>
      <trkpt lat="43.72449" lon="3.44812">
        <ele>511.5</ele>
        <time>2016-12-31T13:26:33Z</time>
      </trkpt>
      <trkpt lat="43.72441" lon="3.44811">
        <ele>511.7</ele>
        <time>2016-12-31T13:26:35Z</time>
      </trkpt>
      <trkpt lat="43.72433" lon="3.44811">
        <ele>511.9</ele>
        <time>2016-12-31T13:26:37Z</time>
      </trkpt>
      <trkpt lat="43.72426" lon="3.44816">
        <ele>513</ele>
        <time>2016-12-31T13:26:39Z</time>
      </trkpt>
      <trkpt lat="43.7242" lon="3.44821">
        <ele>513.7</ele>
        <time>2016-12-31T13:26:41Z</time>
      </trkpt>
      <trkpt lat="43.72413" lon="3.44825">
        <ele>513.8</ele>
        <time>2016-12-31T13:26:43Z</time>
      </trkpt>
      <trkpt lat="43.72402" lon="3.44829">
        <ele>513.9</ele>
        <time>2016-12-31T13:26:46Z</time>
      </trkpt>
      <trkpt lat="43.72395" lon="3.44835">
        <ele>514</ele>
        <time>2016-12-31T13:26:48Z</time>
      </trkpt>
      <trkpt lat="43.72386" lon="3.44838">
        <ele>514.1</ele>
        <time>2016-12-31T13:26:50Z</time>
      </trkpt>
      <trkpt lat="43.72378" lon="3.44835">
        <ele>514.1</ele>
        <time>2016-12-31T13:26:53Z</time>
      </trkpt>
      <trkpt lat="43.72367" lon="3.44839">
        <ele>514.4</ele>
        <time>2016-12-31T13:26:56Z</time>
      </trkpt>
      <trkpt lat="43.72356" lon="3.44838">
        <ele>514.4</ele>
        <time>2016-12-31T13:26:59Z</time>
      </trkpt>
      <trkpt lat="43.72347" lon="3.44837">
        <ele>514.4</ele>
        <time>2016-12-31T13:27:02Z</time>
      </trkpt>
      <trkpt lat="43.72339" lon="3.44835">
        <ele>514.3</ele>
        <time>2016-12-31T13:27:05Z</time>
      </trkpt>
      <trkpt lat="43.7233" lon="3.44834">
        <ele>514.2</ele>
        <time>2016-12-31T13:27:08Z</time>
      </trkpt>
      <trkpt lat="43.72322" lon="3.44833">
        <ele>514.1</ele>
        <time>2016-12-31T13:27:11Z</time>
      </trkpt>
      <trkpt lat="43.72315" lon="3.44831">
        <ele>514</ele>
        <time>2016-12-31T13:27:14Z</time>
      </trkpt>
      <trkpt lat="43.72308" lon="3.44827">
        <ele>514.1</ele>
        <time>2016-12-31T13:27:17Z</time>
      </trkpt>
      <trkpt lat="43.72301" lon="3.4482">
        <ele>514.3</ele>
        <time>2016-12-31T13:27:21Z</time>
      </trkpt>
      <trkpt lat="43.72294" lon="3.44812">
        <ele>514.7</ele>
        <time>2016-12-31T13:27:26Z</time>
      </trkpt>
      <trkpt lat="43.72287" lon="3.44808">
        <ele>514.6</ele>
        <time>2016-12-31T13:27:31Z</time>
      </trkpt>
      <trkpt lat="43.72278" lon="3.44805">
        <ele>514.5</ele>
        <time>2016-12-31T13:27:35Z</time>
      </trkpt>
      <trkpt lat="43.7227" lon="3.44807">
        <ele>514.5</ele>
        <time>2016-12-31T13:27:39Z</time>
      </trkpt>
      <trkpt lat="43.72262" lon="3.44804">
        <ele>514.9</ele>
        <time>2016-12-31T13:27:46Z</time>
      </trkpt>
      <trkpt lat="43.7226" lon="3.44797">
        <ele>515.3</ele>
        <time>2016-12-31T13:27:53Z</time>
      </trkpt>
      <trkpt lat="43.72276" lon="3.44778">
        <ele>515.1</ele>
        <time>2016-12-31T13:28:11Z</time>
      </trkpt>
      <trkpt lat="43.72272" lon="3.4477">
        <ele>515.2</ele>
        <time>2016-12-31T13:28:18Z</time>
      </trkpt>
      <trkpt lat="43.72268" lon="3.44764">
        <ele>515.9</ele>
        <time>2016-12-31T13:28:25Z</time>
      </trkpt>
      <trkpt lat="43.72261" lon="3.4475">
        <ele>516.7</ele>
        <time>2016-12-31T13:28:31Z</time>
      </trkpt>
      <trkpt lat="43.72256" lon="3.44743">
        <ele>517.4</ele>
        <time>2016-12-31T13:28:37Z</time>
      </trkpt>
      <trkpt lat="43.72256" lon="3.44742">
        <ele>517.7</ele>
        <time>2016-12-31T13:28:44Z</time>
      </trkpt>
      <trkpt lat="43.72275" lon="3.44706">
        <ele>524.4</ele>
        <time>2016-12-31T13:29:59Z</time>
      </trkpt>
      <trkpt lat="43.72283" lon="3.44707">
        <ele>525.4</ele>
        <time>2016-12-31T13:30:04Z</time>
      </trkpt>
      <trkpt lat="43.72292" lon="3.44705">
        <ele>525.9</ele>
        <time>2016-12-31T13:30:08Z</time>
      </trkpt>
      <trkpt lat="43.72299" lon="3.44703">
        <ele>526.3</ele>
        <time>2016-12-31T13:30:15Z</time>
      </trkpt>
      <trkpt lat="43.72303" lon="3.447">
        <ele>526.6</ele>
        <time>2016-12-31T13:30:22Z</time>
      </trkpt>
      <trkpt lat="43.72296" lon="3.44679">
        <ele>529.4</ele>
        <time>2016-12-31T13:30:57Z</time>
      </trkpt>
      <trkpt lat="43.72288" lon="3.44678">
        <ele>530.6</ele>
        <time>2016-12-31T13:31:24Z</time>
      </trkpt>
      <trkpt lat="43.72293" lon="3.44679">
        <ele>531.1</ele>
        <time>2016-12-31T13:31:31Z</time>
      </trkpt>
      <trkpt lat="43.72292" lon="3.44678">
        <ele>530.5</ele>
        <time>2016-12-31T13:31:38Z</time>
      </trkpt>
      <trkpt lat="43.7229" lon="3.44681">
        <ele>528.6</ele>
        <time>2016-12-31T13:32:47Z</time>
      </trkpt>
      <trkpt lat="43.72296" lon="3.44669">
        <ele>528.8</ele>
        <time>2016-12-31T13:34:13Z</time>
      </trkpt>
      <trkpt lat="43.72303" lon="3.44671">
        <ele>530.4</ele>
        <time>2016-12-31T13:35:26Z</time>
      </trkpt>
      <trkpt lat="43.7231" lon="3.44664">
        <ele>530.6</ele>
        <time>2016-12-31T13:35:30Z</time>
      </trkpt>
      <trkpt lat="43.72317" lon="3.4466">
        <ele>530.2</ele>
        <time>2016-12-31T13:35:33Z</time>
      </trkpt>
      <trkpt lat="43.72327" lon="3.44659">
        <ele>529.5</ele>
        <time>2016-12-31T13:35:37Z</time>
      </trkpt>
      <trkpt lat="43.72332" lon="3.44651">
        <ele>528.9</ele>
        <time>2016-12-31T13:35:40Z</time>
      </trkpt>
      <trkpt lat="43.72337" lon="3.44638">
        <ele>527.9</ele>
        <time>2016-12-31T13:35:44Z</time>
      </trkpt>
      <trkpt lat="43.72341" lon="3.44628">
        <ele>527.3</ele>
        <time>2016-12-31T13:35:46Z</time>
      </trkpt>
      <trkpt lat="43.72343" lon="3.44618">
        <ele>526.2</ele>
        <time>2016-12-31T13:35:49Z</time>
      </trkpt>
      <trkpt lat="43.72344" lon="3.44608">
        <ele>524.7</ele>
        <time>2016-12-31T13:35:52Z</time>
      </trkpt>
      <trkpt lat="43.72347" lon="3.44598">
        <ele>523.2</ele>
        <time>2016-12-31T13:35:55Z</time>
      </trkpt>
      <trkpt lat="43.72351" lon="3.44585">
        <ele>521.4</ele>
        <time>2016-12-31T13:35:58Z</time>
      </trkpt>
      <trkpt lat="43.72355" lon="3.44574">
        <ele>519.7</ele>
        <time>2016-12-31T13:36:01Z</time>
      </trkpt>
      <trkpt lat="43.72362" lon="3.44568">
        <ele>518</ele>
        <time>2016-12-31T13:36:04Z</time>
      </trkpt>
      <trkpt lat="43.72368" lon="3.4456">
        <ele>516.4</ele>
        <time>2016-12-31T13:36:07Z</time>
      </trkpt>
      <trkpt lat="43.72374" lon="3.44551">
        <ele>514.7</ele>
        <time>2016-12-31T13:36:10Z</time>
      </trkpt>
      <trkpt lat="43.72379" lon="3.44541">
        <ele>512.4</ele>
        <time>2016-12-31T13:36:14Z</time>
      </trkpt>
      <trkpt lat="43.7238" lon="3.4453">
        <ele>511.2</ele>
        <time>2016-12-31T13:36:16Z</time>
      </trkpt>
      <trkpt lat="43.72383" lon="3.44516">
        <ele>508.6</ele>
        <time>2016-12-31T13:36:20Z</time>
      </trkpt>
      <trkpt lat="43.72384" lon="3.44506">
        <ele>506.6</ele>
        <time>2016-12-31T13:36:23Z</time>
      </trkpt>
      <trkpt lat="43.72379" lon="3.44496">
        <ele>505.3</ele>
        <time>2016-12-31T13:36:25Z</time>
      </trkpt>
      <trkpt lat="43.72379" lon="3.44485">
        <ele>503.4</ele>
        <time>2016-12-31T13:36:28Z</time>
      </trkpt>
      <trkpt lat="43.72377" lon="3.44472">
        <ele>491.4</ele>
        <time>2016-12-31T13:36:30Z</time>
      </trkpt>
      <trkpt lat="43.72374" lon="3.44457">
        <ele>489.9</ele>
        <time>2016-12-31T13:36:33Z</time>
      </trkpt>
      <trkpt lat="43.72371" lon="3.44444">
        <ele>483.2</ele>
        <time>2016-12-31T13:36:36Z</time>
      </trkpt>
      <trkpt lat="43.7237" lon="3.44433">
        <ele>478.4</ele>
        <time>2016-12-31T13:36:38Z</time>
      </trkpt>
      <trkpt lat="43.72372" lon="3.44419">
        <ele>477</ele>
        <time>2016-12-31T13:36:41Z</time>
      </trkpt>
      <trkpt lat="43.72368" lon="3.44407">
        <ele>467.4</ele>
        <time>2016-12-31T13:36:43Z</time>
      </trkpt>
      <trkpt lat="43.72361" lon="3.44403">
        <ele>466.1</ele>
        <time>2016-12-31T13:36:46Z</time>
      </trkpt>
      <trkpt lat="43.72358" lon="3.44388">
        <ele>464.7</ele>
        <time>2016-12-31T13:36:49Z</time>
      </trkpt>
      <trkpt lat="43.72358" lon="3.44371">
        <ele>456.1</ele>
        <time>2016-12-31T13:36:51Z</time>
      </trkpt>
      <trkpt lat="43.72361" lon="3.44358">
        <ele>450.2</ele>
        <time>2016-12-31T13:36:53Z</time>
      </trkpt>
      <trkpt lat="43.72361" lon="3.44341">
        <ele>445.9</ele>
        <time>2016-12-31T13:36:55Z</time>
      </trkpt>
      <trkpt lat="43.72363" lon="3.44329">
        <ele>442.5</ele>
        <time>2016-12-31T13:36:57Z</time>
      </trkpt>
      <trkpt lat="43.72369" lon="3.44316">
        <ele>439.4</ele>
        <time>2016-12-31T13:36:59Z</time>
      </trkpt>
      <trkpt lat="43.7237" lon="3.44305">
        <ele>437.6</ele>
        <time>2016-12-31T13:37:01Z</time>
      </trkpt>
      <trkpt lat="43.72369" lon="3.44302">
        <ele>437.7</ele>
        <time>2016-12-31T13:37:08Z</time>
      </trkpt>
      <trkpt lat="43.72372" lon="3.44304">
        <ele>439</ele>
        <time>2016-12-31T13:36:38Z</time>
      </trkpt>
      <trkpt lat="43.72372" lon="3.44284">
        <ele>441.2</ele>
        <time>2016-12-31T13:38:40Z</time>
      </trkpt>
      <trkpt lat="43.72372" lon="3.44273">
        <ele>441.1</ele>
        <time>2016-12-31T13:38:45Z</time>
      </trkpt>
      <trkpt lat="43.72375" lon="3.44263">
        <ele>440.5</ele>
        <time>2016-12-31T13:38:52Z</time>
      </trkpt>
      <trkpt lat="43.72379" lon="3.44253">
        <ele>440.4</ele>
        <time>2016-12-31T13:38:56Z</time>
      </trkpt>
      <trkpt lat="43.72386" lon="3.44249">
        <ele>439.9</ele>
        <time>2016-12-31T13:39:03Z</time>
      </trkpt>
      <trkpt lat="43.72392" lon="3.44239">
        <ele>439.6</ele>
        <time>2016-12-31T13:39:06Z</time>
      </trkpt>
      <trkpt lat="43.72395" lon="3.44227">
        <ele>439.2</ele>
        <time>2016-12-31T13:39:09Z</time>
      </trkpt>
      <trkpt lat="43.72399" lon="3.44219">
        <ele>438.2</ele>
        <time>2016-12-31T13:39:16Z</time>
      </trkpt>
      <trkpt lat="43.72403" lon="3.44209">
        <ele>437.5</ele>
        <time>2016-12-31T13:39:19Z</time>
      </trkpt>
      <trkpt lat="43.7241" lon="3.44202">
        <ele>436.7</ele>
        <time>2016-12-31T13:39:22Z</time>
      </trkpt>
      <trkpt lat="43.72413" lon="3.44193">
        <ele>435.9</ele>
        <time>2016-12-31T13:39:25Z</time>
      </trkpt>
      <trkpt lat="43.72412" lon="3.4418">
        <ele>435.4</ele>
        <time>2016-12-31T13:39:27Z</time>
      </trkpt>
      <trkpt lat="43.72413" lon="3.44169">
        <ele>434.9</ele>
        <time>2016-12-31T13:39:29Z</time>
      </trkpt>
      <trkpt lat="43.72413" lon="3.44159">
        <ele>434.3</ele>
        <time>2016-12-31T13:39:31Z</time>
      </trkpt>
      <trkpt lat="43.7241" lon="3.44149">
        <ele>433.7</ele>
        <time>2016-12-31T13:39:33Z</time>
      </trkpt>
      <trkpt lat="43.72405" lon="3.44135">
        <ele>432.7</ele>
        <time>2016-12-31T13:39:36Z</time>
      </trkpt>
      <trkpt lat="43.724" lon="3.44126">
        <ele>432</ele>
        <time>2016-12-31T13:39:38Z</time>
      </trkpt>
      <trkpt lat="43.72397" lon="3.44117">
        <ele>430.9</ele>
        <time>2016-12-31T13:39:41Z</time>
      </trkpt>
      <trkpt lat="43.72405" lon="3.44109">
        <ele>428.7</ele>
        <time>2016-12-31T13:39:46Z</time>
      </trkpt>
      <trkpt lat="43.7241" lon="3.44102">
        <ele>426.7</ele>
        <time>2016-12-31T13:39:50Z</time>
      </trkpt>
      <trkpt lat="43.72417" lon="3.44097">
        <ele>424.6</ele>
        <time>2016-12-31T13:39:54Z</time>
      </trkpt>
      <trkpt lat="43.72424" lon="3.441">
        <ele>422.4</ele>
        <time>2016-12-31T13:39:58Z</time>
      </trkpt>
      <trkpt lat="43.72434" lon="3.44103">
        <ele>420.4</ele>
        <time>2016-12-31T13:40:02Z</time>
      </trkpt>
      <trkpt lat="43.72441" lon="3.44106">
        <ele>414</ele>
        <time>2016-12-31T13:40:04Z</time>
      </trkpt>
      <trkpt lat="43.7245" lon="3.44108">
        <ele>412.4</ele>
        <time>2016-12-31T13:40:07Z</time>
      </trkpt>
      <trkpt lat="43.72458" lon="3.44103">
        <ele>410.2</ele>
        <time>2016-12-31T13:40:11Z</time>
      </trkpt>
      <trkpt lat="43.72462" lon="3.44093">
        <ele>408.4</ele>
        <time>2016-12-31T13:40:14Z</time>
      </trkpt>
      <trkpt lat="43.7247" lon="3.44085">
        <ele>405.9</ele>
        <time>2016-12-31T13:40:18Z</time>
      </trkpt>
      <trkpt lat="43.72479" lon="3.44081">
        <ele>404</ele>
        <time>2016-12-31T13:40:21Z</time>
      </trkpt>
      <trkpt lat="43.72488" lon="3.44078">
        <ele>402.1</ele>
        <time>2016-12-31T13:40:24Z</time>
      </trkpt>
      <trkpt lat="43.72496" lon="3.44074">
        <ele>400.1</ele>
        <time>2016-12-31T13:40:27Z</time>
      </trkpt>
      <trkpt lat="43.72502" lon="3.44067">
        <ele>397.3</ele>
        <time>2016-12-31T13:40:31Z</time>
      </trkpt>
      <trkpt lat="43.7251" lon="3.4406">
        <ele>393.9</ele>
        <time>2016-12-31T13:40:36Z</time>
      </trkpt>
      <trkpt lat="43.72517" lon="3.4405">
        <ele>391.8</ele>
        <time>2016-12-31T13:40:39Z</time>
      </trkpt>
      <trkpt lat="43.72522" lon="3.44043">
        <ele>389.7</ele>
        <time>2016-12-31T13:40:42Z</time>
      </trkpt>
      <trkpt lat="43.72527" lon="3.44033">
        <ele>387.4</ele>
        <time>2016-12-31T13:40:45Z</time>
      </trkpt>
      <trkpt lat="43.72526" lon="3.44028">
        <ele>382.3</ele>
        <time>2016-12-31T13:40:52Z</time>
      </trkpt>
      <trkpt lat="43.7253" lon="3.44017">
        <ele>378.9</ele>
        <time>2016-12-31T13:40:57Z</time>
      </trkpt>
      <trkpt lat="43.72526" lon="3.44">
        <ele>356.1</ele>
        <time>2016-12-31T13:42:46Z</time>
      </trkpt>
      <trkpt lat="43.72522" lon="3.43992">
        <ele>355.7</ele>
        <time>2016-12-31T13:42:49Z</time>
      </trkpt>
      <trkpt lat="43.72519" lon="3.43982">
        <ele>355.2</ele>
        <time>2016-12-31T13:42:52Z</time>
      </trkpt>
      <trkpt lat="43.72516" lon="3.43972">
        <ele>354.6</ele>
        <time>2016-12-31T13:42:57Z</time>
      </trkpt>
      <trkpt lat="43.72516" lon="3.43945">
        <ele>347.4</ele>
        <time>2016-12-31T13:43:11Z</time>
      </trkpt>
      <trkpt lat="43.72514" lon="3.43932">
        <ele>344.3</ele>
        <time>2016-12-31T13:43:13Z</time>
      </trkpt>
      <trkpt lat="43.72516" lon="3.4392">
        <ele>343.6</ele>
        <time>2016-12-31T13:43:16Z</time>
      </trkpt>
      <trkpt lat="43.72517" lon="3.43909">
        <ele>342.3</ele>
        <time>2016-12-31T13:43:21Z</time>
      </trkpt>
      <trkpt lat="43.7252" lon="3.43898">
        <ele>341</ele>
        <time>2016-12-31T13:43:25Z</time>
      </trkpt>
      <trkpt lat="43.72523" lon="3.43886">
        <ele>340</ele>
        <time>2016-12-31T13:43:28Z</time>
      </trkpt>
      <trkpt lat="43.72522" lon="3.43875">
        <ele>338.6</ele>
        <time>2016-12-31T13:43:31Z</time>
      </trkpt>
      <trkpt lat="43.72519" lon="3.43862">
        <ele>337.2</ele>
        <time>2016-12-31T13:43:34Z</time>
      </trkpt>
      <trkpt lat="43.72519" lon="3.43847">
        <ele>336</ele>
        <time>2016-12-31T13:43:37Z</time>
      </trkpt>
      <trkpt lat="43.72518" lon="3.43836">
        <ele>335.1</ele>
        <time>2016-12-31T13:43:39Z</time>
      </trkpt>
      <trkpt lat="43.72516" lon="3.43825">
        <ele>333.4</ele>
        <time>2016-12-31T13:43:43Z</time>
      </trkpt>
      <trkpt lat="43.72522" lon="3.43817">
        <ele>332</ele>
        <time>2016-12-31T13:43:46Z</time>
      </trkpt>
      <trkpt lat="43.72529" lon="3.43804">
        <ele>329.7</ele>
        <time>2016-12-31T13:43:50Z</time>
      </trkpt>
      <trkpt lat="43.72538" lon="3.43796">
        <ele>323.3</ele>
        <time>2016-12-31T13:43:53Z</time>
      </trkpt>
      <trkpt lat="43.72543" lon="3.43785">
        <ele>321.4</ele>
        <time>2016-12-31T13:43:57Z</time>
      </trkpt>
      <trkpt lat="43.72545" lon="3.4378">
        <ele>319</ele>
        <time>2016-12-31T13:44:04Z</time>
      </trkpt>
      <trkpt lat="43.72539" lon="3.43779">
        <ele>309.1</ele>
        <time>2016-12-31T13:43:54Z</time>
      </trkpt>
      <trkpt lat="43.72522" lon="3.43775">
        <ele>304.9</ele>
        <time>2016-12-31T13:45:26Z</time>
      </trkpt>
      <trkpt lat="43.72517" lon="3.43772">
        <ele>303.9</ele>
        <time>2016-12-31T13:45:33Z</time>
      </trkpt>
      <trkpt lat="43.72513" lon="3.4377">
        <ele>303.6</ele>
        <time>2016-12-31T13:45:40Z</time>
      </trkpt>
      <trkpt lat="43.72506" lon="3.43765">
        <ele>303.6</ele>
        <time>2016-12-31T13:45:47Z</time>
      </trkpt>
      <trkpt lat="43.72499" lon="3.43762">
        <ele>303.9</ele>
        <time>2016-12-31T13:45:54Z</time>
      </trkpt>
      <trkpt lat="43.72493" lon="3.43761">
        <ele>304.4</ele>
        <time>2016-12-31T13:46:01Z</time>
      </trkpt>
      <trkpt lat="43.72489" lon="3.4376">
        <ele>304.9</ele>
        <time>2016-12-31T13:46:08Z</time>
      </trkpt>
      <trkpt lat="43.72484" lon="3.43757">
        <ele>305.5</ele>
        <time>2016-12-31T13:46:15Z</time>
      </trkpt>
      <trkpt lat="43.72479" lon="3.43756">
        <ele>306</ele>
        <time>2016-12-31T13:46:22Z</time>
      </trkpt>
      <trkpt lat="43.72472" lon="3.43754">
        <ele>306.5</ele>
        <time>2016-12-31T13:46:29Z</time>
      </trkpt>
      <trkpt lat="43.72465" lon="3.43748">
        <ele>309.8</ele>
        <time>2016-12-31T13:47:26Z</time>
      </trkpt>
      <trkpt lat="43.72476" lon="3.43737">
        <ele>310.8</ele>
        <time>2016-12-31T13:47:43Z</time>
      </trkpt>
      <trkpt lat="43.72481" lon="3.43728">
        <ele>310.6</ele>
        <time>2016-12-31T13:47:47Z</time>
      </trkpt>
      <trkpt lat="43.72486" lon="3.43717">
        <ele>310.3</ele>
        <time>2016-12-31T13:47:50Z</time>
      </trkpt>
      <trkpt lat="43.72489" lon="3.43706">
        <ele>307.6</ele>
        <time>2016-12-31T13:47:52Z</time>
      </trkpt>
      <trkpt lat="43.72493" lon="3.43695">
        <ele>307.4</ele>
        <time>2016-12-31T13:47:54Z</time>
      </trkpt>
      <trkpt lat="43.72496" lon="3.43685">
        <ele>306.5</ele>
        <time>2016-12-31T13:47:58Z</time>
      </trkpt>
      <trkpt lat="43.72505" lon="3.43677">
        <ele>303.9</ele>
        <time>2016-12-31T13:48:01Z</time>
      </trkpt>
      <trkpt lat="43.72513" lon="3.43674">
        <ele>303.5</ele>
        <time>2016-12-31T13:48:03Z</time>
      </trkpt>
      <trkpt lat="43.72524" lon="3.43671">
        <ele>299.7</ele>
        <time>2016-12-31T13:48:06Z</time>
      </trkpt>
      <trkpt lat="43.72532" lon="3.43666">
        <ele>298.8</ele>
        <time>2016-12-31T13:48:09Z</time>
      </trkpt>
      <trkpt lat="43.72536" lon="3.43655">
        <ele>295</ele>
        <time>2016-12-31T13:48:11Z</time>
      </trkpt>
      <trkpt lat="43.7254" lon="3.43643">
        <ele>293.8</ele>
        <time>2016-12-31T13:48:15Z</time>
      </trkpt>
      <trkpt lat="43.72545" lon="3.43632">
        <ele>292.8</ele>
        <time>2016-12-31T13:48:18Z</time>
      </trkpt>
      <trkpt lat="43.72549" lon="3.4362">
        <ele>292.2</ele>
        <time>2016-12-31T13:48:20Z</time>
      </trkpt>
      <trkpt lat="43.7255" lon="3.43609">
        <ele>291.5</ele>
        <time>2016-12-31T13:48:22Z</time>
      </trkpt>
      <trkpt lat="43.7255" lon="3.43596">
        <ele>290.6</ele>
        <time>2016-12-31T13:48:25Z</time>
      </trkpt>
      <trkpt lat="43.72556" lon="3.43585">
        <ele>285.7</ele>
        <time>2016-12-31T13:48:27Z</time>
      </trkpt>
      <trkpt lat="43.7256" lon="3.43577">
        <ele>281.8</ele>
        <time>2016-12-31T13:48:29Z</time>
      </trkpt>
      <trkpt lat="43.72568" lon="3.43564">
        <ele>280.7</ele>
        <time>2016-12-31T13:48:32Z</time>
      </trkpt>
      <trkpt lat="43.72572" lon="3.43555">
        <ele>279</ele>
        <time>2016-12-31T13:48:37Z</time>
      </trkpt>
      <trkpt lat="43.72569" lon="3.43543">
        <ele>277.3</ele>
        <time>2016-12-31T13:48:42Z</time>
      </trkpt>
      <trkpt lat="43.72565" lon="3.43515">
        <ele>270.8</ele>
        <time>2016-12-31T13:49:03Z</time>
      </trkpt>
      <trkpt lat="43.7256" lon="3.43506">
        <ele>269.8</ele>
        <time>2016-12-31T13:49:06Z</time>
      </trkpt>
      <trkpt lat="43.72559" lon="3.43497">
        <ele>267.8</ele>
        <time>2016-12-31T13:49:13Z</time>
      </trkpt>
      <trkpt lat="43.72559" lon="3.43473">
        <ele>262.2</ele>
        <time>2016-12-31T13:51:32Z</time>
      </trkpt>
      <trkpt lat="43.72564" lon="3.43462">
        <ele>259</ele>
        <time>2016-12-31T13:51:35Z</time>
      </trkpt>
      <trkpt lat="43.72572" lon="3.43461">
        <ele>257.6</ele>
        <time>2016-12-31T13:51:38Z</time>
      </trkpt>
      <trkpt lat="43.72576" lon="3.43463">
        <ele>257.1</ele>
        <time>2016-12-31T13:51:45Z</time>
      </trkpt>
      <trkpt lat="43.72591" lon="3.43451">
        <ele>255.2</ele>
        <time>2016-12-31T13:52:26Z</time>
      </trkpt>
      <trkpt lat="43.7259" lon="3.43442">
        <ele>254.9</ele>
        <time>2016-12-31T13:52:33Z</time>
      </trkpt>
      <trkpt lat="43.7259" lon="3.43438">
        <ele>254.8</ele>
        <time>2016-12-31T13:52:40Z</time>
      </trkpt>
      <trkpt lat="43.72604" lon="3.43425">
        <ele>254.7</ele>
        <time>2016-12-31T13:52:58Z</time>
      </trkpt>
      <trkpt lat="43.72612" lon="3.43422">
        <ele>254.9</ele>
        <time>2016-12-31T13:53:03Z</time>
      </trkpt>
      <trkpt lat="43.72618" lon="3.43417">
        <ele>255</ele>
        <time>2016-12-31T13:53:07Z</time>
      </trkpt>
      <trkpt lat="43.72625" lon="3.43412">
        <ele>254.9</ele>
        <time>2016-12-31T13:53:11Z</time>
      </trkpt>
      <trkpt lat="43.7263" lon="3.43401">
        <ele>255.1</ele>
        <time>2016-12-31T13:53:17Z</time>
      </trkpt>
      <trkpt lat="43.72625" lon="3.43394">
        <ele>256</ele>
        <time>2016-12-31T13:53:23Z</time>
      </trkpt>
      <trkpt lat="43.72619" lon="3.43383">
        <ele>257.8</ele>
        <time>2016-12-31T13:53:29Z</time>
      </trkpt>
      <trkpt lat="43.72613" lon="3.43376">
        <ele>260.1</ele>
        <time>2016-12-31T13:53:34Z</time>
      </trkpt>
      <trkpt lat="43.72605" lon="3.43369">
        <ele>262.9</ele>
        <time>2016-12-31T13:53:41Z</time>
      </trkpt>
      <trkpt lat="43.72599" lon="3.43364">
        <ele>264.6</ele>
        <time>2016-12-31T13:53:46Z</time>
      </trkpt>
      <trkpt lat="43.72593" lon="3.43358">
        <ele>266.8</ele>
        <time>2016-12-31T13:53:51Z</time>
      </trkpt>
      <trkpt lat="43.72585" lon="3.43352">
        <ele>268.9</ele>
        <time>2016-12-31T13:53:57Z</time>
      </trkpt>
      <trkpt lat="43.7258" lon="3.43344">
        <ele>269.9</ele>
        <time>2016-12-31T13:54:02Z</time>
      </trkpt>
      <trkpt lat="43.72573" lon="3.43337">
        <ele>271.3</ele>
        <time>2016-12-31T13:54:07Z</time>
      </trkpt>
      <trkpt lat="43.72567" lon="3.43332">
        <ele>272.5</ele>
        <time>2016-12-31T13:54:12Z</time>
      </trkpt>
      <trkpt lat="43.72561" lon="3.43325">
        <ele>273.8</ele>
        <time>2016-12-31T13:54:18Z</time>
      </trkpt>
      <trkpt lat="43.72555" lon="3.43317">
        <ele>274.4</ele>
        <time>2016-12-31T13:54:23Z</time>
      </trkpt>
      <trkpt lat="43.7255" lon="3.43309">
        <ele>275.1</ele>
        <time>2016-12-31T13:54:29Z</time>
      </trkpt>
      <trkpt lat="43.72545" lon="3.43302">
        <ele>275.5</ele>
        <time>2016-12-31T13:54:33Z</time>
      </trkpt>
      <trkpt lat="43.72542" lon="3.43293">
        <ele>276.4</ele>
        <time>2016-12-31T13:54:40Z</time>
      </trkpt>
      <trkpt lat="43.72536" lon="3.43284">
        <ele>277.1</ele>
        <time>2016-12-31T13:54:45Z</time>
      </trkpt>
      <trkpt lat="43.72531" lon="3.43274">
        <ele>278</ele>
        <time>2016-12-31T13:54:52Z</time>
      </trkpt>
      <trkpt lat="43.72532" lon="3.43269">
        <ele>278.5</ele>
        <time>2016-12-31T13:54:59Z</time>
      </trkpt>
      <trkpt lat="43.72538" lon="3.43277">
        <ele>278.2</ele>
        <time>2016-12-31T13:55:05Z</time>
      </trkpt>
      <trkpt lat="43.72545" lon="3.43281">
        <ele>278.2</ele>
        <time>2016-12-31T13:55:11Z</time>
      </trkpt>
      <trkpt lat="43.72553" lon="3.43284">
        <ele>278.3</ele>
        <time>2016-12-31T13:55:15Z</time>
      </trkpt>
      <trkpt lat="43.7256" lon="3.43286">
        <ele>278.4</ele>
        <time>2016-12-31T13:55:21Z</time>
      </trkpt>
      <trkpt lat="43.72567" lon="3.43288">
        <ele>278.5</ele>
        <time>2016-12-31T13:55:25Z</time>
      </trkpt>
      <trkpt lat="43.72576" lon="3.4329">
        <ele>278.7</ele>
        <time>2016-12-31T13:55:31Z</time>
      </trkpt>
      <trkpt lat="43.72586" lon="3.4329">
        <ele>279.1</ele>
        <time>2016-12-31T13:55:36Z</time>
      </trkpt>
      <trkpt lat="43.72593" lon="3.4329">
        <ele>279.8</ele>
        <time>2016-12-31T13:55:43Z</time>
      </trkpt>
      <trkpt lat="43.72601" lon="3.43286">
        <ele>280.2</ele>
        <time>2016-12-31T13:55:47Z</time>
      </trkpt>
      <trkpt lat="43.72607" lon="3.43281">
        <ele>280.6</ele>
        <time>2016-12-31T13:55:52Z</time>
      </trkpt>
      <trkpt lat="43.72614" lon="3.43274">
        <ele>281.4</ele>
        <time>2016-12-31T13:55:57Z</time>
      </trkpt>
      <trkpt lat="43.72621" lon="3.43267">
        <ele>282.3</ele>
        <time>2016-12-31T13:56:02Z</time>
      </trkpt>
      <trkpt lat="43.72627" lon="3.43261">
        <ele>283.1</ele>
        <time>2016-12-31T13:56:07Z</time>
      </trkpt>
      <trkpt lat="43.72633" lon="3.43255">
        <ele>283.7</ele>
        <time>2016-12-31T13:56:11Z</time>
      </trkpt>
      <trkpt lat="43.7264" lon="3.43246">
        <ele>284.6</ele>
        <time>2016-12-31T13:56:16Z</time>
      </trkpt>
      <trkpt lat="43.72645" lon="3.43238">
        <ele>285.1</ele>
        <time>2016-12-31T13:56:19Z</time>
      </trkpt>
      <trkpt lat="43.7265" lon="3.43232">
        <ele>286.4</ele>
        <time>2016-12-31T13:56:24Z</time>
      </trkpt>
      <trkpt lat="43.72654" lon="3.43222">
        <ele>287.6</ele>
        <time>2016-12-31T13:56:29Z</time>
      </trkpt>
      <trkpt lat="43.72656" lon="3.43212">
        <ele>289</ele>
        <time>2016-12-31T13:56:34Z</time>
      </trkpt>
      <trkpt lat="43.72659" lon="3.43202">
        <ele>290.3</ele>
        <time>2016-12-31T13:56:39Z</time>
      </trkpt>
      <trkpt lat="43.72662" lon="3.43191">
        <ele>291.5</ele>
        <time>2016-12-31T13:56:44Z</time>
      </trkpt>
      <trkpt lat="43.72662" lon="3.43181">
        <ele>292.4</ele>
        <time>2016-12-31T13:56:48Z</time>
      </trkpt>
      <trkpt lat="43.72662" lon="3.43171">
        <ele>293.2</ele>
        <time>2016-12-31T13:56:52Z</time>
      </trkpt>
      <trkpt lat="43.72663" lon="3.43161">
        <ele>294</ele>
        <time>2016-12-31T13:56:55Z</time>
      </trkpt>
      <trkpt lat="43.72664" lon="3.43149">
        <ele>294.7</ele>
        <time>2016-12-31T13:56:59Z</time>
      </trkpt>
      <trkpt lat="43.72666" lon="3.43139">
        <ele>295.6</ele>
        <time>2016-12-31T13:57:04Z</time>
      </trkpt>
      <trkpt lat="43.72668" lon="3.43129">
        <ele>295.8</ele>
        <time>2016-12-31T13:57:09Z</time>
      </trkpt>
      <trkpt lat="43.7267" lon="3.43117">
        <ele>295.9</ele>
        <time>2016-12-31T13:57:14Z</time>
      </trkpt>
      <trkpt lat="43.72673" lon="3.43107">
        <ele>295.9</ele>
        <time>2016-12-31T13:57:18Z</time>
      </trkpt>
      <trkpt lat="43.72676" lon="3.43097">
        <ele>296.4</ele>
        <time>2016-12-31T13:57:22Z</time>
      </trkpt>
      <trkpt lat="43.72681" lon="3.4309">
        <ele>296.7</ele>
        <time>2016-12-31T13:57:27Z</time>
      </trkpt>
      <trkpt lat="43.72691" lon="3.43093">
        <ele>297</ele>
        <time>2016-12-31T13:57:33Z</time>
      </trkpt>
      <trkpt lat="43.72699" lon="3.43096">
        <ele>297.3</ele>
        <time>2016-12-31T13:57:37Z</time>
      </trkpt>
      <trkpt lat="43.72708" lon="3.431">
        <ele>297.6</ele>
        <time>2016-12-31T13:57:41Z</time>
      </trkpt>
      <trkpt lat="43.72714" lon="3.43104">
        <ele>297.9</ele>
        <time>2016-12-31T13:57:45Z</time>
      </trkpt>
      <trkpt lat="43.72721" lon="3.43108">
        <ele>297.9</ele>
        <time>2016-12-31T13:57:49Z</time>
      </trkpt>
      <trkpt lat="43.72728" lon="3.43112">
        <ele>297.9</ele>
        <time>2016-12-31T13:57:53Z</time>
      </trkpt>
      <trkpt lat="43.72735" lon="3.43116">
        <ele>298</ele>
        <time>2016-12-31T13:57:57Z</time>
      </trkpt>
      <trkpt lat="43.72742" lon="3.4312">
        <ele>298.3</ele>
        <time>2016-12-31T13:58:01Z</time>
      </trkpt>
      <trkpt lat="43.72749" lon="3.43121">
        <ele>298.8</ele>
        <time>2016-12-31T13:58:05Z</time>
      </trkpt>
      <trkpt lat="43.72758" lon="3.43118">
        <ele>299.2</ele>
        <time>2016-12-31T13:58:10Z</time>
      </trkpt>
      <trkpt lat="43.72765" lon="3.43115">
        <ele>299.6</ele>
        <time>2016-12-31T13:58:14Z</time>
      </trkpt>
      <trkpt lat="43.72773" lon="3.43111">
        <ele>300.1</ele>
        <time>2016-12-31T13:58:18Z</time>
      </trkpt>
      <trkpt lat="43.72781" lon="3.43109">
        <ele>300.7</ele>
        <time>2016-12-31T13:58:23Z</time>
      </trkpt>
      <trkpt lat="43.72789" lon="3.43106">
        <ele>301.2</ele>
        <time>2016-12-31T13:58:28Z</time>
      </trkpt>
      <trkpt lat="43.72796" lon="3.43104">
        <ele>301.6</ele>
        <time>2016-12-31T13:58:32Z</time>
      </trkpt>
      <trkpt lat="43.72803" lon="3.43103">
        <ele>302.1</ele>
        <time>2016-12-31T13:58:37Z</time>
      </trkpt>
      <trkpt lat="43.72812" lon="3.43102">
        <ele>302.7</ele>
        <time>2016-12-31T13:58:43Z</time>
      </trkpt>
      <trkpt lat="43.72817" lon="3.43109">
        <ele>303.5</ele>
        <time>2016-12-31T13:58:48Z</time>
      </trkpt>
      <trkpt lat="43.72822" lon="3.43117">
        <ele>304.4</ele>
        <time>2016-12-31T13:58:54Z</time>
      </trkpt>
      <trkpt lat="43.72825" lon="3.43126">
        <ele>304.9</ele>
        <time>2016-12-31T13:59:00Z</time>
      </trkpt>
      <trkpt lat="43.7283" lon="3.43136">
        <ele>305.9</ele>
        <time>2016-12-31T13:59:07Z</time>
      </trkpt>
      <trkpt lat="43.72836" lon="3.4314">
        <ele>306.8</ele>
        <time>2016-12-31T13:59:12Z</time>
      </trkpt>
      <trkpt lat="43.72844" lon="3.43143">
        <ele>307.5</ele>
        <time>2016-12-31T13:59:18Z</time>
      </trkpt>
      <trkpt lat="43.72851" lon="3.43145">
        <ele>308.1</ele>
        <time>2016-12-31T13:59:23Z</time>
      </trkpt>
      <trkpt lat="43.72858" lon="3.4315">
        <ele>309</ele>
        <time>2016-12-31T13:59:29Z</time>
      </trkpt>
      <trkpt lat="43.72864" lon="3.43157">
        <ele>310.5</ele>
        <time>2016-12-31T13:59:36Z</time>
      </trkpt>
      <trkpt lat="43.72868" lon="3.43166">
        <ele>311.8</ele>
        <time>2016-12-31T13:59:41Z</time>
      </trkpt>
      <trkpt lat="43.7287" lon="3.43175">
        <ele>313.4</ele>
        <time>2016-12-31T13:59:47Z</time>
      </trkpt>
      <trkpt lat="43.72877" lon="3.43183">
        <ele>315.2</ele>
        <time>2016-12-31T13:59:53Z</time>
      </trkpt>
      <trkpt lat="43.72884" lon="3.43189">
        <ele>316.5</ele>
        <time>2016-12-31T13:59:58Z</time>
      </trkpt>
      <trkpt lat="43.7289" lon="3.43196">
        <ele>317.7</ele>
        <time>2016-12-31T14:00:04Z</time>
      </trkpt>
      <trkpt lat="43.72896" lon="3.43204">
        <ele>319.3</ele>
        <time>2016-12-31T14:00:11Z</time>
      </trkpt>
      <trkpt lat="43.72903" lon="3.43209">
        <ele>321</ele>
        <time>2016-12-31T14:00:18Z</time>
      </trkpt>
      <trkpt lat="43.7291" lon="3.43212">
        <ele>322.5</ele>
        <time>2016-12-31T14:00:25Z</time>
      </trkpt>
      <trkpt lat="43.72918" lon="3.43215">
        <ele>323.4</ele>
        <time>2016-12-31T14:00:30Z</time>
      </trkpt>
      <trkpt lat="43.72925" lon="3.43217">
        <ele>323.9</ele>
        <time>2016-12-31T14:00:34Z</time>
      </trkpt>
      <trkpt lat="43.72934" lon="3.43218">
        <ele>324.4</ele>
        <time>2016-12-31T14:00:39Z</time>
      </trkpt>
      <trkpt lat="43.72942" lon="3.43217">
        <ele>324.8</ele>
        <time>2016-12-31T14:00:44Z</time>
      </trkpt>
      <trkpt lat="43.7295" lon="3.43218">
        <ele>325.4</ele>
        <time>2016-12-31T14:00:50Z</time>
      </trkpt>
      <trkpt lat="43.72958" lon="3.43219">
        <ele>326</ele>
        <time>2016-12-31T14:00:55Z</time>
      </trkpt>
      <trkpt lat="43.72965" lon="3.4322">
        <ele>327.1</ele>
        <time>2016-12-31T14:01:01Z</time>
      </trkpt>
      <trkpt lat="43.72972" lon="3.43222">
        <ele>328</ele>
        <time>2016-12-31T14:01:07Z</time>
      </trkpt>
      <trkpt lat="43.72979" lon="3.43227">
        <ele>328.7</ele>
        <time>2016-12-31T14:01:11Z</time>
      </trkpt>
      <trkpt lat="43.72986" lon="3.43231">
        <ele>329.3</ele>
        <time>2016-12-31T14:01:15Z</time>
      </trkpt>
      <trkpt lat="43.72995" lon="3.43232">
        <ele>330.2</ele>
        <time>2016-12-31T14:01:20Z</time>
      </trkpt>
      <trkpt lat="43.73003" lon="3.43235">
        <ele>331</ele>
        <time>2016-12-31T14:01:25Z</time>
      </trkpt>
      <trkpt lat="43.73011" lon="3.43235">
        <ele>331.9</ele>
        <time>2016-12-31T14:01:30Z</time>
      </trkpt>
      <trkpt lat="43.73019" lon="3.43235">
        <ele>332.7</ele>
        <time>2016-12-31T14:01:35Z</time>
      </trkpt>
      <trkpt lat="43.73026" lon="3.43234">
        <ele>333.4</ele>
        <time>2016-12-31T14:01:40Z</time>
      </trkpt>
      <trkpt lat="43.73034" lon="3.43234">
        <ele>334.2</ele>
        <time>2016-12-31T14:01:46Z</time>
      </trkpt>
      <trkpt lat="43.73042" lon="3.43235">
        <ele>335.1</ele>
        <time>2016-12-31T14:01:51Z</time>
      </trkpt>
      <trkpt lat="43.73051" lon="3.43236">
        <ele>336.3</ele>
        <time>2016-12-31T14:01:57Z</time>
      </trkpt>
      <trkpt lat="43.73057" lon="3.43229">
        <ele>336.9</ele>
        <time>2016-12-31T14:02:02Z</time>
      </trkpt>
      <trkpt lat="43.7306" lon="3.4322">
        <ele>338.2</ele>
        <time>2016-12-31T14:02:09Z</time>
      </trkpt>
      <trkpt lat="43.73065" lon="3.43212">
        <ele>339</ele>
        <time>2016-12-31T14:02:14Z</time>
      </trkpt>
      <trkpt lat="43.7307" lon="3.43205">
        <ele>340</ele>
        <time>2016-12-31T14:02:20Z</time>
      </trkpt>
      <trkpt lat="43.73074" lon="3.43196">
        <ele>340.9</ele>
        <time>2016-12-31T14:02:25Z</time>
      </trkpt>
      <trkpt lat="43.73079" lon="3.43186">
        <ele>342.1</ele>
        <time>2016-12-31T14:02:32Z</time>
      </trkpt>
      <trkpt lat="43.73082" lon="3.43176">
        <ele>342.9</ele>
        <time>2016-12-31T14:02:38Z</time>
      </trkpt>
      <trkpt lat="43.73086" lon="3.43166">
        <ele>343.8</ele>
        <time>2016-12-31T14:02:45Z</time>
      </trkpt>
      <trkpt lat="43.73088" lon="3.43156">
        <ele>344.5</ele>
        <time>2016-12-31T14:02:49Z</time>
      </trkpt>
      <trkpt lat="43.73088" lon="3.43145">
        <ele>345.4</ele>
        <time>2016-12-31T14:02:55Z</time>
      </trkpt>
      <trkpt lat="43.73089" lon="3.43134">
        <ele>346.1</ele>
        <time>2016-12-31T14:03:00Z</time>
      </trkpt>
      <trkpt lat="43.73091" lon="3.43121">
        <ele>346.8</ele>
        <time>2016-12-31T14:03:05Z</time>
      </trkpt>
      <trkpt lat="43.73097" lon="3.43114">
        <ele>347.2</ele>
        <time>2016-12-31T14:03:09Z</time>
      </trkpt>
      <trkpt lat="43.73104" lon="3.43114">
        <ele>348.2</ele>
        <time>2016-12-31T14:03:15Z</time>
      </trkpt>
      <trkpt lat="43.73112" lon="3.43113">
        <ele>348.9</ele>
        <time>2016-12-31T14:03:20Z</time>
      </trkpt>
      <trkpt lat="43.73117" lon="3.43106">
        <ele>349.5</ele>
        <time>2016-12-31T14:03:24Z</time>
      </trkpt>
      <trkpt lat="43.73121" lon="3.43096">
        <ele>349.7</ele>
        <time>2016-12-31T14:03:29Z</time>
      </trkpt>
      <trkpt lat="43.73125" lon="3.43086">
        <ele>349.9</ele>
        <time>2016-12-31T14:03:33Z</time>
      </trkpt>
      <trkpt lat="43.73129" lon="3.43077">
        <ele>350</ele>
        <time>2016-12-31T14:03:38Z</time>
      </trkpt>
      <trkpt lat="43.73134" lon="3.43068">
        <ele>350.4</ele>
        <time>2016-12-31T14:03:43Z</time>
      </trkpt>
      <trkpt lat="43.73139" lon="3.43059">
        <ele>350.7</ele>
        <time>2016-12-31T14:03:49Z</time>
      </trkpt>
      <trkpt lat="43.73146" lon="3.43059">
        <ele>351</ele>
        <time>2016-12-31T14:03:56Z</time>
      </trkpt>
      <trkpt lat="43.73151" lon="3.43067">
        <ele>351.3</ele>
        <time>2016-12-31T14:04:01Z</time>
      </trkpt>
      <trkpt lat="43.73156" lon="3.43077">
        <ele>351.4</ele>
        <time>2016-12-31T14:04:05Z</time>
      </trkpt>
      <trkpt lat="43.7316" lon="3.43086">
        <ele>351.6</ele>
        <time>2016-12-31T14:04:10Z</time>
      </trkpt>
      <trkpt lat="43.73164" lon="3.43094">
        <ele>351.8</ele>
        <time>2016-12-31T14:04:15Z</time>
      </trkpt>
      <trkpt lat="43.73172" lon="3.43093">
        <ele>352.3</ele>
        <time>2016-12-31T14:04:21Z</time>
      </trkpt>
      <trkpt lat="43.73178" lon="3.43087">
        <ele>353.1</ele>
        <time>2016-12-31T14:04:28Z</time>
      </trkpt>
      <trkpt lat="43.73184" lon="3.43077">
        <ele>353.6</ele>
        <time>2016-12-31T14:04:32Z</time>
      </trkpt>
      <trkpt lat="43.73191" lon="3.43077">
        <ele>353.9</ele>
        <time>2016-12-31T14:04:36Z</time>
      </trkpt>
      <trkpt lat="43.73198" lon="3.43082">
        <ele>354.4</ele>
        <time>2016-12-31T14:04:40Z</time>
      </trkpt>
      <trkpt lat="43.73205" lon="3.43086">
        <ele>354.6</ele>
        <time>2016-12-31T14:04:44Z</time>
      </trkpt>
      <trkpt lat="43.7321" lon="3.43098">
        <ele>354.8</ele>
        <time>2016-12-31T14:04:49Z</time>
      </trkpt>
      <trkpt lat="43.73211" lon="3.43108">
        <ele>355</ele>
        <time>2016-12-31T14:04:54Z</time>
      </trkpt>
      <trkpt lat="43.73215" lon="3.43119">
        <ele>355.2</ele>
        <time>2016-12-31T14:04:59Z</time>
      </trkpt>
      <trkpt lat="43.7322" lon="3.43128">
        <ele>355.4</ele>
        <time>2016-12-31T14:05:03Z</time>
      </trkpt>
      <trkpt lat="43.73226" lon="3.43136">
        <ele>355.5</ele>
        <time>2016-12-31T14:05:08Z</time>
      </trkpt>
      <trkpt lat="43.73231" lon="3.43145">
        <ele>355.7</ele>
        <time>2016-12-31T14:05:12Z</time>
      </trkpt>
      <trkpt lat="43.73234" lon="3.43154">
        <ele>356.2</ele>
        <time>2016-12-31T14:05:17Z</time>
      </trkpt>
      <trkpt lat="43.7324" lon="3.43161">
        <ele>356.8</ele>
        <time>2016-12-31T14:05:22Z</time>
      </trkpt>
      <trkpt lat="43.73246" lon="3.43168">
        <ele>357.5</ele>
        <time>2016-12-31T14:05:27Z</time>
      </trkpt>
      <trkpt lat="43.73251" lon="3.43176">
        <ele>358.4</ele>
        <time>2016-12-31T14:05:34Z</time>
      </trkpt>
      <trkpt lat="43.73256" lon="3.43182">
        <ele>359.2</ele>
        <time>2016-12-31T14:05:41Z</time>
      </trkpt>
      <trkpt lat="43.73269" lon="3.43172">
        <ele>363.3</ele>
        <time>2016-12-31T14:09:53Z</time>
      </trkpt>
      <trkpt lat="43.73271" lon="3.43161">
        <ele>363.2</ele>
        <time>2016-12-31T14:09:57Z</time>
      </trkpt>
      <trkpt lat="43.73273" lon="3.43151">
        <ele>363</ele>
        <time>2016-12-31T14:09:59Z</time>
      </trkpt>
      <trkpt lat="43.73275" lon="3.4314">
        <ele>362.8</ele>
        <time>2016-12-31T14:10:01Z</time>
      </trkpt>
      <trkpt lat="43.73281" lon="3.43134">
        <ele>362.2</ele>
        <time>2016-12-31T14:10:04Z</time>
      </trkpt>
      <trkpt lat="43.73288" lon="3.4313">
        <ele>361.6</ele>
        <time>2016-12-31T14:10:07Z</time>
      </trkpt>
      <trkpt lat="43.73297" lon="3.43128">
        <ele>360.7</ele>
        <time>2016-12-31T14:10:10Z</time>
      </trkpt>
      <trkpt lat="43.73302" lon="3.43116">
        <ele>359.3</ele>
        <time>2016-12-31T14:10:14Z</time>
      </trkpt>
      <trkpt lat="43.73304" lon="3.43099">
        <ele>353.8</ele>
        <time>2016-12-31T14:10:17Z</time>
      </trkpt>
      <trkpt lat="43.73306" lon="3.43083">
        <ele>345.2</ele>
        <time>2016-12-31T14:10:20Z</time>
      </trkpt>
      <trkpt lat="43.73302" lon="3.43073">
        <ele>344.4</ele>
        <time>2016-12-31T14:10:22Z</time>
      </trkpt>
      <trkpt lat="43.73299" lon="3.43062">
        <ele>343.4</ele>
        <time>2016-12-31T14:10:25Z</time>
      </trkpt>
      <trkpt lat="43.73296" lon="3.43051">
        <ele>342.4</ele>
        <time>2016-12-31T14:10:28Z</time>
      </trkpt>
      <trkpt lat="43.73302" lon="3.43039">
        <ele>340.8</ele>
        <time>2016-12-31T14:10:32Z</time>
      </trkpt>
      <trkpt lat="43.73302" lon="3.43029">
        <ele>338.9</ele>
        <time>2016-12-31T14:10:36Z</time>
      </trkpt>
      <trkpt lat="43.73311" lon="3.43031">
        <ele>336.4</ele>
        <time>2016-12-31T14:10:41Z</time>
      </trkpt>
      <trkpt lat="43.73311" lon="3.43032">
        <ele>330.7</ele>
        <time>2016-12-31T14:11:02Z</time>
      </trkpt>
      <trkpt lat="43.7332" lon="3.4304">
        <ele>322.9</ele>
        <time>2016-12-31T14:12:15Z</time>
      </trkpt>
      <trkpt lat="43.73326" lon="3.43048">
        <ele>322</ele>
        <time>2016-12-31T14:12:20Z</time>
      </trkpt>
      <trkpt lat="43.73331" lon="3.43056">
        <ele>321.4</ele>
        <time>2016-12-31T14:12:24Z</time>
      </trkpt>
      <trkpt lat="43.73337" lon="3.43062">
        <ele>320.9</ele>
        <time>2016-12-31T14:12:28Z</time>
      </trkpt>
      <trkpt lat="43.73343" lon="3.43072">
        <ele>320.2</ele>
        <time>2016-12-31T14:12:33Z</time>
      </trkpt>
      <trkpt lat="43.73348" lon="3.43079">
        <ele>319.7</ele>
        <time>2016-12-31T14:12:38Z</time>
      </trkpt>
      <trkpt lat="43.73354" lon="3.43086">
        <ele>319.2</ele>
        <time>2016-12-31T14:12:42Z</time>
      </trkpt>
      <trkpt lat="43.7336" lon="3.43093">
        <ele>319</ele>
        <time>2016-12-31T14:12:46Z</time>
      </trkpt>
      <trkpt lat="43.73364" lon="3.431">
        <ele>319</ele>
        <time>2016-12-31T14:12:51Z</time>
      </trkpt>
      <trkpt lat="43.7337" lon="3.43109">
        <ele>318.9</ele>
        <time>2016-12-31T14:12:57Z</time>
      </trkpt>
      <trkpt lat="43.73375" lon="3.43116">
        <ele>319.1</ele>
        <time>2016-12-31T14:13:02Z</time>
      </trkpt>
      <trkpt lat="43.7338" lon="3.43124">
        <ele>319.3</ele>
        <time>2016-12-31T14:13:09Z</time>
      </trkpt>
      <trkpt lat="43.73381" lon="3.43124">
        <ele>319.2</ele>
        <time>2016-12-31T14:13:16Z</time>
      </trkpt>
      <trkpt lat="43.73389" lon="3.43112">
        <ele>319.1</ele>
        <time>2016-12-31T14:13:28Z</time>
      </trkpt>
      <trkpt lat="43.73387" lon="3.431">
        <ele>318.6</ele>
        <time>2016-12-31T14:13:31Z</time>
      </trkpt>
      <trkpt lat="43.73385" lon="3.4309">
        <ele>317.9</ele>
        <time>2016-12-31T14:13:35Z</time>
      </trkpt>
      <trkpt lat="43.73386" lon="3.43077">
        <ele>316.9</ele>
        <time>2016-12-31T14:13:39Z</time>
      </trkpt>
      <trkpt lat="43.73392" lon="3.4307">
        <ele>315.9</ele>
        <time>2016-12-31T14:13:43Z</time>
      </trkpt>
      <trkpt lat="43.73399" lon="3.43063">
        <ele>314.6</ele>
        <time>2016-12-31T14:13:47Z</time>
      </trkpt>
      <trkpt lat="43.73408" lon="3.43059">
        <ele>313.3</ele>
        <time>2016-12-31T14:13:51Z</time>
      </trkpt>
      <trkpt lat="43.73417" lon="3.43051">
        <ele>312.3</ele>
        <time>2016-12-31T14:13:55Z</time>
      </trkpt>
      <trkpt lat="43.73423" lon="3.4304">
        <ele>311.1</ele>
        <time>2016-12-31T14:13:58Z</time>
      </trkpt>
      <trkpt lat="43.73426" lon="3.43029">
        <ele>309.6</ele>
        <time>2016-12-31T14:14:01Z</time>
      </trkpt>
      <trkpt lat="43.73431" lon="3.43019">
        <ele>306.8</ele>
        <time>2016-12-31T14:14:07Z</time>
      </trkpt>
      <trkpt lat="43.7344" lon="3.43018">
        <ele>301.8</ele>
        <time>2016-12-31T14:14:09Z</time>
      </trkpt>
      <trkpt lat="43.73448" lon="3.43016">
        <ele>294.3</ele>
        <time>2016-12-31T14:14:11Z</time>
      </trkpt>
      <trkpt lat="43.73457" lon="3.43013">
        <ele>293.8</ele>
        <time>2016-12-31T14:14:13Z</time>
      </trkpt>
      <trkpt lat="43.73465" lon="3.43011">
        <ele>292.9</ele>
        <time>2016-12-31T14:14:16Z</time>
      </trkpt>
      <trkpt lat="43.73473" lon="3.43011">
        <ele>291.8</ele>
        <time>2016-12-31T14:14:19Z</time>
      </trkpt>
      <trkpt lat="43.7348" lon="3.43016">
        <ele>289.2</ele>
        <time>2016-12-31T14:14:24Z</time>
      </trkpt>
      <trkpt lat="43.73488" lon="3.43018">
        <ele>286.7</ele>
        <time>2016-12-31T14:14:30Z</time>
      </trkpt>
      <trkpt lat="43.73498" lon="3.43012">
        <ele>280.4</ele>
        <time>2016-12-31T14:14:50Z</time>
      </trkpt>
      <trkpt lat="43.73501" lon="3.43002">
        <ele>279.6</ele>
        <time>2016-12-31T14:14:53Z</time>
      </trkpt>
      <trkpt lat="43.73499" lon="3.42991">
        <ele>279</ele>
        <time>2016-12-31T14:14:55Z</time>
      </trkpt>
      <trkpt lat="43.73499" lon="3.42978">
        <ele>276</ele>
        <time>2016-12-31T14:14:57Z</time>
      </trkpt>
      <trkpt lat="43.73507" lon="3.42974">
        <ele>274.2</ele>
        <time>2016-12-31T14:15:04Z</time>
      </trkpt>
      <trkpt lat="43.73515" lon="3.42983">
        <ele>273.1</ele>
        <time>2016-12-31T14:15:08Z</time>
      </trkpt>
      <trkpt lat="43.73534" lon="3.42968">
        <ele>265.9</ele>
        <time>2016-12-31T14:16:44Z</time>
      </trkpt>
      <trkpt lat="43.73535" lon="3.42966">
        <ele>265.9</ele>
        <time>2016-12-31T14:16:51Z</time>
      </trkpt>
      <trkpt lat="43.73536" lon="3.42965">
        <ele>265.8</ele>
        <time>2016-12-31T14:16:58Z</time>
      </trkpt>
      <trkpt lat="43.73537" lon="3.4296">
        <ele>265</ele>
        <time>2016-12-31T14:17:05Z</time>
      </trkpt>
      <trkpt lat="43.73542" lon="3.4295">
        <ele>264.8</ele>
        <time>2016-12-31T14:17:12Z</time>
      </trkpt>
      <trkpt lat="43.73545" lon="3.42942">
        <ele>264.9</ele>
        <time>2016-12-31T14:17:16Z</time>
      </trkpt>
      <trkpt lat="43.7355" lon="3.42932">
        <ele>264.9</ele>
        <time>2016-12-31T14:17:21Z</time>
      </trkpt>
      <trkpt lat="43.7355" lon="3.4292">
        <ele>265.3</ele>
        <time>2016-12-31T14:17:26Z</time>
      </trkpt>
      <trkpt lat="43.73545" lon="3.42914">
        <ele>265.6</ele>
        <time>2016-12-31T14:17:30Z</time>
      </trkpt>
      <trkpt lat="43.73538" lon="3.42908">
        <ele>265.9</ele>
        <time>2016-12-31T14:17:34Z</time>
      </trkpt>
      <trkpt lat="43.73534" lon="3.429">
        <ele>266.4</ele>
        <time>2016-12-31T14:17:39Z</time>
      </trkpt>
      <trkpt lat="43.73539" lon="3.429">
        <ele>266.3</ele>
        <time>2016-12-31T14:17:46Z</time>
      </trkpt>
      <trkpt lat="43.73547" lon="3.42899">
        <ele>266</ele>
        <time>2016-12-31T14:17:50Z</time>
      </trkpt>
      <trkpt lat="43.73554" lon="3.42899">
        <ele>266.1</ele>
        <time>2016-12-31T14:17:55Z</time>
      </trkpt>
      <trkpt lat="43.73562" lon="3.429">
        <ele>266.3</ele>
        <time>2016-12-31T14:18:00Z</time>
      </trkpt>
      <trkpt lat="43.7357" lon="3.42903">
        <ele>266.6</ele>
        <time>2016-12-31T14:18:05Z</time>
      </trkpt>
      <trkpt lat="43.73578" lon="3.42907">
        <ele>266.9</ele>
        <time>2016-12-31T14:18:09Z</time>
      </trkpt>
      <trkpt lat="43.73585" lon="3.4291">
        <ele>267.4</ele>
        <time>2016-12-31T14:18:14Z</time>
      </trkpt>
      <trkpt lat="43.73594" lon="3.42912">
        <ele>268</ele>
        <time>2016-12-31T14:18:18Z</time>
      </trkpt>
      <trkpt lat="43.73604" lon="3.42912">
        <ele>268.7</ele>
        <time>2016-12-31T14:18:23Z</time>
      </trkpt>
      <trkpt lat="43.73613" lon="3.42912">
        <ele>269.2</ele>
        <time>2016-12-31T14:18:26Z</time>
      </trkpt>
      <trkpt lat="43.7362" lon="3.42912">
        <ele>269.7</ele>
        <time>2016-12-31T14:18:29Z</time>
      </trkpt>
      <trkpt lat="43.73629" lon="3.4291">
        <ele>270</ele>
        <time>2016-12-31T14:18:33Z</time>
      </trkpt>
      <trkpt lat="43.73636" lon="3.42917">
        <ele>270.4</ele>
        <time>2016-12-31T14:18:39Z</time>
      </trkpt>
      <trkpt lat="43.73642" lon="3.42927">
        <ele>270.9</ele>
        <time>2016-12-31T14:18:44Z</time>
      </trkpt>
      <trkpt lat="43.73646" lon="3.42938">
        <ele>271.1</ele>
        <time>2016-12-31T14:18:47Z</time>
      </trkpt>
      <trkpt lat="43.7365" lon="3.42948">
        <ele>272</ele>
        <time>2016-12-31T14:18:49Z</time>
      </trkpt>
      <trkpt lat="43.73657" lon="3.42957">
        <ele>272.4</ele>
        <time>2016-12-31T14:18:51Z</time>
      </trkpt>
      <trkpt lat="43.73667" lon="3.42963">
        <ele>272.7</ele>
        <time>2016-12-31T14:18:53Z</time>
      </trkpt>
      <trkpt lat="43.73678" lon="3.42966">
        <ele>272.6</ele>
        <time>2016-12-31T14:18:55Z</time>
      </trkpt>
      <trkpt lat="43.73689" lon="3.42967">
        <ele>272.2</ele>
        <time>2016-12-31T14:18:57Z</time>
      </trkpt>
      <trkpt lat="43.73699" lon="3.42967">
        <ele>271.5</ele>
        <time>2016-12-31T14:18:59Z</time>
      </trkpt>
      <trkpt lat="43.7371" lon="3.42967">
        <ele>270.7</ele>
        <time>2016-12-31T14:19:01Z</time>
      </trkpt>
      <trkpt lat="43.7372" lon="3.42966">
        <ele>270.1</ele>
        <time>2016-12-31T14:19:03Z</time>
      </trkpt>
      <trkpt lat="43.73729" lon="3.42968">
        <ele>269.7</ele>
        <time>2016-12-31T14:19:05Z</time>
      </trkpt>
      <trkpt lat="43.73737" lon="3.42969">
        <ele>269.9</ele>
        <time>2016-12-31T14:19:07Z</time>
      </trkpt>
      <trkpt lat="43.73746" lon="3.4297">
        <ele>269.9</ele>
        <time>2016-12-31T14:19:09Z</time>
      </trkpt>
      <trkpt lat="43.73754" lon="3.4297">
        <ele>269.1</ele>
        <time>2016-12-31T14:19:11Z</time>
      </trkpt>
      <trkpt lat="43.73763" lon="3.42972">
        <ele>268.7</ele>
        <time>2016-12-31T14:19:13Z</time>
      </trkpt>
      <trkpt lat="43.7377" lon="3.42972">
        <ele>268.8</ele>
        <time>2016-12-31T14:19:15Z</time>
      </trkpt>
      <trkpt lat="43.7378" lon="3.42973">
        <ele>269</ele>
        <time>2016-12-31T14:19:18Z</time>
      </trkpt>
      <trkpt lat="43.73787" lon="3.42974">
        <ele>269.4</ele>
        <time>2016-12-31T14:19:21Z</time>
      </trkpt>
      <trkpt lat="43.73796" lon="3.42975">
        <ele>269.8</ele>
        <time>2016-12-31T14:19:24Z</time>
      </trkpt>
      <trkpt lat="43.73803" lon="3.42973">
        <ele>270.1</ele>
        <time>2016-12-31T14:19:27Z</time>
      </trkpt>
      <trkpt lat="43.73812" lon="3.42972">
        <ele>270.5</ele>
        <time>2016-12-31T14:19:30Z</time>
      </trkpt>
      <trkpt lat="43.7382" lon="3.42971">
        <ele>271</ele>
        <time>2016-12-31T14:19:33Z</time>
      </trkpt>
      <trkpt lat="43.73828" lon="3.4297">
        <ele>271.5</ele>
        <time>2016-12-31T14:19:37Z</time>
      </trkpt>
      <trkpt lat="43.73835" lon="3.4297">
        <ele>271.9</ele>
        <time>2016-12-31T14:19:40Z</time>
      </trkpt>
      <trkpt lat="43.73844" lon="3.42972">
        <ele>272.2</ele>
        <time>2016-12-31T14:19:43Z</time>
      </trkpt>
      <trkpt lat="43.73851" lon="3.42973">
        <ele>272.6</ele>
        <time>2016-12-31T14:19:46Z</time>
      </trkpt>
      <trkpt lat="43.7386" lon="3.42975">
        <ele>272.9</ele>
        <time>2016-12-31T14:19:50Z</time>
      </trkpt>
      <trkpt lat="43.7387" lon="3.42975">
        <ele>273.3</ele>
        <time>2016-12-31T14:19:54Z</time>
      </trkpt>
      <trkpt lat="43.73877" lon="3.42973">
        <ele>274</ele>
        <time>2016-12-31T14:19:59Z</time>
      </trkpt>
      <trkpt lat="43.73885" lon="3.42972">
        <ele>274.7</ele>
        <time>2016-12-31T14:20:03Z</time>
      </trkpt>
      <trkpt lat="43.73893" lon="3.42969">
        <ele>275.1</ele>
        <time>2016-12-31T14:20:07Z</time>
      </trkpt>
      <trkpt lat="43.739" lon="3.42969">
        <ele>275.6</ele>
        <time>2016-12-31T14:20:12Z</time>
      </trkpt>
      <trkpt lat="43.73907" lon="3.42968">
        <ele>276.1</ele>
        <time>2016-12-31T14:20:16Z</time>
      </trkpt>
      <trkpt lat="43.73916" lon="3.42968">
        <ele>276.8</ele>
        <time>2016-12-31T14:20:21Z</time>
      </trkpt>
      <trkpt lat="43.73924" lon="3.42968">
        <ele>277.4</ele>
        <time>2016-12-31T14:20:25Z</time>
      </trkpt>
      <trkpt lat="43.73933" lon="3.42967">
        <ele>277.9</ele>
        <time>2016-12-31T14:20:29Z</time>
      </trkpt>
      <trkpt lat="43.73941" lon="3.42966">
        <ele>278.5</ele>
        <time>2016-12-31T14:20:34Z</time>
      </trkpt>
      <trkpt lat="43.73949" lon="3.42963">
        <ele>278.9</ele>
        <time>2016-12-31T14:20:39Z</time>
      </trkpt>
      <trkpt lat="43.73956" lon="3.42961">
        <ele>279.5</ele>
        <time>2016-12-31T14:20:44Z</time>
      </trkpt>
      <trkpt lat="43.73964" lon="3.42959">
        <ele>279.9</ele>
        <time>2016-12-31T14:20:48Z</time>
      </trkpt>
      <trkpt lat="43.73973" lon="3.42959">
        <ele>280.7</ele>
        <time>2016-12-31T14:20:53Z</time>
      </trkpt>
      <trkpt lat="43.73981" lon="3.42959">
        <ele>281.2</ele>
        <time>2016-12-31T14:20:57Z</time>
      </trkpt>
      <trkpt lat="43.73988" lon="3.42959">
        <ele>281.9</ele>
        <time>2016-12-31T14:21:01Z</time>
      </trkpt>
      <trkpt lat="43.73997" lon="3.42959">
        <ele>282.5</ele>
        <time>2016-12-31T14:21:06Z</time>
      </trkpt>
      <trkpt lat="43.74005" lon="3.4296">
        <ele>283.1</ele>
        <time>2016-12-31T14:21:10Z</time>
      </trkpt>
      <trkpt lat="43.74012" lon="3.4296">
        <ele>283.9</ele>
        <time>2016-12-31T14:21:15Z</time>
      </trkpt>
      <trkpt lat="43.7402" lon="3.42961">
        <ele>284.6</ele>
        <time>2016-12-31T14:21:20Z</time>
      </trkpt>
      <trkpt lat="43.74028" lon="3.42964">
        <ele>285.1</ele>
        <time>2016-12-31T14:21:24Z</time>
      </trkpt>
      <trkpt lat="43.74035" lon="3.42971">
        <ele>285.4</ele>
        <time>2016-12-31T14:21:27Z</time>
      </trkpt>
      <trkpt lat="43.74042" lon="3.42977">
        <ele>285.9</ele>
        <time>2016-12-31T14:21:30Z</time>
      </trkpt>
      <trkpt lat="43.74051" lon="3.42983">
        <ele>286.3</ele>
        <time>2016-12-31T14:21:33Z</time>
      </trkpt>
      <trkpt lat="43.74059" lon="3.42985">
        <ele>286.7</ele>
        <time>2016-12-31T14:21:35Z</time>
      </trkpt>
      <trkpt lat="43.74069" lon="3.42988">
        <ele>287.2</ele>
        <time>2016-12-31T14:21:38Z</time>
      </trkpt>
      <trkpt lat="43.74076" lon="3.42989">
        <ele>288.2</ele>
        <time>2016-12-31T14:21:40Z</time>
      </trkpt>
      <trkpt lat="43.74085" lon="3.42992">
        <ele>288.4</ele>
        <time>2016-12-31T14:21:43Z</time>
      </trkpt>
      <trkpt lat="43.74093" lon="3.42999">
        <ele>288.6</ele>
        <time>2016-12-31T14:21:47Z</time>
      </trkpt>
      <trkpt lat="43.74099" lon="3.43006">
        <ele>288.7</ele>
        <time>2016-12-31T14:21:50Z</time>
      </trkpt>
      <trkpt lat="43.74107" lon="3.43014">
        <ele>288.8</ele>
        <time>2016-12-31T14:21:53Z</time>
      </trkpt>
      <trkpt lat="43.74114" lon="3.4302">
        <ele>289</ele>
        <time>2016-12-31T14:21:55Z</time>
      </trkpt>
      <trkpt lat="43.74122" lon="3.43026">
        <ele>289.3</ele>
        <time>2016-12-31T14:21:58Z</time>
      </trkpt>
      <trkpt lat="43.74131" lon="3.43032">
        <ele>289.7</ele>
        <time>2016-12-31T14:22:01Z</time>
      </trkpt>
      <trkpt lat="43.7414" lon="3.43038">
        <ele>289.8</ele>
        <time>2016-12-31T14:22:03Z</time>
      </trkpt>
      <trkpt lat="43.74149" lon="3.43043">
        <ele>290.1</ele>
        <time>2016-12-31T14:22:06Z</time>
      </trkpt>
      <trkpt lat="43.74156" lon="3.43048">
        <ele>290.3</ele>
        <time>2016-12-31T14:22:10Z</time>
      </trkpt>
      <trkpt lat="43.74167" lon="3.43049">
        <ele>290.6</ele>
        <time>2016-12-31T14:22:13Z</time>
      </trkpt>
      <trkpt lat="43.74174" lon="3.43047">
        <ele>290.8</ele>
        <time>2016-12-31T14:22:15Z</time>
      </trkpt>
      <trkpt lat="43.74181" lon="3.43044">
        <ele>291</ele>
        <time>2016-12-31T14:22:17Z</time>
      </trkpt>
      <trkpt lat="43.7419" lon="3.43043">
        <ele>291</ele>
        <time>2016-12-31T14:22:20Z</time>
      </trkpt>
      <trkpt lat="43.74198" lon="3.43047">
        <ele>291.1</ele>
        <time>2016-12-31T14:22:23Z</time>
      </trkpt>
      <trkpt lat="43.74206" lon="3.43051">
        <ele>291.7</ele>
        <time>2016-12-31T14:22:25Z</time>
      </trkpt>
      <trkpt lat="43.74216" lon="3.43057">
        <ele>291.7</ele>
        <time>2016-12-31T14:22:27Z</time>
      </trkpt>
      <trkpt lat="43.74224" lon="3.43061">
        <ele>291.7</ele>
        <time>2016-12-31T14:22:29Z</time>
      </trkpt>
      <trkpt lat="43.74232" lon="3.43065">
        <ele>291.7</ele>
        <time>2016-12-31T14:22:32Z</time>
      </trkpt>
      <trkpt lat="43.74244" lon="3.43067">
        <ele>291.8</ele>
        <time>2016-12-31T14:22:35Z</time>
      </trkpt>
      <trkpt lat="43.74253" lon="3.43069">
        <ele>291.8</ele>
        <time>2016-12-31T14:22:38Z</time>
      </trkpt>
      <trkpt lat="43.74262" lon="3.43073">
        <ele>291.8</ele>
        <time>2016-12-31T14:22:42Z</time>
      </trkpt>
      <trkpt lat="43.7427" lon="3.43077">
        <ele>291.7</ele>
        <time>2016-12-31T14:22:45Z</time>
      </trkpt>
      <trkpt lat="43.74278" lon="3.43082">
        <ele>291.7</ele>
        <time>2016-12-31T14:22:48Z</time>
      </trkpt>
      <trkpt lat="43.74285" lon="3.43086">
        <ele>291.8</ele>
        <time>2016-12-31T14:22:51Z</time>
      </trkpt>
      <trkpt lat="43.74293" lon="3.43092">
        <ele>291.9</ele>
        <time>2016-12-31T14:22:54Z</time>
      </trkpt>
      <trkpt lat="43.743" lon="3.43097">
        <ele>292.2</ele>
        <time>2016-12-31T14:22:58Z</time>
      </trkpt>
      <trkpt lat="43.74306" lon="3.43103">
        <ele>292.4</ele>
        <time>2016-12-31T14:23:00Z</time>
      </trkpt>
      <trkpt lat="43.74315" lon="3.43108">
        <ele>293</ele>
        <time>2016-12-31T14:23:02Z</time>
      </trkpt>
      <trkpt lat="43.74325" lon="3.43112">
        <ele>293.7</ele>
        <time>2016-12-31T14:23:04Z</time>
      </trkpt>
      <trkpt lat="43.74333" lon="3.43116">
        <ele>294.4</ele>
        <time>2016-12-31T14:23:06Z</time>
      </trkpt>
      <trkpt lat="43.74342" lon="3.43117">
        <ele>294.4</ele>
        <time>2016-12-31T14:23:08Z</time>
      </trkpt>
      <trkpt lat="43.74351" lon="3.43119">
        <ele>294.3</ele>
        <time>2016-12-31T14:23:11Z</time>
      </trkpt>
      <trkpt lat="43.74361" lon="3.43121">
        <ele>294.4</ele>
        <time>2016-12-31T14:23:14Z</time>
      </trkpt>
      <trkpt lat="43.74371" lon="3.43121">
        <ele>294.3</ele>
        <time>2016-12-31T14:23:17Z</time>
      </trkpt>
      <trkpt lat="43.7438" lon="3.4312">
        <ele>294.2</ele>
        <time>2016-12-31T14:23:20Z</time>
      </trkpt>
      <trkpt lat="43.74388" lon="3.43119">
        <ele>294</ele>
        <time>2016-12-31T14:23:23Z</time>
      </trkpt>
      <trkpt lat="43.74397" lon="3.43119">
        <ele>293.9</ele>
        <time>2016-12-31T14:23:26Z</time>
      </trkpt>
      <trkpt lat="43.74408" lon="3.43119">
        <ele>293.3</ele>
        <time>2016-12-31T14:23:28Z</time>
      </trkpt>
      <trkpt lat="43.74418" lon="3.43119">
        <ele>293.2</ele>
        <time>2016-12-31T14:23:30Z</time>
      </trkpt>
      <trkpt lat="43.74426" lon="3.43118">
        <ele>293.2</ele>
        <time>2016-12-31T14:23:32Z</time>
      </trkpt>
      <trkpt lat="43.74434" lon="3.43116">
        <ele>293.3</ele>
        <time>2016-12-31T14:23:34Z</time>
      </trkpt>
      <trkpt lat="43.74442" lon="3.43118">
        <ele>293.4</ele>
        <time>2016-12-31T14:23:37Z</time>
      </trkpt>
      <trkpt lat="43.74451" lon="3.43124">
        <ele>293.9</ele>
        <time>2016-12-31T14:23:40Z</time>
      </trkpt>
      <trkpt lat="43.74459" lon="3.43124">
        <ele>294</ele>
        <time>2016-12-31T14:23:43Z</time>
      </trkpt>
      <trkpt lat="43.74469" lon="3.43123">
        <ele>294</ele>
        <time>2016-12-31T14:23:46Z</time>
      </trkpt>
      <trkpt lat="43.74477" lon="3.43118">
        <ele>294</ele>
        <time>2016-12-31T14:23:49Z</time>
      </trkpt>
      <trkpt lat="43.74484" lon="3.43114">
        <ele>294</ele>
        <time>2016-12-31T14:23:51Z</time>
      </trkpt>
      <trkpt lat="43.74492" lon="3.43114">
        <ele>293.9</ele>
        <time>2016-12-31T14:23:54Z</time>
      </trkpt>
      <trkpt lat="43.74499" lon="3.43117">
        <ele>294</ele>
        <time>2016-12-31T14:23:57Z</time>
      </trkpt>
      <trkpt lat="43.74508" lon="3.43119">
        <ele>293.9</ele>
        <time>2016-12-31T14:24:01Z</time>
      </trkpt>
      <trkpt lat="43.74516" lon="3.43121">
        <ele>293.8</ele>
        <time>2016-12-31T14:24:05Z</time>
      </trkpt>
      <trkpt lat="43.74524" lon="3.43123">
        <ele>293.9</ele>
        <time>2016-12-31T14:24:09Z</time>
      </trkpt>
      <trkpt lat="43.74533" lon="3.43125">
        <ele>293.8</ele>
        <time>2016-12-31T14:24:13Z</time>
      </trkpt>
      <trkpt lat="43.74541" lon="3.4313">
        <ele>294.1</ele>
        <time>2016-12-31T14:24:17Z</time>
      </trkpt>
      <trkpt lat="43.7455" lon="3.43132">
        <ele>294.4</ele>
        <time>2016-12-31T14:24:21Z</time>
      </trkpt>
      <trkpt lat="43.74558" lon="3.43137">
        <ele>294.7</ele>
        <time>2016-12-31T14:24:25Z</time>
      </trkpt>
      <trkpt lat="43.74564" lon="3.43142">
        <ele>295</ele>
        <time>2016-12-31T14:24:30Z</time>
      </trkpt>
      <trkpt lat="43.74573" lon="3.43146">
        <ele>295.7</ele>
        <time>2016-12-31T14:24:35Z</time>
      </trkpt>
      <trkpt lat="43.74581" lon="3.43151">
        <ele>296.1</ele>
        <time>2016-12-31T14:24:38Z</time>
      </trkpt>
      <trkpt lat="43.74589" lon="3.43153">
        <ele>296.6</ele>
        <time>2016-12-31T14:24:41Z</time>
      </trkpt>
      <trkpt lat="43.74596" lon="3.43157">
        <ele>296.8</ele>
        <time>2016-12-31T14:24:44Z</time>
      </trkpt>
      <trkpt lat="43.74603" lon="3.43159">
        <ele>296.9</ele>
        <time>2016-12-31T14:24:47Z</time>
      </trkpt>
      <trkpt lat="43.74611" lon="3.43163">
        <ele>297.4</ele>
        <time>2016-12-31T14:24:51Z</time>
      </trkpt>
      <trkpt lat="43.74619" lon="3.43166">
        <ele>297.8</ele>
        <time>2016-12-31T14:24:55Z</time>
      </trkpt>
      <trkpt lat="43.74627" lon="3.43169">
        <ele>298.3</ele>
        <time>2016-12-31T14:24:59Z</time>
      </trkpt>
      <trkpt lat="43.74636" lon="3.43173">
        <ele>298.6</ele>
        <time>2016-12-31T14:25:03Z</time>
      </trkpt>
      <trkpt lat="43.74645" lon="3.43176">
        <ele>298.6</ele>
        <time>2016-12-31T14:25:07Z</time>
      </trkpt>
      <trkpt lat="43.74654" lon="3.4318">
        <ele>298.6</ele>
        <time>2016-12-31T14:25:11Z</time>
      </trkpt>
      <trkpt lat="43.74662" lon="3.43184">
        <ele>299</ele>
        <time>2016-12-31T14:25:15Z</time>
      </trkpt>
      <trkpt lat="43.74669" lon="3.4319">
        <ele>299.2</ele>
        <time>2016-12-31T14:25:19Z</time>
      </trkpt>
      <trkpt lat="43.74677" lon="3.43189">
        <ele>299.1</ele>
        <time>2016-12-31T14:25:23Z</time>
      </trkpt>
      <trkpt lat="43.74684" lon="3.43188">
        <ele>299.6</ele>
        <time>2016-12-31T14:25:30Z</time>
      </trkpt>
      <trkpt lat="43.74693" lon="3.43185">
        <ele>299.9</ele>
        <time>2016-12-31T14:25:33Z</time>
      </trkpt>
      <trkpt lat="43.74702" lon="3.43185">
        <ele>300.3</ele>
        <time>2016-12-31T14:25:37Z</time>
      </trkpt>
      <trkpt lat="43.74709" lon="3.43185">
        <ele>300.6</ele>
        <time>2016-12-31T14:25:40Z</time>
      </trkpt>
      <trkpt lat="43.74717" lon="3.43185">
        <ele>301.1</ele>
        <time>2016-12-31T14:25:43Z</time>
      </trkpt>
      <trkpt lat="43.74726" lon="3.43186">
        <ele>301.5</ele>
        <time>2016-12-31T14:25:47Z</time>
      </trkpt>
      <trkpt lat="43.74733" lon="3.43187">
        <ele>302.1</ele>
        <time>2016-12-31T14:25:51Z</time>
      </trkpt>
      <trkpt lat="43.74741" lon="3.4319">
        <ele>302.8</ele>
        <time>2016-12-31T14:25:55Z</time>
      </trkpt>
      <trkpt lat="43.7475" lon="3.43193">
        <ele>303.6</ele>
        <time>2016-12-31T14:26:00Z</time>
      </trkpt>
      <trkpt lat="43.74758" lon="3.43193">
        <ele>304.3</ele>
        <time>2016-12-31T14:26:04Z</time>
      </trkpt>
      <trkpt lat="43.74766" lon="3.43196">
        <ele>304.8</ele>
        <time>2016-12-31T14:26:08Z</time>
      </trkpt>
      <trkpt lat="43.74774" lon="3.43198">
        <ele>305.4</ele>
        <time>2016-12-31T14:26:12Z</time>
      </trkpt>
      <trkpt lat="43.74782" lon="3.43199">
        <ele>306.3</ele>
        <time>2016-12-31T14:26:16Z</time>
      </trkpt>
      <trkpt lat="43.74791" lon="3.43202">
        <ele>307.4</ele>
        <time>2016-12-31T14:26:21Z</time>
      </trkpt>
      <trkpt lat="43.74799" lon="3.43205">
        <ele>308.1</ele>
        <time>2016-12-31T14:26:24Z</time>
      </trkpt>
      <trkpt lat="43.74808" lon="3.43205">
        <ele>308.7</ele>
        <time>2016-12-31T14:26:28Z</time>
      </trkpt>
      <trkpt lat="43.74815" lon="3.43204">
        <ele>309.2</ele>
        <time>2016-12-31T14:26:31Z</time>
      </trkpt>
      <trkpt lat="43.74823" lon="3.43205">
        <ele>309.6</ele>
        <time>2016-12-31T14:26:36Z</time>
      </trkpt>
      <trkpt lat="43.74831" lon="3.43205">
        <ele>309.9</ele>
        <time>2016-12-31T14:26:42Z</time>
      </trkpt>
      <trkpt lat="43.74838" lon="3.43208">
        <ele>310.6</ele>
        <time>2016-12-31T14:26:49Z</time>
      </trkpt>
      <trkpt lat="43.74848" lon="3.43209">
        <ele>310.8</ele>
        <time>2016-12-31T14:26:53Z</time>
      </trkpt>
      <trkpt lat="43.74856" lon="3.4321">
        <ele>311</ele>
        <time>2016-12-31T14:26:55Z</time>
      </trkpt>
      <trkpt lat="43.74865" lon="3.43213">
        <ele>311.4</ele>
        <time>2016-12-31T14:26:58Z</time>
      </trkpt>
      <trkpt lat="43.74874" lon="3.43215">
        <ele>311.5</ele>
        <time>2016-12-31T14:27:01Z</time>
      </trkpt>
      <trkpt lat="43.74884" lon="3.43214">
        <ele>311.7</ele>
        <time>2016-12-31T14:27:04Z</time>
      </trkpt>
      <trkpt lat="43.74892" lon="3.43215">
        <ele>311.8</ele>
        <time>2016-12-31T14:27:06Z</time>
      </trkpt>
      <trkpt lat="43.74901" lon="3.43215">
        <ele>312.2</ele>
        <time>2016-12-31T14:27:09Z</time>
      </trkpt>
      <trkpt lat="43.74909" lon="3.43215">
        <ele>312.6</ele>
        <time>2016-12-31T14:27:12Z</time>
      </trkpt>
      <trkpt lat="43.74916" lon="3.43216">
        <ele>312.7</ele>
        <time>2016-12-31T14:27:14Z</time>
      </trkpt>
      <trkpt lat="43.74926" lon="3.43217">
        <ele>312.9</ele>
        <time>2016-12-31T14:27:17Z</time>
      </trkpt>
      <trkpt lat="43.74935" lon="3.43219">
        <ele>313</ele>
        <time>2016-12-31T14:27:20Z</time>
      </trkpt>
      <trkpt lat="43.74944" lon="3.43212">
        <ele>313.2</ele>
        <time>2016-12-31T14:27:23Z</time>
      </trkpt>
      <trkpt lat="43.74947" lon="3.43203">
        <ele>313.4</ele>
        <time>2016-12-31T14:27:26Z</time>
      </trkpt>
      <trkpt lat="43.7494" lon="3.43195">
        <ele>313.7</ele>
        <time>2016-12-31T14:27:30Z</time>
      </trkpt>
      <trkpt lat="43.7493" lon="3.4319">
        <ele>314.2</ele>
        <time>2016-12-31T14:27:34Z</time>
      </trkpt>
      <trkpt lat="43.74921" lon="3.43186">
        <ele>314.7</ele>
        <time>2016-12-31T14:27:38Z</time>
      </trkpt>
      <trkpt lat="43.74912" lon="3.43182">
        <ele>315.1</ele>
        <time>2016-12-31T14:27:41Z</time>
      </trkpt>
      <trkpt lat="43.74904" lon="3.43178">
        <ele>315.7</ele>
        <time>2016-12-31T14:27:44Z</time>
      </trkpt>
      <trkpt lat="43.74896" lon="3.43175">
        <ele>316.2</ele>
        <time>2016-12-31T14:27:47Z</time>
      </trkpt>
      <trkpt lat="43.74888" lon="3.43172">
        <ele>316.5</ele>
        <time>2016-12-31T14:27:50Z</time>
      </trkpt>
      <trkpt lat="43.74879" lon="3.43167">
        <ele>317</ele>
        <time>2016-12-31T14:27:54Z</time>
      </trkpt>
      <trkpt lat="43.74871" lon="3.43162">
        <ele>317.1</ele>
        <time>2016-12-31T14:27:57Z</time>
      </trkpt>
      <trkpt lat="43.74863" lon="3.43155">
        <ele>317.6</ele>
        <time>2016-12-31T14:28:01Z</time>
      </trkpt>
      <trkpt lat="43.74857" lon="3.43148">
        <ele>317.9</ele>
        <time>2016-12-31T14:28:04Z</time>
      </trkpt>
      <trkpt lat="43.74851" lon="3.4314">
        <ele>318.5</ele>
        <time>2016-12-31T14:28:07Z</time>
      </trkpt>
      <trkpt lat="43.74845" lon="3.43135">
        <ele>318.9</ele>
        <time>2016-12-31T14:28:10Z</time>
      </trkpt>
      <trkpt lat="43.74839" lon="3.43129">
        <ele>319.3</ele>
        <time>2016-12-31T14:28:12Z</time>
      </trkpt>
      <trkpt lat="43.7483" lon="3.43121">
        <ele>319.6</ele>
        <time>2016-12-31T14:28:15Z</time>
      </trkpt>
      <trkpt lat="43.74824" lon="3.43117">
        <ele>319.6</ele>
        <time>2016-12-31T14:28:17Z</time>
      </trkpt>
      <trkpt lat="43.74817" lon="3.43112">
        <ele>319.6</ele>
        <time>2016-12-31T14:28:19Z</time>
      </trkpt>
      <trkpt lat="43.74809" lon="3.43108">
        <ele>319.6</ele>
        <time>2016-12-31T14:28:22Z</time>
      </trkpt>
      <trkpt lat="43.74801" lon="3.43103">
        <ele>319.6</ele>
        <time>2016-12-31T14:28:26Z</time>
      </trkpt>
      <trkpt lat="43.74793" lon="3.43096">
        <ele>319.6</ele>
        <time>2016-12-31T14:28:29Z</time>
      </trkpt>
      <trkpt lat="43.74787" lon="3.43089">
        <ele>319.5</ele>
        <time>2016-12-31T14:28:32Z</time>
      </trkpt>
      <trkpt lat="43.7478" lon="3.43082">
        <ele>319.5</ele>
        <time>2016-12-31T14:28:36Z</time>
      </trkpt>
      <trkpt lat="43.74773" lon="3.43076">
        <ele>319.6</ele>
        <time>2016-12-31T14:28:39Z</time>
      </trkpt>
      <trkpt lat="43.74765" lon="3.43068">
        <ele>319.9</ele>
        <time>2016-12-31T14:28:43Z</time>
      </trkpt>
      <trkpt lat="43.74759" lon="3.43061">
        <ele>319.9</ele>
        <time>2016-12-31T14:28:46Z</time>
      </trkpt>
      <trkpt lat="43.74752" lon="3.43054">
        <ele>319.9</ele>
        <time>2016-12-31T14:28:49Z</time>
      </trkpt>
      <trkpt lat="43.74743" lon="3.43049">
        <ele>320.1</ele>
        <time>2016-12-31T14:28:51Z</time>
      </trkpt>
      <trkpt lat="43.74734" lon="3.43046">
        <ele>320.1</ele>
        <time>2016-12-31T14:28:54Z</time>
      </trkpt>
      <trkpt lat="43.74726" lon="3.43042">
        <ele>320.2</ele>
        <time>2016-12-31T14:28:57Z</time>
      </trkpt>
      <trkpt lat="43.74718" lon="3.4304">
        <ele>320.4</ele>
        <time>2016-12-31T14:29:00Z</time>
      </trkpt>
      <trkpt lat="43.74711" lon="3.43036">
        <ele>320.6</ele>
        <time>2016-12-31T14:29:03Z</time>
      </trkpt>
      <trkpt lat="43.74703" lon="3.4303">
        <ele>321</ele>
        <time>2016-12-31T14:29:06Z</time>
      </trkpt>
      <trkpt lat="43.74694" lon="3.43023">
        <ele>321.3</ele>
        <time>2016-12-31T14:29:09Z</time>
      </trkpt>
      <trkpt lat="43.74688" lon="3.43017">
        <ele>321.6</ele>
        <time>2016-12-31T14:29:12Z</time>
      </trkpt>
      <trkpt lat="43.74681" lon="3.43012">
        <ele>321.9</ele>
        <time>2016-12-31T14:29:15Z</time>
      </trkpt>
      <trkpt lat="43.74673" lon="3.43005">
        <ele>322.2</ele>
        <time>2016-12-31T14:29:18Z</time>
      </trkpt>
      <trkpt lat="43.74666" lon="3.43">
        <ele>322.5</ele>
        <time>2016-12-31T14:29:21Z</time>
      </trkpt>
      <trkpt lat="43.74658" lon="3.42993">
        <ele>322.9</ele>
        <time>2016-12-31T14:29:25Z</time>
      </trkpt>
      <trkpt lat="43.74651" lon="3.42987">
        <ele>323.3</ele>
        <time>2016-12-31T14:29:29Z</time>
      </trkpt>
      <trkpt lat="43.74645" lon="3.42982">
        <ele>323.5</ele>
        <time>2016-12-31T14:29:32Z</time>
      </trkpt>
      <trkpt lat="43.74636" lon="3.42978">
        <ele>324.1</ele>
        <time>2016-12-31T14:29:36Z</time>
      </trkpt>
      <trkpt lat="43.74627" lon="3.42977">
        <ele>324.7</ele>
        <time>2016-12-31T14:29:40Z</time>
      </trkpt>
      <trkpt lat="43.74618" lon="3.42978">
        <ele>325.4</ele>
        <time>2016-12-31T14:29:44Z</time>
      </trkpt>
      <trkpt lat="43.7461" lon="3.42978">
        <ele>325.8</ele>
        <time>2016-12-31T14:29:48Z</time>
      </trkpt>
      <trkpt lat="43.74602" lon="3.42976">
        <ele>326</ele>
        <time>2016-12-31T14:29:51Z</time>
      </trkpt>
      <trkpt lat="43.74593" lon="3.42973">
        <ele>326</ele>
        <time>2016-12-31T14:29:54Z</time>
      </trkpt>
      <trkpt lat="43.74586" lon="3.4297">
        <ele>326.1</ele>
        <time>2016-12-31T14:29:57Z</time>
      </trkpt>
      <trkpt lat="43.74578" lon="3.42967">
        <ele>326.3</ele>
        <time>2016-12-31T14:30:01Z</time>
      </trkpt>
      <trkpt lat="43.7457" lon="3.42965">
        <ele>326.7</ele>
        <time>2016-12-31T14:30:04Z</time>
      </trkpt>
      <trkpt lat="43.74563" lon="3.42963">
        <ele>327.2</ele>
        <time>2016-12-31T14:30:07Z</time>
      </trkpt>
      <trkpt lat="43.74554" lon="3.42961">
        <ele>327.7</ele>
        <time>2016-12-31T14:30:10Z</time>
      </trkpt>
      <trkpt lat="43.74544" lon="3.42959">
        <ele>328.1</ele>
        <time>2016-12-31T14:30:13Z</time>
      </trkpt>
      <trkpt lat="43.74535" lon="3.42956">
        <ele>328.8</ele>
        <time>2016-12-31T14:30:17Z</time>
      </trkpt>
      <trkpt lat="43.74527" lon="3.42954">
        <ele>329.4</ele>
        <time>2016-12-31T14:30:21Z</time>
      </trkpt>
      <trkpt lat="43.74519" lon="3.42952">
        <ele>330</ele>
        <time>2016-12-31T14:30:24Z</time>
      </trkpt>
      <trkpt lat="43.74511" lon="3.4295">
        <ele>330.6</ele>
        <time>2016-12-31T14:30:27Z</time>
      </trkpt>
      <trkpt lat="43.74503" lon="3.42947">
        <ele>331.4</ele>
        <time>2016-12-31T14:30:32Z</time>
      </trkpt>
      <trkpt lat="43.74496" lon="3.42942">
        <ele>331.8</ele>
        <time>2016-12-31T14:30:35Z</time>
      </trkpt>
      <trkpt lat="43.74488" lon="3.4294">
        <ele>332.4</ele>
        <time>2016-12-31T14:30:38Z</time>
      </trkpt>
      <trkpt lat="43.74481" lon="3.42935">
        <ele>332.9</ele>
        <time>2016-12-31T14:30:41Z</time>
      </trkpt>
      <trkpt lat="43.74473" lon="3.42934">
        <ele>333.4</ele>
        <time>2016-12-31T14:30:44Z</time>
      </trkpt>
      <trkpt lat="43.74465" lon="3.42934">
        <ele>334.2</ele>
        <time>2016-12-31T14:30:48Z</time>
      </trkpt>
      <trkpt lat="43.74457" lon="3.42933">
        <ele>334.7</ele>
        <time>2016-12-31T14:30:51Z</time>
      </trkpt>
      <trkpt lat="43.74448" lon="3.42933">
        <ele>335.4</ele>
        <time>2016-12-31T14:30:55Z</time>
      </trkpt>
      <trkpt lat="43.74439" lon="3.42933">
        <ele>336.1</ele>
        <time>2016-12-31T14:31:00Z</time>
      </trkpt>
      <trkpt lat="43.74431" lon="3.4293">
        <ele>336.6</ele>
        <time>2016-12-31T14:31:04Z</time>
      </trkpt>
      <trkpt lat="43.74424" lon="3.42927">
        <ele>337</ele>
        <time>2016-12-31T14:31:07Z</time>
      </trkpt>
      <trkpt lat="43.74416" lon="3.42921">
        <ele>337.6</ele>
        <time>2016-12-31T14:31:12Z</time>
      </trkpt>
      <trkpt lat="43.74408" lon="3.42917">
        <ele>338.5</ele>
        <time>2016-12-31T14:31:16Z</time>
      </trkpt>
      <trkpt lat="43.74401" lon="3.42914">
        <ele>339.5</ele>
        <time>2016-12-31T14:31:20Z</time>
      </trkpt>
      <trkpt lat="43.74394" lon="3.42913">
        <ele>340.2</ele>
        <time>2016-12-31T14:31:24Z</time>
      </trkpt>
      <trkpt lat="43.74384" lon="3.42912">
        <ele>341.1</ele>
        <time>2016-12-31T14:31:28Z</time>
      </trkpt>
      <trkpt lat="43.74376" lon="3.42911">
        <ele>342</ele>
        <time>2016-12-31T14:31:33Z</time>
      </trkpt>
      <trkpt lat="43.74368" lon="3.4291">
        <ele>343</ele>
        <time>2016-12-31T14:31:37Z</time>
      </trkpt>
      <trkpt lat="43.74359" lon="3.42907">
        <ele>343.9</ele>
        <time>2016-12-31T14:31:41Z</time>
      </trkpt>
      <trkpt lat="43.74352" lon="3.42906">
        <ele>344.9</ele>
        <time>2016-12-31T14:31:45Z</time>
      </trkpt>
      <trkpt lat="43.74343" lon="3.42904">
        <ele>345.9</ele>
        <time>2016-12-31T14:31:49Z</time>
      </trkpt>
      <trkpt lat="43.74333" lon="3.42901">
        <ele>346.4</ele>
        <time>2016-12-31T14:31:53Z</time>
      </trkpt>
      <trkpt lat="43.74327" lon="3.42897">
        <ele>346.7</ele>
        <time>2016-12-31T14:31:56Z</time>
      </trkpt>
      <trkpt lat="43.7432" lon="3.42895">
        <ele>347</ele>
        <time>2016-12-31T14:32:00Z</time>
      </trkpt>
      <trkpt lat="43.74312" lon="3.42892">
        <ele>347.6</ele>
        <time>2016-12-31T14:32:04Z</time>
      </trkpt>
      <trkpt lat="43.74304" lon="3.42889">
        <ele>348.4</ele>
        <time>2016-12-31T14:32:09Z</time>
      </trkpt>
      <trkpt lat="43.74295" lon="3.42888">
        <ele>349.2</ele>
        <time>2016-12-31T14:32:13Z</time>
      </trkpt>
      <trkpt lat="43.74286" lon="3.42886">
        <ele>349.8</ele>
        <time>2016-12-31T14:32:17Z</time>
      </trkpt>
      <trkpt lat="43.74278" lon="3.42881">
        <ele>350.5</ele>
        <time>2016-12-31T14:32:21Z</time>
      </trkpt>
      <trkpt lat="43.74272" lon="3.42877">
        <ele>351</ele>
        <time>2016-12-31T14:32:24Z</time>
      </trkpt>
      <trkpt lat="43.74264" lon="3.42871">
        <ele>351.4</ele>
        <time>2016-12-31T14:32:28Z</time>
      </trkpt>
      <trkpt lat="43.74257" lon="3.42864">
        <ele>352</ele>
        <time>2016-12-31T14:32:33Z</time>
      </trkpt>
      <trkpt lat="43.74252" lon="3.42856">
        <ele>352.4</ele>
        <time>2016-12-31T14:32:37Z</time>
      </trkpt>
      <trkpt lat="43.74246" lon="3.42848">
        <ele>352.9</ele>
        <time>2016-12-31T14:32:41Z</time>
      </trkpt>
      <trkpt lat="43.74239" lon="3.4284">
        <ele>353.2</ele>
        <time>2016-12-31T14:32:45Z</time>
      </trkpt>
      <trkpt lat="43.74234" lon="3.42832">
        <ele>353.5</ele>
        <time>2016-12-31T14:32:49Z</time>
      </trkpt>
      <trkpt lat="43.74228" lon="3.42822">
        <ele>353.8</ele>
        <time>2016-12-31T14:32:53Z</time>
      </trkpt>
      <trkpt lat="43.74223" lon="3.42814">
        <ele>354.1</ele>
        <time>2016-12-31T14:32:57Z</time>
      </trkpt>
      <trkpt lat="43.74218" lon="3.42805">
        <ele>354.3</ele>
        <time>2016-12-31T14:33:02Z</time>
      </trkpt>
      <trkpt lat="43.74211" lon="3.42797">
        <ele>354.4</ele>
        <time>2016-12-31T14:33:06Z</time>
      </trkpt>
      <trkpt lat="43.74204" lon="3.4279">
        <ele>354.4</ele>
        <time>2016-12-31T14:33:10Z</time>
      </trkpt>
      <trkpt lat="43.74197" lon="3.42786">
        <ele>354.5</ele>
        <time>2016-12-31T14:33:14Z</time>
      </trkpt>
      <trkpt lat="43.74189" lon="3.42781">
        <ele>354.7</ele>
        <time>2016-12-31T14:33:18Z</time>
      </trkpt>
      <trkpt lat="43.74181" lon="3.42777">
        <ele>355.4</ele>
        <time>2016-12-31T14:33:23Z</time>
      </trkpt>
      <trkpt lat="43.74172" lon="3.42772">
        <ele>356.4</ele>
        <time>2016-12-31T14:33:27Z</time>
      </trkpt>
      <trkpt lat="43.74164" lon="3.4277">
        <ele>357.3</ele>
        <time>2016-12-31T14:33:30Z</time>
      </trkpt>
      <trkpt lat="43.74157" lon="3.42768">
        <ele>358.6</ele>
        <time>2016-12-31T14:33:34Z</time>
      </trkpt>
      <trkpt lat="43.74149" lon="3.42763">
        <ele>360.3</ele>
        <time>2016-12-31T14:33:38Z</time>
      </trkpt>
      <trkpt lat="43.74142" lon="3.42758">
        <ele>361.8</ele>
        <time>2016-12-31T14:33:43Z</time>
      </trkpt>
      <trkpt lat="43.74133" lon="3.42754">
        <ele>363</ele>
        <time>2016-12-31T14:33:47Z</time>
      </trkpt>
      <trkpt lat="43.74125" lon="3.4275">
        <ele>364</ele>
        <time>2016-12-31T14:33:51Z</time>
      </trkpt>
      <trkpt lat="43.74116" lon="3.42748">
        <ele>364.6</ele>
        <time>2016-12-31T14:33:55Z</time>
      </trkpt>
      <trkpt lat="43.74107" lon="3.42748">
        <ele>364.9</ele>
        <time>2016-12-31T14:33:58Z</time>
      </trkpt>
      <trkpt lat="43.741" lon="3.42746">
        <ele>365.3</ele>
        <time>2016-12-31T14:34:01Z</time>
      </trkpt>
      <trkpt lat="43.7409" lon="3.42743">
        <ele>365.5</ele>
        <time>2016-12-31T14:34:04Z</time>
      </trkpt>
      <trkpt lat="43.74083" lon="3.42739">
        <ele>365.6</ele>
        <time>2016-12-31T14:34:08Z</time>
      </trkpt>
      <trkpt lat="43.74075" lon="3.42736">
        <ele>365.9</ele>
        <time>2016-12-31T14:34:12Z</time>
      </trkpt>
      <trkpt lat="43.74066" lon="3.42734">
        <ele>366.4</ele>
        <time>2016-12-31T14:34:16Z</time>
      </trkpt>
      <trkpt lat="43.74059" lon="3.42729">
        <ele>366.8</ele>
        <time>2016-12-31T14:34:20Z</time>
      </trkpt>
      <trkpt lat="43.74051" lon="3.42726">
        <ele>367.3</ele>
        <time>2016-12-31T14:34:24Z</time>
      </trkpt>
      <trkpt lat="43.74044" lon="3.42722">
        <ele>367.8</ele>
        <time>2016-12-31T14:34:28Z</time>
      </trkpt>
      <trkpt lat="43.74036" lon="3.42716">
        <ele>368.4</ele>
        <time>2016-12-31T14:34:33Z</time>
      </trkpt>
      <trkpt lat="43.74029" lon="3.4271">
        <ele>368.9</ele>
        <time>2016-12-31T14:34:37Z</time>
      </trkpt>
      <trkpt lat="43.74022" lon="3.42706">
        <ele>369.3</ele>
        <time>2016-12-31T14:34:40Z</time>
      </trkpt>
      <trkpt lat="43.74014" lon="3.42701">
        <ele>369.6</ele>
        <time>2016-12-31T14:34:43Z</time>
      </trkpt>
      <trkpt lat="43.74008" lon="3.42696">
        <ele>369.8</ele>
        <time>2016-12-31T14:34:46Z</time>
      </trkpt>
      <trkpt lat="43.74002" lon="3.4269">
        <ele>370.1</ele>
        <time>2016-12-31T14:34:50Z</time>
      </trkpt>
      <trkpt lat="43.73996" lon="3.42682">
        <ele>370.5</ele>
        <time>2016-12-31T14:34:54Z</time>
      </trkpt>
      <trkpt lat="43.73991" lon="3.42673">
        <ele>371</ele>
        <time>2016-12-31T14:34:57Z</time>
      </trkpt>
      <trkpt lat="43.73985" lon="3.42665">
        <ele>371.4</ele>
        <time>2016-12-31T14:35:00Z</time>
      </trkpt>
      <trkpt lat="43.7398" lon="3.42659">
        <ele>371.7</ele>
        <time>2016-12-31T14:35:03Z</time>
      </trkpt>
      <trkpt lat="43.73972" lon="3.42649">
        <ele>372.1</ele>
        <time>2016-12-31T14:35:07Z</time>
      </trkpt>
      <trkpt lat="43.73966" lon="3.42643">
        <ele>372.7</ele>
        <time>2016-12-31T14:35:11Z</time>
      </trkpt>
      <trkpt lat="43.73961" lon="3.42635">
        <ele>373.3</ele>
        <time>2016-12-31T14:35:15Z</time>
      </trkpt>
      <trkpt lat="43.73955" lon="3.42629">
        <ele>373.6</ele>
        <time>2016-12-31T14:35:18Z</time>
      </trkpt>
      <trkpt lat="43.73948" lon="3.42621">
        <ele>374</ele>
        <time>2016-12-31T14:35:22Z</time>
      </trkpt>
      <trkpt lat="43.73943" lon="3.42614">
        <ele>374.5</ele>
        <time>2016-12-31T14:35:25Z</time>
      </trkpt>
      <trkpt lat="43.73935" lon="3.42605">
        <ele>375.2</ele>
        <time>2016-12-31T14:35:29Z</time>
      </trkpt>
      <trkpt lat="43.73929" lon="3.42598">
        <ele>375.8</ele>
        <time>2016-12-31T14:35:33Z</time>
      </trkpt>
      <trkpt lat="43.73923" lon="3.4259">
        <ele>376.2</ele>
        <time>2016-12-31T14:35:37Z</time>
      </trkpt>
      <trkpt lat="43.73916" lon="3.42582">
        <ele>376.5</ele>
        <time>2016-12-31T14:35:40Z</time>
      </trkpt>
      <trkpt lat="43.73909" lon="3.42575">
        <ele>376.9</ele>
        <time>2016-12-31T14:35:43Z</time>
      </trkpt>
      <trkpt lat="43.73902" lon="3.42569">
        <ele>377.3</ele>
        <time>2016-12-31T14:35:46Z</time>
      </trkpt>
      <trkpt lat="43.73896" lon="3.42563">
        <ele>377.9</ele>
        <time>2016-12-31T14:35:50Z</time>
      </trkpt>
      <trkpt lat="43.73889" lon="3.42555">
        <ele>378.1</ele>
        <time>2016-12-31T14:35:54Z</time>
      </trkpt>
      <trkpt lat="43.73884" lon="3.42548">
        <ele>378.2</ele>
        <time>2016-12-31T14:35:57Z</time>
      </trkpt>
      <trkpt lat="43.73878" lon="3.42542">
        <ele>378.3</ele>
        <time>2016-12-31T14:36:00Z</time>
      </trkpt>
      <trkpt lat="43.73872" lon="3.42534">
        <ele>378.6</ele>
        <time>2016-12-31T14:36:04Z</time>
      </trkpt>
      <trkpt lat="43.73865" lon="3.42527">
        <ele>378.9</ele>
        <time>2016-12-31T14:36:08Z</time>
      </trkpt>
      <trkpt lat="43.7386" lon="3.42519">
        <ele>379.1</ele>
        <time>2016-12-31T14:36:11Z</time>
      </trkpt>
      <trkpt lat="43.73855" lon="3.42509">
        <ele>379.4</ele>
        <time>2016-12-31T14:36:15Z</time>
      </trkpt>
      <trkpt lat="43.7385" lon="3.425">
        <ele>379.7</ele>
        <time>2016-12-31T14:36:18Z</time>
      </trkpt>
      <trkpt lat="43.73844" lon="3.42492">
        <ele>380</ele>
        <time>2016-12-31T14:36:21Z</time>
      </trkpt>
      <trkpt lat="43.73837" lon="3.42484">
        <ele>380.3</ele>
        <time>2016-12-31T14:36:25Z</time>
      </trkpt>
      <trkpt lat="43.7383" lon="3.42476">
        <ele>380.7</ele>
        <time>2016-12-31T14:36:29Z</time>
      </trkpt>
      <trkpt lat="43.73824" lon="3.4247">
        <ele>381</ele>
        <time>2016-12-31T14:36:33Z</time>
      </trkpt>
      <trkpt lat="43.73817" lon="3.4246">
        <ele>381.1</ele>
        <time>2016-12-31T14:36:37Z</time>
      </trkpt>
      <trkpt lat="43.73812" lon="3.42452">
        <ele>381.3</ele>
        <time>2016-12-31T14:36:40Z</time>
      </trkpt>
      <trkpt lat="43.73807" lon="3.42445">
        <ele>381.8</ele>
        <time>2016-12-31T14:36:44Z</time>
      </trkpt>
      <trkpt lat="43.738" lon="3.42437">
        <ele>382.4</ele>
        <time>2016-12-31T14:36:48Z</time>
      </trkpt>
      <trkpt lat="43.73795" lon="3.42429">
        <ele>382.9</ele>
        <time>2016-12-31T14:36:51Z</time>
      </trkpt>
      <trkpt lat="43.73788" lon="3.42422">
        <ele>383.6</ele>
        <time>2016-12-31T14:36:55Z</time>
      </trkpt>
      <trkpt lat="43.73782" lon="3.42413">
        <ele>384.5</ele>
        <time>2016-12-31T14:36:59Z</time>
      </trkpt>
      <trkpt lat="43.73777" lon="3.42404">
        <ele>385.3</ele>
        <time>2016-12-31T14:37:04Z</time>
      </trkpt>
      <trkpt lat="43.73772" lon="3.42397">
        <ele>385.6</ele>
        <time>2016-12-31T14:37:07Z</time>
      </trkpt>
      <trkpt lat="43.73765" lon="3.42391">
        <ele>386.1</ele>
        <time>2016-12-31T14:37:11Z</time>
      </trkpt>
      <trkpt lat="43.73758" lon="3.42385">
        <ele>386.6</ele>
        <time>2016-12-31T14:37:14Z</time>
      </trkpt>
      <trkpt lat="43.73751" lon="3.42379">
        <ele>387.1</ele>
        <time>2016-12-31T14:37:17Z</time>
      </trkpt>
      <trkpt lat="43.73742" lon="3.42373">
        <ele>387.5</ele>
        <time>2016-12-31T14:37:21Z</time>
      </trkpt>
      <trkpt lat="43.73736" lon="3.42369">
        <ele>387.7</ele>
        <time>2016-12-31T14:37:24Z</time>
      </trkpt>
      <trkpt lat="43.73729" lon="3.42365">
        <ele>388</ele>
        <time>2016-12-31T14:37:28Z</time>
      </trkpt>
      <trkpt lat="43.73722" lon="3.42362">
        <ele>388.3</ele>
        <time>2016-12-31T14:37:31Z</time>
      </trkpt>
      <trkpt lat="43.73715" lon="3.42358">
        <ele>388.7</ele>
        <time>2016-12-31T14:37:35Z</time>
      </trkpt>
      <trkpt lat="43.73706" lon="3.42355">
        <ele>389.2</ele>
        <time>2016-12-31T14:37:39Z</time>
      </trkpt>
      <trkpt lat="43.73698" lon="3.42351">
        <ele>389.7</ele>
        <time>2016-12-31T14:37:43Z</time>
      </trkpt>
      <trkpt lat="43.73691" lon="3.42346">
        <ele>390.3</ele>
        <time>2016-12-31T14:37:47Z</time>
      </trkpt>
      <trkpt lat="43.73684" lon="3.42341">
        <ele>390.8</ele>
        <time>2016-12-31T14:37:51Z</time>
      </trkpt>
      <trkpt lat="43.73675" lon="3.42339">
        <ele>391.3</ele>
        <time>2016-12-31T14:37:55Z</time>
      </trkpt>
      <trkpt lat="43.73668" lon="3.42337">
        <ele>391.5</ele>
        <time>2016-12-31T14:37:58Z</time>
      </trkpt>
      <trkpt lat="43.7366" lon="3.42336">
        <ele>391.8</ele>
        <time>2016-12-31T14:38:01Z</time>
      </trkpt>
      <trkpt lat="43.73651" lon="3.42332">
        <ele>392.2</ele>
        <time>2016-12-31T14:38:05Z</time>
      </trkpt>
      <trkpt lat="43.73644" lon="3.42328">
        <ele>392.4</ele>
        <time>2016-12-31T14:38:08Z</time>
      </trkpt>
      <trkpt lat="43.73636" lon="3.42323">
        <ele>392.9</ele>
        <time>2016-12-31T14:38:12Z</time>
      </trkpt>
      <trkpt lat="43.73629" lon="3.42319">
        <ele>393.2</ele>
        <time>2016-12-31T14:38:15Z</time>
      </trkpt>
      <trkpt lat="43.73622" lon="3.42314">
        <ele>393.5</ele>
        <time>2016-12-31T14:38:18Z</time>
      </trkpt>
      <trkpt lat="43.73613" lon="3.42309">
        <ele>393.7</ele>
        <time>2016-12-31T14:38:21Z</time>
      </trkpt>
      <trkpt lat="43.73606" lon="3.42301">
        <ele>393.9</ele>
        <time>2016-12-31T14:38:25Z</time>
      </trkpt>
      <trkpt lat="43.73599" lon="3.42292">
        <ele>394.1</ele>
        <time>2016-12-31T14:38:29Z</time>
      </trkpt>
      <trkpt lat="43.73595" lon="3.42283">
        <ele>394.1</ele>
        <time>2016-12-31T14:38:32Z</time>
      </trkpt>
      <trkpt lat="43.73591" lon="3.4227">
        <ele>394.2</ele>
        <time>2016-12-31T14:38:36Z</time>
      </trkpt>
      <trkpt lat="43.73588" lon="3.42258">
        <ele>394.4</ele>
        <time>2016-12-31T14:38:40Z</time>
      </trkpt>
      <trkpt lat="43.73586" lon="3.42248">
        <ele>394.6</ele>
        <time>2016-12-31T14:38:43Z</time>
      </trkpt>
      <trkpt lat="43.73585" lon="3.42238">
        <ele>394.7</ele>
        <time>2016-12-31T14:38:46Z</time>
      </trkpt>
      <trkpt lat="43.73584" lon="3.42227">
        <ele>394.8</ele>
        <time>2016-12-31T14:38:49Z</time>
      </trkpt>
      <trkpt lat="43.73584" lon="3.42216">
        <ele>395</ele>
        <time>2016-12-31T14:38:52Z</time>
      </trkpt>
      <trkpt lat="43.73582" lon="3.42206">
        <ele>395.1</ele>
        <time>2016-12-31T14:38:55Z</time>
      </trkpt>
      <trkpt lat="43.73581" lon="3.42197">
        <ele>395.3</ele>
        <time>2016-12-31T14:38:58Z</time>
      </trkpt>
      <trkpt lat="43.73579" lon="3.42185">
        <ele>395.7</ele>
        <time>2016-12-31T14:39:02Z</time>
      </trkpt>
      <trkpt lat="43.73578" lon="3.42174">
        <ele>396.1</ele>
        <time>2016-12-31T14:39:06Z</time>
      </trkpt>
      <trkpt lat="43.73572" lon="3.42165">
        <ele>396.5</ele>
        <time>2016-12-31T14:39:10Z</time>
      </trkpt>
      <trkpt lat="43.73565" lon="3.4216">
        <ele>397</ele>
        <time>2016-12-31T14:39:14Z</time>
      </trkpt>
      <trkpt lat="43.73561" lon="3.42162">
        <ele>398</ele>
        <time>2016-12-31T14:39:21Z</time>
      </trkpt>
      <trkpt lat="43.73558" lon="3.42162">
        <ele>398.1</ele>
        <time>2016-12-31T14:39:28Z</time>
      </trkpt>
      <trkpt lat="43.73552" lon="3.4216">
        <ele>399.1</ele>
        <time>2016-12-31T14:39:46Z</time>
      </trkpt>
      <trkpt lat="43.73563" lon="3.42173">
        <ele>401.3</ele>
        <time>2016-12-31T14:40:11Z</time>
      </trkpt>
      <trkpt lat="43.73556" lon="3.42167">
        <ele>402.4</ele>
        <time>2016-12-31T14:40:32Z</time>
      </trkpt>
      <trkpt lat="43.73553" lon="3.42166">
        <ele>402.1</ele>
        <time>2016-12-31T14:40:39Z</time>
      </trkpt>
      <trkpt lat="43.73559" lon="3.42166">
        <ele>402</ele>
        <time>2016-12-31T14:41:00Z</time>
      </trkpt>
      <trkpt lat="43.73558" lon="3.42168">
        <ele>401.9</ele>
        <time>2016-12-31T14:42:12Z</time>
      </trkpt>
      <trkpt lat="43.73558" lon="3.42163">
        <ele>402.2</ele>
        <time>2016-12-31T14:42:19Z</time>
      </trkpt>
      <trkpt lat="43.73558" lon="3.4216">
        <ele>402.6</ele>
        <time>2016-12-31T14:42:26Z</time>
      </trkpt>
      <trkpt lat="43.73553" lon="3.4217">
        <ele>403</ele>
        <time>2016-12-31T14:42:32Z</time>
      </trkpt>
      <trkpt lat="43.73545" lon="3.42176">
        <ele>402.8</ele>
        <time>2016-12-31T14:42:36Z</time>
      </trkpt>
      <trkpt lat="43.73537" lon="3.42189">
        <ele>402.6</ele>
        <time>2016-12-31T14:42:39Z</time>
      </trkpt>
      <trkpt lat="43.73536" lon="3.422">
        <ele>402.3</ele>
        <time>2016-12-31T14:42:41Z</time>
      </trkpt>
      <trkpt lat="43.73532" lon="3.42212">
        <ele>401.6</ele>
        <time>2016-12-31T14:42:45Z</time>
      </trkpt>
      <trkpt lat="43.73533" lon="3.42223">
        <ele>401</ele>
        <time>2016-12-31T14:42:48Z</time>
      </trkpt>
      <trkpt lat="43.7353" lon="3.42233">
        <ele>399.6</ele>
        <time>2016-12-31T14:42:52Z</time>
      </trkpt>
      <trkpt lat="43.73526" lon="3.42241">
        <ele>398.6</ele>
        <time>2016-12-31T14:42:55Z</time>
      </trkpt>
      <trkpt lat="43.73521" lon="3.42249">
        <ele>397.8</ele>
        <time>2016-12-31T14:42:57Z</time>
      </trkpt>
      <trkpt lat="43.73511" lon="3.42257">
        <ele>396.3</ele>
        <time>2016-12-31T14:43:00Z</time>
      </trkpt>
      <trkpt lat="43.73505" lon="3.42264">
        <ele>395.4</ele>
        <time>2016-12-31T14:43:02Z</time>
      </trkpt>
      <trkpt lat="43.73494" lon="3.42267">
        <ele>390.4</ele>
        <time>2016-12-31T14:43:05Z</time>
      </trkpt>
      <trkpt lat="43.73487" lon="3.42271">
        <ele>386.4</ele>
        <time>2016-12-31T14:43:07Z</time>
      </trkpt>
      <trkpt lat="43.73482" lon="3.42279">
        <ele>385.7</ele>
        <time>2016-12-31T14:43:09Z</time>
      </trkpt>
      <trkpt lat="43.73476" lon="3.42289">
        <ele>380.9</ele>
        <time>2016-12-31T14:43:11Z</time>
      </trkpt>
      <trkpt lat="43.73468" lon="3.42292">
        <ele>376.9</ele>
        <time>2016-12-31T14:43:13Z</time>
      </trkpt>
      <trkpt lat="43.73463" lon="3.42301">
        <ele>373.7</ele>
        <time>2016-12-31T14:43:15Z</time>
      </trkpt>
      <trkpt lat="43.73455" lon="3.42311">
        <ele>368.4</ele>
        <time>2016-12-31T14:43:18Z</time>
      </trkpt>
      <trkpt lat="43.73454" lon="3.42322">
        <ele>367.9</ele>
        <time>2016-12-31T14:43:21Z</time>
      </trkpt>
      <trkpt lat="43.73456" lon="3.42336">
        <ele>367.2</ele>
        <time>2016-12-31T14:43:24Z</time>
      </trkpt>
      <trkpt lat="43.73464" lon="3.42344">
        <ele>366.3</ele>
        <time>2016-12-31T14:43:28Z</time>
      </trkpt>
      <trkpt lat="43.73467" lon="3.42354">
        <ele>364</ele>
        <time>2016-12-31T14:43:30Z</time>
      </trkpt>
      <trkpt lat="43.7346" lon="3.42359">
        <ele>363</ele>
        <time>2016-12-31T14:43:34Z</time>
      </trkpt>
      <trkpt lat="43.73451" lon="3.4236">
        <ele>362.5</ele>
        <time>2016-12-31T14:43:37Z</time>
      </trkpt>
      <trkpt lat="43.73443" lon="3.42366">
        <ele>362.2</ele>
        <time>2016-12-31T14:43:39Z</time>
      </trkpt>
      <trkpt lat="43.73435" lon="3.42378">
        <ele>361.8</ele>
        <time>2016-12-31T14:43:41Z</time>
      </trkpt>
      <trkpt lat="43.73429" lon="3.42387">
        <ele>356.9</ele>
        <time>2016-12-31T14:43:43Z</time>
      </trkpt>
      <trkpt lat="43.73423" lon="3.42398">
        <ele>356.5</ele>
        <time>2016-12-31T14:43:45Z</time>
      </trkpt>
      <trkpt lat="43.73429" lon="3.42407">
        <ele>355.6</ele>
        <time>2016-12-31T14:43:49Z</time>
      </trkpt>
      <trkpt lat="43.73431" lon="3.4242">
        <ele>354.9</ele>
        <time>2016-12-31T14:43:53Z</time>
      </trkpt>
      <trkpt lat="43.7344" lon="3.42427">
        <ele>353.9</ele>
        <time>2016-12-31T14:43:58Z</time>
      </trkpt>
      <trkpt lat="43.73437" lon="3.4244">
        <ele>352.7</ele>
        <time>2016-12-31T14:44:02Z</time>
      </trkpt>
      <trkpt lat="43.73438" lon="3.42456">
        <ele>345.9</ele>
        <time>2016-12-31T14:44:05Z</time>
      </trkpt>
      <trkpt lat="43.73435" lon="3.4247">
        <ele>345</ele>
        <time>2016-12-31T14:44:08Z</time>
      </trkpt>
      <trkpt lat="43.73436" lon="3.42483">
        <ele>344</ele>
        <time>2016-12-31T14:44:11Z</time>
      </trkpt>
      <trkpt lat="43.73441" lon="3.42495">
        <ele>342.9</ele>
        <time>2016-12-31T14:44:14Z</time>
      </trkpt>
      <trkpt lat="43.7344" lon="3.42506">
        <ele>333.8</ele>
        <time>2016-12-31T14:44:17Z</time>
      </trkpt>
      <trkpt lat="43.73434" lon="3.42516">
        <ele>330.5</ele>
        <time>2016-12-31T14:44:19Z</time>
      </trkpt>
      <trkpt lat="43.73427" lon="3.42528">
        <ele>326.2</ele>
        <time>2016-12-31T14:44:21Z</time>
      </trkpt>
      <trkpt lat="43.73419" lon="3.42538">
        <ele>323.3</ele>
        <time>2016-12-31T14:44:23Z</time>
      </trkpt>
      <trkpt lat="43.73412" lon="3.42548">
        <ele>319.2</ele>
        <time>2016-12-31T14:44:25Z</time>
      </trkpt>
      <trkpt lat="43.73404" lon="3.42553">
        <ele>318.8</ele>
        <time>2016-12-31T14:44:27Z</time>
      </trkpt>
      <trkpt lat="43.73398" lon="3.42559">
        <ele>318.6</ele>
        <time>2016-12-31T14:44:30Z</time>
      </trkpt>
      <trkpt lat="43.73392" lon="3.42571">
        <ele>318.5</ele>
        <time>2016-12-31T14:44:33Z</time>
      </trkpt>
      <trkpt lat="43.73385" lon="3.42586">
        <ele>318.2</ele>
        <time>2016-12-31T14:44:36Z</time>
      </trkpt>
      <trkpt lat="43.73378" lon="3.42598">
        <ele>317.8</ele>
        <time>2016-12-31T14:44:38Z</time>
      </trkpt>
      <trkpt lat="43.73377" lon="3.42608">
        <ele>317.4</ele>
        <time>2016-12-31T14:44:40Z</time>
      </trkpt>
      <trkpt lat="43.73372" lon="3.42622">
        <ele>316.9</ele>
        <time>2016-12-31T14:44:43Z</time>
      </trkpt>
      <trkpt lat="43.73368" lon="3.42629">
        <ele>316.5</ele>
        <time>2016-12-31T14:44:45Z</time>
      </trkpt>
      <trkpt lat="43.73366" lon="3.42642">
        <ele>316</ele>
        <time>2016-12-31T14:44:48Z</time>
      </trkpt>
      <trkpt lat="43.73367" lon="3.42653">
        <ele>315.6</ele>
        <time>2016-12-31T14:44:50Z</time>
      </trkpt>
      <trkpt lat="43.73364" lon="3.42665">
        <ele>314.7</ele>
        <time>2016-12-31T14:44:53Z</time>
      </trkpt>
      <trkpt lat="43.73364" lon="3.42677">
        <ele>313.6</ele>
        <time>2016-12-31T14:44:56Z</time>
      </trkpt>
      <trkpt lat="43.73362" lon="3.42692">
        <ele>312.5</ele>
        <time>2016-12-31T14:44:59Z</time>
      </trkpt>
      <trkpt lat="43.73361" lon="3.42703">
        <ele>311.2</ele>
        <time>2016-12-31T14:45:02Z</time>
      </trkpt>
      <trkpt lat="43.73364" lon="3.42716">
        <ele>309.3</ele>
        <time>2016-12-31T14:45:06Z</time>
      </trkpt>
      <trkpt lat="43.73366" lon="3.4273">
        <ele>307.7</ele>
        <time>2016-12-31T14:45:09Z</time>
      </trkpt>
      <trkpt lat="43.73374" lon="3.4274">
        <ele>306.1</ele>
        <time>2016-12-31T14:45:12Z</time>
      </trkpt>
      <trkpt lat="43.73376" lon="3.42754">
        <ele>304.2</ele>
        <time>2016-12-31T14:45:15Z</time>
      </trkpt>
      <trkpt lat="43.73374" lon="3.42767">
        <ele>296</ele>
        <time>2016-12-31T14:45:18Z</time>
      </trkpt>
      <trkpt lat="43.73367" lon="3.42772">
        <ele>294.5</ele>
        <time>2016-12-31T14:45:21Z</time>
      </trkpt>
      <trkpt lat="43.73358" lon="3.42775">
        <ele>284.5</ele>
        <time>2016-12-31T14:46:06Z</time>
      </trkpt>
      <trkpt lat="43.73351" lon="3.42788">
        <ele>278.8</ele>
        <time>2016-12-31T14:46:08Z</time>
      </trkpt>
      <trkpt lat="43.73345" lon="3.42799">
        <ele>273.9</ele>
        <time>2016-12-31T14:46:10Z</time>
      </trkpt>
      <trkpt lat="43.73338" lon="3.42808">
        <ele>270.1</ele>
        <time>2016-12-31T14:46:12Z</time>
      </trkpt>
      <trkpt lat="43.73333" lon="3.42816">
        <ele>267.2</ele>
        <time>2016-12-31T14:46:14Z</time>
      </trkpt>
      <trkpt lat="43.73324" lon="3.42817">
        <ele>266.7</ele>
        <time>2016-12-31T14:46:17Z</time>
      </trkpt>
      <trkpt lat="43.73318" lon="3.4281">
        <ele>266.4</ele>
        <time>2016-12-31T14:46:20Z</time>
      </trkpt>
      <trkpt lat="43.73308" lon="3.42803">
        <ele>266.1</ele>
        <time>2016-12-31T14:46:23Z</time>
      </trkpt>
      <trkpt lat="43.73301" lon="3.42798">
        <ele>265</ele>
        <time>2016-12-31T14:46:25Z</time>
      </trkpt>
      <trkpt lat="43.73294" lon="3.42792">
        <ele>263.5</ele>
        <time>2016-12-31T14:46:27Z</time>
      </trkpt>
      <trkpt lat="43.73286" lon="3.42786">
        <ele>263</ele>
        <time>2016-12-31T14:46:29Z</time>
      </trkpt>
      <trkpt lat="43.73279" lon="3.4278">
        <ele>262.4</ele>
        <time>2016-12-31T14:46:31Z</time>
      </trkpt>
      <trkpt lat="43.7327" lon="3.42773">
        <ele>262.1</ele>
        <time>2016-12-31T14:46:33Z</time>
      </trkpt>
      <trkpt lat="43.73261" lon="3.42768">
        <ele>261.9</ele>
        <time>2016-12-31T14:46:36Z</time>
      </trkpt>
      <trkpt lat="43.73253" lon="3.4276">
        <ele>261.8</ele>
        <time>2016-12-31T14:46:39Z</time>
      </trkpt>
      <trkpt lat="43.73246" lon="3.42754">
        <ele>260.7</ele>
        <time>2016-12-31T14:46:41Z</time>
      </trkpt>
      <trkpt lat="43.73238" lon="3.42746">
        <ele>260.1</ele>
        <time>2016-12-31T14:46:43Z</time>
      </trkpt>
      <trkpt lat="43.73229" lon="3.42741">
        <ele>259.6</ele>
        <time>2016-12-31T14:46:45Z</time>
      </trkpt>
      <trkpt lat="43.73219" lon="3.42735">
        <ele>258.9</ele>
        <time>2016-12-31T14:46:47Z</time>
      </trkpt>
      <trkpt lat="43.73208" lon="3.42729">
        <ele>257.6</ele>
        <time>2016-12-31T14:46:49Z</time>
      </trkpt>
      <trkpt lat="43.73196" lon="3.42721">
        <ele>256.8</ele>
        <time>2016-12-31T14:46:51Z</time>
      </trkpt>
      <trkpt lat="43.73184" lon="3.42713">
        <ele>256.2</ele>
        <time>2016-12-31T14:46:53Z</time>
      </trkpt>
      <trkpt lat="43.73172" lon="3.42706">
        <ele>255.3</ele>
        <time>2016-12-31T14:46:55Z</time>
      </trkpt>
      <trkpt lat="43.73159" lon="3.42697">
        <ele>255.7</ele>
        <time>2016-12-31T14:46:57Z</time>
      </trkpt>
      <trkpt lat="43.7315" lon="3.42691">
        <ele>255.7</ele>
        <time>2016-12-31T14:46:59Z</time>
      </trkpt>
      <trkpt lat="43.73142" lon="3.42684">
        <ele>255.9</ele>
        <time>2016-12-31T14:47:01Z</time>
      </trkpt>
      <trkpt lat="43.73132" lon="3.42678">
        <ele>256.1</ele>
        <time>2016-12-31T14:47:03Z</time>
      </trkpt>
      <trkpt lat="43.73122" lon="3.42675">
        <ele>255.2</ele>
        <time>2016-12-31T14:47:05Z</time>
      </trkpt>
      <trkpt lat="43.73113" lon="3.42669">
        <ele>254.7</ele>
        <time>2016-12-31T14:47:07Z</time>
      </trkpt>
      <trkpt lat="43.73104" lon="3.4266">
        <ele>254.3</ele>
        <time>2016-12-31T14:47:09Z</time>
      </trkpt>
      <trkpt lat="43.731" lon="3.42647">
        <ele>253.6</ele>
        <time>2016-12-31T14:47:12Z</time>
      </trkpt>
      <trkpt lat="43.73091" lon="3.42637">
        <ele>253.5</ele>
        <time>2016-12-31T14:47:15Z</time>
      </trkpt>
      <trkpt lat="43.73084" lon="3.42633">
        <ele>253.6</ele>
        <time>2016-12-31T14:47:17Z</time>
      </trkpt>
      <trkpt lat="43.73077" lon="3.42628">
        <ele>253.8</ele>
        <time>2016-12-31T14:47:20Z</time>
      </trkpt>
      <trkpt lat="43.73069" lon="3.42622">
        <ele>254</ele>
        <time>2016-12-31T14:47:23Z</time>
      </trkpt>
      <trkpt lat="43.7306" lon="3.42618">
        <ele>254.4</ele>
        <time>2016-12-31T14:47:26Z</time>
      </trkpt>
      <trkpt lat="43.73052" lon="3.42614">
        <ele>254.8</ele>
        <time>2016-12-31T14:47:29Z</time>
      </trkpt>
      <trkpt lat="43.73045" lon="3.4261">
        <ele>255.2</ele>
        <time>2016-12-31T14:47:32Z</time>
      </trkpt>
      <trkpt lat="43.73037" lon="3.42606">
        <ele>255.7</ele>
        <time>2016-12-31T14:47:35Z</time>
      </trkpt>
      <trkpt lat="43.73029" lon="3.42601">
        <ele>256.1</ele>
        <time>2016-12-31T14:47:38Z</time>
      </trkpt>
      <trkpt lat="43.73022" lon="3.42597">
        <ele>256.5</ele>
        <time>2016-12-31T14:47:41Z</time>
      </trkpt>
      <trkpt lat="43.73015" lon="3.42592">
        <ele>256.8</ele>
        <time>2016-12-31T14:47:44Z</time>
      </trkpt>
      <trkpt lat="43.73007" lon="3.42588">
        <ele>257</ele>
        <time>2016-12-31T14:47:47Z</time>
      </trkpt>
      <trkpt lat="43.72999" lon="3.42585">
        <ele>257.2</ele>
        <time>2016-12-31T14:47:49Z</time>
      </trkpt>
      <trkpt lat="43.72989" lon="3.42579">
        <ele>257.5</ele>
        <time>2016-12-31T14:47:52Z</time>
      </trkpt>
      <trkpt lat="43.72981" lon="3.42575">
        <ele>259.8</ele>
        <time>2016-12-31T14:47:54Z</time>
      </trkpt>
      <trkpt lat="43.72974" lon="3.42571">
        <ele>261.3</ele>
        <time>2016-12-31T14:47:56Z</time>
      </trkpt>
      <trkpt lat="43.72965" lon="3.42565">
        <ele>261.5</ele>
        <time>2016-12-31T14:47:59Z</time>
      </trkpt>
      <trkpt lat="43.72956" lon="3.4256">
        <ele>262.2</ele>
        <time>2016-12-31T14:48:01Z</time>
      </trkpt>
      <trkpt lat="43.72946" lon="3.42556">
        <ele>262.3</ele>
        <time>2016-12-31T14:48:04Z</time>
      </trkpt>
      <trkpt lat="43.72939" lon="3.42553">
        <ele>262.5</ele>
        <time>2016-12-31T14:48:06Z</time>
      </trkpt>
      <trkpt lat="43.72931" lon="3.42551">
        <ele>263.5</ele>
        <time>2016-12-31T14:48:10Z</time>
      </trkpt>
      <trkpt lat="43.72921" lon="3.42548">
        <ele>263.7</ele>
        <time>2016-12-31T14:48:13Z</time>
      </trkpt>
      <trkpt lat="43.72913" lon="3.42545">
        <ele>263.8</ele>
        <time>2016-12-31T14:48:15Z</time>
      </trkpt>
      <trkpt lat="43.72901" lon="3.42541">
        <ele>264.1</ele>
        <time>2016-12-31T14:48:17Z</time>
      </trkpt>
      <trkpt lat="43.7289" lon="3.42535">
        <ele>263.2</ele>
        <time>2016-12-31T14:48:19Z</time>
      </trkpt>
      <trkpt lat="43.72881" lon="3.42534">
        <ele>262</ele>
        <time>2016-12-31T14:48:21Z</time>
      </trkpt>
      <trkpt lat="43.72869" lon="3.42532">
        <ele>261.2</ele>
        <time>2016-12-31T14:48:23Z</time>
      </trkpt>
      <trkpt lat="43.72856" lon="3.42529">
        <ele>261.4</ele>
        <time>2016-12-31T14:48:25Z</time>
      </trkpt>
      <trkpt lat="43.72844" lon="3.42524">
        <ele>262.2</ele>
        <time>2016-12-31T14:48:27Z</time>
      </trkpt>
      <trkpt lat="43.72835" lon="3.42517">
        <ele>262.8</ele>
        <time>2016-12-31T14:48:29Z</time>
      </trkpt>
      <trkpt lat="43.72823" lon="3.4251">
        <ele>263.1</ele>
        <time>2016-12-31T14:48:31Z</time>
      </trkpt>
      <trkpt lat="43.72813" lon="3.42506">
        <ele>262.6</ele>
        <time>2016-12-31T14:48:33Z</time>
      </trkpt>
      <trkpt lat="43.72802" lon="3.42501">
        <ele>261.3</ele>
        <time>2016-12-31T14:48:35Z</time>
      </trkpt>
      <trkpt lat="43.72791" lon="3.42499">
        <ele>259.4</ele>
        <time>2016-12-31T14:48:37Z</time>
      </trkpt>
      <trkpt lat="43.7278" lon="3.42499">
        <ele>258.2</ele>
        <time>2016-12-31T14:48:39Z</time>
      </trkpt>
      <trkpt lat="43.72769" lon="3.42498">
        <ele>256.7</ele>
        <time>2016-12-31T14:48:41Z</time>
      </trkpt>
      <trkpt lat="43.72754" lon="3.42499">
        <ele>256.1</ele>
        <time>2016-12-31T14:48:43Z</time>
      </trkpt>
      <trkpt lat="43.72747" lon="3.425">
        <ele>255.8</ele>
        <time>2016-12-31T14:48:44Z</time>
      </trkpt>
      <trkpt lat="43.72738" lon="3.425">
        <ele>255</ele>
        <time>2016-12-31T14:48:45Z</time>
      </trkpt>
      <trkpt lat="43.7273" lon="3.42501">
        <ele>254.1</ele>
        <time>2016-12-31T14:48:46Z</time>
      </trkpt>
      <trkpt lat="43.72722" lon="3.42502">
        <ele>253.2</ele>
        <time>2016-12-31T14:48:47Z</time>
      </trkpt>
      <trkpt lat="43.72707" lon="3.42504">
        <ele>251.2</ele>
        <time>2016-12-31T14:48:49Z</time>
      </trkpt>
      <trkpt lat="43.727" lon="3.42505">
        <ele>250.2</ele>
        <time>2016-12-31T14:48:50Z</time>
      </trkpt>
      <trkpt lat="43.72692" lon="3.42505">
        <ele>249.6</ele>
        <time>2016-12-31T14:48:51Z</time>
      </trkpt>
      <trkpt lat="43.72684" lon="3.42504">
        <ele>249</ele>
        <time>2016-12-31T14:48:52Z</time>
      </trkpt>
      <trkpt lat="43.72676" lon="3.42502">
        <ele>248.3</ele>
        <time>2016-12-31T14:48:53Z</time>
      </trkpt>
      <trkpt lat="43.72668" lon="3.425">
        <ele>247.7</ele>
        <time>2016-12-31T14:48:54Z</time>
      </trkpt>
      <trkpt lat="43.7266" lon="3.42497">
        <ele>247.1</ele>
        <time>2016-12-31T14:48:55Z</time>
      </trkpt>
      <trkpt lat="43.72646" lon="3.4249">
        <ele>246.1</ele>
        <time>2016-12-31T14:48:57Z</time>
      </trkpt>
      <trkpt lat="43.72639" lon="3.42486">
        <ele>245.6</ele>
        <time>2016-12-31T14:48:58Z</time>
      </trkpt>
      <trkpt lat="43.72632" lon="3.42481">
        <ele>245.5</ele>
        <time>2016-12-31T14:48:59Z</time>
      </trkpt>
      <trkpt lat="43.72625" lon="3.42474">
        <ele>245.1</ele>
        <time>2016-12-31T14:49:00Z</time>
      </trkpt>
      <trkpt lat="43.72619" lon="3.42467">
        <ele>244.7</ele>
        <time>2016-12-31T14:49:01Z</time>
      </trkpt>
      <trkpt lat="43.72613" lon="3.42462">
        <ele>244</ele>
        <time>2016-12-31T14:49:02Z</time>
      </trkpt>
      <trkpt lat="43.726" lon="3.42455">
        <ele>242</ele>
        <time>2016-12-31T14:49:04Z</time>
      </trkpt>
      <trkpt lat="43.72587" lon="3.42459">
        <ele>241.8</ele>
        <time>2016-12-31T14:49:06Z</time>
      </trkpt>
      <trkpt lat="43.72576" lon="3.42465">
        <ele>242.6</ele>
        <time>2016-12-31T14:49:08Z</time>
      </trkpt>
      <trkpt lat="43.72568" lon="3.42471">
        <ele>243.9</ele>
        <time>2016-12-31T14:49:10Z</time>
      </trkpt>
      <trkpt lat="43.72559" lon="3.42476">
        <ele>245.7</ele>
        <time>2016-12-31T14:49:13Z</time>
      </trkpt>
      <trkpt lat="43.72549" lon="3.42481">
        <ele>246.1</ele>
        <time>2016-12-31T14:49:16Z</time>
      </trkpt>
      <trkpt lat="43.7254" lon="3.42483">
        <ele>245.8</ele>
        <time>2016-12-31T14:49:18Z</time>
      </trkpt>
      <trkpt lat="43.72533" lon="3.42484">
        <ele>245.8</ele>
        <time>2016-12-31T14:49:20Z</time>
      </trkpt>
      <trkpt lat="43.72525" lon="3.42485">
        <ele>245.8</ele>
        <time>2016-12-31T14:49:22Z</time>
      </trkpt>
      <trkpt lat="43.72516" lon="3.42486">
        <ele>246.1</ele>
        <time>2016-12-31T14:49:24Z</time>
      </trkpt>
      <trkpt lat="43.72506" lon="3.42487">
        <ele>246.6</ele>
        <time>2016-12-31T14:49:26Z</time>
      </trkpt>
      <trkpt lat="43.72495" lon="3.4249">
        <ele>246.2</ele>
        <time>2016-12-31T14:49:28Z</time>
      </trkpt>
      <trkpt lat="43.72483" lon="3.42493">
        <ele>245.4</ele>
        <time>2016-12-31T14:49:30Z</time>
      </trkpt>
      <trkpt lat="43.7247" lon="3.42497">
        <ele>244.3</ele>
        <time>2016-12-31T14:49:32Z</time>
      </trkpt>
      <trkpt lat="43.72458" lon="3.425">
        <ele>243</ele>
        <time>2016-12-31T14:49:34Z</time>
      </trkpt>
      <trkpt lat="43.72449" lon="3.425">
        <ele>241.7</ele>
        <time>2016-12-31T14:49:35Z</time>
      </trkpt>
      <trkpt lat="43.72439" lon="3.42501">
        <ele>240.2</ele>
        <time>2016-12-31T14:49:36Z</time>
      </trkpt>
      <trkpt lat="43.7243" lon="3.42501">
        <ele>238.9</ele>
        <time>2016-12-31T14:49:37Z</time>
      </trkpt>
      <trkpt lat="43.72421" lon="3.425">
        <ele>238.3</ele>
        <time>2016-12-31T14:49:38Z</time>
      </trkpt>
      <trkpt lat="43.7241" lon="3.42498">
        <ele>238.6</ele>
        <time>2016-12-31T14:49:40Z</time>
      </trkpt>
      <trkpt lat="43.72399" lon="3.42498">
        <ele>239.2</ele>
        <time>2016-12-31T14:49:42Z</time>
      </trkpt>
      <trkpt lat="43.72386" lon="3.42497">
        <ele>239.8</ele>
        <time>2016-12-31T14:49:44Z</time>
      </trkpt>
      <trkpt lat="43.72372" lon="3.42489">
        <ele>239.7</ele>
        <time>2016-12-31T14:49:46Z</time>
      </trkpt>
      <trkpt lat="43.72365" lon="3.42485">
        <ele>239.1</ele>
        <time>2016-12-31T14:49:47Z</time>
      </trkpt>
      <trkpt lat="43.72359" lon="3.42481">
        <ele>238.3</ele>
        <time>2016-12-31T14:49:48Z</time>
      </trkpt>
      <trkpt lat="43.72352" lon="3.42476">
        <ele>237.6</ele>
        <time>2016-12-31T14:49:49Z</time>
      </trkpt>
      <trkpt lat="43.72345" lon="3.42473">
        <ele>236.8</ele>
        <time>2016-12-31T14:49:50Z</time>
      </trkpt>
      <trkpt lat="43.72338" lon="3.42469">
        <ele>236.1</ele>
        <time>2016-12-31T14:49:51Z</time>
      </trkpt>
      <trkpt lat="43.72329" lon="3.42464">
        <ele>235.5</ele>
        <time>2016-12-31T14:49:52Z</time>
      </trkpt>
      <trkpt lat="43.72323" lon="3.42459">
        <ele>235</ele>
        <time>2016-12-31T14:49:53Z</time>
      </trkpt>
      <trkpt lat="43.72316" lon="3.42454">
        <ele>234.6</ele>
        <time>2016-12-31T14:49:54Z</time>
      </trkpt>
      <trkpt lat="43.72308" lon="3.42447">
        <ele>234.3</ele>
        <time>2016-12-31T14:49:56Z</time>
      </trkpt>
      <trkpt lat="43.72297" lon="3.4244">
        <ele>233.8</ele>
        <time>2016-12-31T14:49:58Z</time>
      </trkpt>
      <trkpt lat="43.72286" lon="3.42433">
        <ele>234</ele>
        <time>2016-12-31T14:50:00Z</time>
      </trkpt>
      <trkpt lat="43.72272" lon="3.42426">
        <ele>234.3</ele>
        <time>2016-12-31T14:50:02Z</time>
      </trkpt>
      <trkpt lat="43.72265" lon="3.42422">
        <ele>234.5</ele>
        <time>2016-12-31T14:50:03Z</time>
      </trkpt>
      <trkpt lat="43.72258" lon="3.42417">
        <ele>234.3</ele>
        <time>2016-12-31T14:50:04Z</time>
      </trkpt>
      <trkpt lat="43.72247" lon="3.42415">
        <ele>234.6</ele>
        <time>2016-12-31T14:50:06Z</time>
      </trkpt>
      <trkpt lat="43.72236" lon="3.42418">
        <ele>234.5</ele>
        <time>2016-12-31T14:50:08Z</time>
      </trkpt>
      <trkpt lat="43.72226" lon="3.42421">
        <ele>234.5</ele>
        <time>2016-12-31T14:50:10Z</time>
      </trkpt>
      <trkpt lat="43.72213" lon="3.42425">
        <ele>234.7</ele>
        <time>2016-12-31T14:50:12Z</time>
      </trkpt>
      <trkpt lat="43.72199" lon="3.42427">
        <ele>235.2</ele>
        <time>2016-12-31T14:50:14Z</time>
      </trkpt>
      <trkpt lat="43.72185" lon="3.42429">
        <ele>235.4</ele>
        <time>2016-12-31T14:50:16Z</time>
      </trkpt>
      <trkpt lat="43.72173" lon="3.42429">
        <ele>235.6</ele>
        <time>2016-12-31T14:50:18Z</time>
      </trkpt>
      <trkpt lat="43.72163" lon="3.4243">
        <ele>235.3</ele>
        <time>2016-12-31T14:50:20Z</time>
      </trkpt>
      <trkpt lat="43.72155" lon="3.4243">
        <ele>235.9</ele>
        <time>2016-12-31T14:50:22Z</time>
      </trkpt>
      <trkpt lat="43.72144" lon="3.42429">
        <ele>236.3</ele>
        <time>2016-12-31T14:50:25Z</time>
      </trkpt>
      <trkpt lat="43.72133" lon="3.42427">
        <ele>237.2</ele>
        <time>2016-12-31T14:50:27Z</time>
      </trkpt>
      <trkpt lat="43.72123" lon="3.42426">
        <ele>237.3</ele>
        <time>2016-12-31T14:50:29Z</time>
      </trkpt>
      <trkpt lat="43.72111" lon="3.42425">
        <ele>237.1</ele>
        <time>2016-12-31T14:50:31Z</time>
      </trkpt>
      <trkpt lat="43.721" lon="3.42422">
        <ele>236.9</ele>
        <time>2016-12-31T14:50:33Z</time>
      </trkpt>
      <trkpt lat="43.7209" lon="3.42421">
        <ele>236.2</ele>
        <time>2016-12-31T14:50:35Z</time>
      </trkpt>
      <trkpt lat="43.72079" lon="3.42422">
        <ele>236.2</ele>
        <time>2016-12-31T14:50:37Z</time>
      </trkpt>
      <trkpt lat="43.72071" lon="3.42422">
        <ele>236.1</ele>
        <time>2016-12-31T14:50:39Z</time>
      </trkpt>
      <trkpt lat="43.72063" lon="3.42421">
        <ele>236.1</ele>
        <time>2016-12-31T14:50:41Z</time>
      </trkpt>
      <trkpt lat="43.72056" lon="3.42419">
        <ele>235.6</ele>
        <time>2016-12-31T14:50:43Z</time>
      </trkpt>
      <trkpt lat="43.72048" lon="3.42416">
        <ele>235.5</ele>
        <time>2016-12-31T14:50:45Z</time>
      </trkpt>
      <trkpt lat="43.7204" lon="3.42413">
        <ele>235.6</ele>
        <time>2016-12-31T14:50:47Z</time>
      </trkpt>
      <trkpt lat="43.7203" lon="3.42411">
        <ele>234.7</ele>
        <time>2016-12-31T14:50:49Z</time>
      </trkpt>
      <trkpt lat="43.7202" lon="3.42412">
        <ele>234.3</ele>
        <time>2016-12-31T14:50:51Z</time>
      </trkpt>
      <trkpt lat="43.7201" lon="3.42411">
        <ele>234.1</ele>
        <time>2016-12-31T14:50:53Z</time>
      </trkpt>
      <trkpt lat="43.71998" lon="3.42408">
        <ele>234.2</ele>
        <time>2016-12-31T14:50:55Z</time>
      </trkpt>
      <trkpt lat="43.71985" lon="3.42405">
        <ele>234.3</ele>
        <time>2016-12-31T14:50:57Z</time>
      </trkpt>
      <trkpt lat="43.71972" lon="3.42403">
        <ele>233.6</ele>
        <time>2016-12-31T14:50:59Z</time>
      </trkpt>
      <trkpt lat="43.71964" lon="3.42402">
        <ele>233.1</ele>
        <time>2016-12-31T14:51:00Z</time>
      </trkpt>
      <trkpt lat="43.7195" lon="3.42402">
        <ele>232.1</ele>
        <time>2016-12-31T14:51:02Z</time>
      </trkpt>
      <trkpt lat="43.71942" lon="3.42403">
        <ele>231.6</ele>
        <time>2016-12-31T14:51:03Z</time>
      </trkpt>
      <trkpt lat="43.71935" lon="3.42405">
        <ele>231.2</ele>
        <time>2016-12-31T14:51:04Z</time>
      </trkpt>
      <trkpt lat="43.71922" lon="3.42408">
        <ele>230.5</ele>
        <time>2016-12-31T14:51:06Z</time>
      </trkpt>
      <trkpt lat="43.71914" lon="3.42406">
        <ele>229.8</ele>
        <time>2016-12-31T14:51:07Z</time>
      </trkpt>
      <trkpt lat="43.71905" lon="3.42403">
        <ele>228.7</ele>
        <time>2016-12-31T14:51:08Z</time>
      </trkpt>
      <trkpt lat="43.71896" lon="3.424">
        <ele>227.8</ele>
        <time>2016-12-31T14:51:09Z</time>
      </trkpt>
      <trkpt lat="43.71888" lon="3.42395">
        <ele>226.6</ele>
        <time>2016-12-31T14:51:10Z</time>
      </trkpt>
      <trkpt lat="43.7188" lon="3.42393">
        <ele>225.9</ele>
        <time>2016-12-31T14:51:11Z</time>
      </trkpt>
      <trkpt lat="43.71873" lon="3.42395">
        <ele>225.6</ele>
        <time>2016-12-31T14:51:12Z</time>
      </trkpt>
      <trkpt lat="43.71864" lon="3.42397">
        <ele>225.3</ele>
        <time>2016-12-31T14:51:13Z</time>
      </trkpt>
      <trkpt lat="43.71856" lon="3.42399">
        <ele>224.9</ele>
        <time>2016-12-31T14:51:14Z</time>
      </trkpt>
      <trkpt lat="43.71847" lon="3.42401">
        <ele>224.4</ele>
        <time>2016-12-31T14:51:15Z</time>
      </trkpt>
      <trkpt lat="43.7184" lon="3.42402">
        <ele>223.7</ele>
        <time>2016-12-31T14:51:16Z</time>
      </trkpt>
      <trkpt lat="43.71832" lon="3.42403">
        <ele>223</ele>
        <time>2016-12-31T14:51:17Z</time>
      </trkpt>
      <trkpt lat="43.71819" lon="3.424">
        <ele>221.6</ele>
        <time>2016-12-31T14:51:19Z</time>
      </trkpt>
      <trkpt lat="43.71812" lon="3.42399">
        <ele>221.7</ele>
        <time>2016-12-31T14:51:20Z</time>
      </trkpt>
      <trkpt lat="43.71804" lon="3.42397">
        <ele>221.4</ele>
        <time>2016-12-31T14:51:21Z</time>
      </trkpt>
      <trkpt lat="43.71791" lon="3.42393">
        <ele>221.7</ele>
        <time>2016-12-31T14:51:23Z</time>
      </trkpt>
      <trkpt lat="43.71784" lon="3.42391">
        <ele>221.9</ele>
        <time>2016-12-31T14:51:24Z</time>
      </trkpt>
      <trkpt lat="43.71776" lon="3.42387">
        <ele>222.4</ele>
        <time>2016-12-31T14:51:25Z</time>
      </trkpt>
      <trkpt lat="43.71763" lon="3.42382">
        <ele>222.9</ele>
        <time>2016-12-31T14:51:27Z</time>
      </trkpt>
      <trkpt lat="43.71756" lon="3.42378">
        <ele>222.8</ele>
        <time>2016-12-31T14:51:28Z</time>
      </trkpt>
      <trkpt lat="43.71744" lon="3.42373">
        <ele>223</ele>
        <time>2016-12-31T14:51:30Z</time>
      </trkpt>
      <trkpt lat="43.71732" lon="3.42368">
        <ele>223.3</ele>
        <time>2016-12-31T14:51:32Z</time>
      </trkpt>
      <trkpt lat="43.71723" lon="3.42362">
        <ele>223.9</ele>
        <time>2016-12-31T14:51:34Z</time>
      </trkpt>
      <trkpt lat="43.71715" lon="3.42357">
        <ele>224</ele>
        <time>2016-12-31T14:51:36Z</time>
      </trkpt>
      <trkpt lat="43.71708" lon="3.42354">
        <ele>223.1</ele>
        <time>2016-12-31T14:51:38Z</time>
      </trkpt>
      <trkpt lat="43.71699" lon="3.42352">
        <ele>222.6</ele>
        <time>2016-12-31T14:51:40Z</time>
      </trkpt>
      <trkpt lat="43.71689" lon="3.4235">
        <ele>222.9</ele>
        <time>2016-12-31T14:51:42Z</time>
      </trkpt>
      <trkpt lat="43.71678" lon="3.42348">
        <ele>222.7</ele>
        <time>2016-12-31T14:51:44Z</time>
      </trkpt>
      <trkpt lat="43.71664" lon="3.42347">
        <ele>223</ele>
        <time>2016-12-31T14:51:46Z</time>
      </trkpt>
      <trkpt lat="43.7165" lon="3.42348">
        <ele>222.2</ele>
        <time>2016-12-31T14:51:48Z</time>
      </trkpt>
      <trkpt lat="43.71636" lon="3.42349">
        <ele>221.7</ele>
        <time>2016-12-31T14:51:50Z</time>
      </trkpt>
      <trkpt lat="43.71626" lon="3.4235">
        <ele>221.1</ele>
        <time>2016-12-31T14:51:52Z</time>
      </trkpt>
      <trkpt lat="43.71618" lon="3.42351">
        <ele>220.4</ele>
        <time>2016-12-31T14:51:54Z</time>
      </trkpt>
      <trkpt lat="43.7161" lon="3.42352">
        <ele>220</ele>
        <time>2016-12-31T14:51:56Z</time>
      </trkpt>
      <trkpt lat="43.71602" lon="3.42353">
        <ele>220.1</ele>
        <time>2016-12-31T14:51:58Z</time>
      </trkpt>
      <trkpt lat="43.71595" lon="3.42354">
        <ele>220.1</ele>
        <time>2016-12-31T14:52:00Z</time>
      </trkpt>
      <trkpt lat="43.71587" lon="3.42355">
        <ele>220.2</ele>
        <time>2016-12-31T14:52:02Z</time>
      </trkpt>
      <trkpt lat="43.7158" lon="3.42355">
        <ele>220.4</ele>
        <time>2016-12-31T14:52:04Z</time>
      </trkpt>
      <trkpt lat="43.7157" lon="3.42352">
        <ele>220.4</ele>
        <time>2016-12-31T14:52:07Z</time>
      </trkpt>
      <trkpt lat="43.71562" lon="3.42348">
        <ele>220.4</ele>
        <time>2016-12-31T14:52:11Z</time>
      </trkpt>
      <trkpt lat="43.7156" lon="3.42338">
        <ele>220.5</ele>
        <time>2016-12-31T14:52:16Z</time>
      </trkpt>
      <trkpt lat="43.71559" lon="3.42328">
        <ele>220.5</ele>
        <time>2016-12-31T14:52:20Z</time>
      </trkpt>
      <trkpt lat="43.71554" lon="3.42316">
        <ele>220.7</ele>
        <time>2016-12-31T14:52:24Z</time>
      </trkpt>
      <trkpt lat="43.71549" lon="3.42306">
        <ele>220.9</ele>
        <time>2016-12-31T14:52:27Z</time>
      </trkpt>
      <trkpt lat="43.71541" lon="3.42297">
        <ele>221.2</ele>
        <time>2016-12-31T14:52:30Z</time>
      </trkpt>
      <trkpt lat="43.71534" lon="3.42289">
        <ele>221.6</ele>
        <time>2016-12-31T14:52:33Z</time>
      </trkpt>
      <trkpt lat="43.71527" lon="3.42282">
        <ele>221.9</ele>
        <time>2016-12-31T14:52:36Z</time>
      </trkpt>
      <trkpt lat="43.7152" lon="3.42278">
        <ele>222.1</ele>
        <time>2016-12-31T14:52:39Z</time>
      </trkpt>
      <trkpt lat="43.71511" lon="3.42283">
        <ele>222.5</ele>
        <time>2016-12-31T14:52:44Z</time>
      </trkpt>
      <trkpt lat="43.71502" lon="3.42291">
        <ele>222.7</ele>
        <time>2016-12-31T14:52:47Z</time>
      </trkpt>
      <trkpt lat="43.71495" lon="3.42296">
        <ele>224.7</ele>
        <time>2016-12-31T14:52:49Z</time>
      </trkpt>
      <trkpt lat="43.71485" lon="3.42298">
        <ele>228.8</ele>
        <time>2016-12-31T14:52:52Z</time>
      </trkpt>
      <trkpt lat="43.71476" lon="3.42301">
        <ele>229.7</ele>
        <time>2016-12-31T14:52:54Z</time>
      </trkpt>
      <trkpt lat="43.71471" lon="3.4229">
        <ele>229.6</ele>
        <time>2016-12-31T14:52:58Z</time>
      </trkpt>
      <trkpt lat="43.7147" lon="3.42279">
        <ele>229.5</ele>
        <time>2016-12-31T14:53:01Z</time>
      </trkpt>
      <trkpt lat="43.71467" lon="3.42267">
        <ele>229.1</ele>
        <time>2016-12-31T14:53:05Z</time>
      </trkpt>
      <trkpt lat="43.71463" lon="3.42256">
        <ele>228.8</ele>
        <time>2016-12-31T14:53:09Z</time>
      </trkpt>
      <trkpt lat="43.71457" lon="3.42248">
        <ele>228.7</ele>
        <time>2016-12-31T14:53:14Z</time>
      </trkpt>
      <trkpt lat="43.71452" lon="3.42239">
        <ele>228.4</ele>
        <time>2016-12-31T14:53:18Z</time>
      </trkpt>
      <trkpt lat="43.71443" lon="3.42236">
        <ele>228.2</ele>
        <time>2016-12-31T14:53:21Z</time>
      </trkpt>
      <trkpt lat="43.71434" lon="3.42233">
        <ele>228</ele>
        <time>2016-12-31T14:53:25Z</time>
      </trkpt>
      <trkpt lat="43.7143" lon="3.42233">
        <ele>227.7</ele>
        <time>2016-12-31T14:53:32Z</time>
      </trkpt>
    </trkseg>
  </trk>
</gpx>